<?xml version="1.0" encoding="UTF-8" standalone="no" ?>
<gpx xmlns="http://www.topografix.com/GPX/1/1" xmlns:xsi="http://www.w3.org/2001/XMLSchema-instance" xsi:schemaLocation="http://www.topografix.com/GPX/1/1 http://www.topografix.com/GPX/1/1/gpx.xsd" version="1.1" creator="VisuGPX - https://www.visugpx.com">
  <metadata>
    <name>vtt orsonette sarpoil parentignat 8 11 12</name>
    <desc><![CDATA[circuit assez facile]]></desc>
  </metadata>
  <trk>
    <name><![CDATA[2012-11-08 14:03]]></name>
    <desc><![CDATA[<h1>OruxMaps</h1><br /><hr align="center" width="480" style="height: 2px; width: 517px"/><h2>Nom: 2012-11-08 14:03</h2><br /><p>Temps de départ: 11/08/2012 14:03</p><p>Temps d'arrivée: 11/08/2012 16:34</p><p>Distance: 43,2 km (02:29)</p><p>Temps déplacement: 02:12</p><p>Vitesse moyenne: 17,3 km/h</p><p>Vitesse moyenne: 19,6 km/h</p><p>Vitess Max.: 54,1 km/h</p><p>Altitude minimale: 367 m</p><p>Altitude maximale: 562 m</p><p>Vitesse d'élévation: 544,8 m/h</p><p>Vitesse de descente: -726,6 m/h</p><p>Gain Altitude: 567 m</p><p>Perte Altitude: -572 m</p><p>Temps d'élévation: 01:02</p><p>Temps de descente: 00:47</p><hr align="center" width="480" style="height: 2px; width: 517px"/>]]></desc>
    <trkseg>
      <trkpt lat="45.50666" lon="3.22272">
        <ele>544</ele>
        <time>2012-11-08T13:04:24Z</time>
      </trkpt>
      <trkpt lat="45.50655" lon="3.22294">
        <ele>543</ele>
        <time>2012-11-08T13:10:11Z</time>
      </trkpt>
      <trkpt lat="45.50649" lon="3.22318">
        <ele>543</ele>
        <time>2012-11-08T13:10:19Z</time>
      </trkpt>
      <trkpt lat="45.5064" lon="3.22346">
        <ele>541</ele>
        <time>2012-11-08T13:10:25Z</time>
      </trkpt>
      <trkpt lat="45.50619" lon="3.22354">
        <ele>540</ele>
        <time>2012-11-08T13:10:32Z</time>
      </trkpt>
      <trkpt lat="45.50605" lon="3.22372">
        <ele>539</ele>
        <time>2012-11-08T13:10:46Z</time>
      </trkpt>
      <trkpt lat="45.50604" lon="3.22401">
        <ele>538</ele>
        <time>2012-11-08T13:10:51Z</time>
      </trkpt>
      <trkpt lat="45.50605" lon="3.22431">
        <ele>537</ele>
        <time>2012-11-08T13:10:56Z</time>
      </trkpt>
      <trkpt lat="45.50606" lon="3.2246">
        <ele>537</ele>
        <time>2012-11-08T13:11:01Z</time>
      </trkpt>
      <trkpt lat="45.50608" lon="3.22489">
        <ele>537</ele>
        <time>2012-11-08T13:11:06Z</time>
      </trkpt>
      <trkpt lat="45.50611" lon="3.22519">
        <ele>537</ele>
        <time>2012-11-08T13:11:11Z</time>
      </trkpt>
      <trkpt lat="45.50611" lon="3.22549">
        <ele>537</ele>
        <time>2012-11-08T13:11:16Z</time>
      </trkpt>
      <trkpt lat="45.5061" lon="3.22578">
        <ele>537</ele>
        <time>2012-11-08T13:11:21Z</time>
      </trkpt>
      <trkpt lat="45.50608" lon="3.22607">
        <ele>537</ele>
        <time>2012-11-08T13:11:26Z</time>
      </trkpt>
      <trkpt lat="45.50606" lon="3.22635">
        <ele>538</ele>
        <time>2012-11-08T13:11:31Z</time>
      </trkpt>
      <trkpt lat="45.50604" lon="3.22662">
        <ele>537</ele>
        <time>2012-11-08T13:11:38Z</time>
      </trkpt>
      <trkpt lat="45.50603" lon="3.22688">
        <ele>539</ele>
        <time>2012-11-08T13:11:44Z</time>
      </trkpt>
      <trkpt lat="45.506" lon="3.22716">
        <ele>541</ele>
        <time>2012-11-08T13:11:50Z</time>
      </trkpt>
      <trkpt lat="45.50598" lon="3.22741">
        <ele>541</ele>
        <time>2012-11-08T13:11:56Z</time>
      </trkpt>
      <trkpt lat="45.50595" lon="3.22768">
        <ele>545</ele>
        <time>2012-11-08T13:12:03Z</time>
      </trkpt>
      <trkpt lat="45.50587" lon="3.22793">
        <ele>547</ele>
        <time>2012-11-08T13:12:12Z</time>
      </trkpt>
      <trkpt lat="45.50576" lon="3.22813">
        <ele>547</ele>
        <time>2012-11-08T13:12:23Z</time>
      </trkpt>
      <trkpt lat="45.50557" lon="3.22822">
        <ele>547</ele>
        <time>2012-11-08T13:12:37Z</time>
      </trkpt>
      <trkpt lat="45.5054" lon="3.22808">
        <ele>546</ele>
        <time>2012-11-08T13:12:43Z</time>
      </trkpt>
      <trkpt lat="45.50523" lon="3.22797">
        <ele>545</ele>
        <time>2012-11-08T13:12:45Z</time>
      </trkpt>
      <trkpt lat="45.50506" lon="3.22785">
        <ele>544</ele>
        <time>2012-11-08T13:12:48Z</time>
      </trkpt>
      <trkpt lat="45.50494" lon="3.22764">
        <ele>543</ele>
        <time>2012-11-08T13:12:52Z</time>
      </trkpt>
      <trkpt lat="45.50482" lon="3.22744">
        <ele>538</ele>
        <time>2012-11-08T13:12:56Z</time>
      </trkpt>
      <trkpt lat="45.50463" lon="3.2272">
        <ele>537</ele>
        <time>2012-11-08T13:12:59Z</time>
      </trkpt>
      <trkpt lat="45.50446" lon="3.22698">
        <ele>536</ele>
        <time>2012-11-08T13:13:03Z</time>
      </trkpt>
      <trkpt lat="45.50426" lon="3.22674">
        <ele>534</ele>
        <time>2012-11-08T13:13:06Z</time>
      </trkpt>
      <trkpt lat="45.50411" lon="3.22645">
        <ele>531</ele>
        <time>2012-11-08T13:13:09Z</time>
      </trkpt>
      <trkpt lat="45.50395" lon="3.22625">
        <ele>529</ele>
        <time>2012-11-08T13:13:12Z</time>
      </trkpt>
      <trkpt lat="45.50386" lon="3.22598">
        <ele>528</ele>
        <time>2012-11-08T13:13:15Z</time>
      </trkpt>
      <trkpt lat="45.50372" lon="3.22575">
        <ele>523</ele>
        <time>2012-11-08T13:13:18Z</time>
      </trkpt>
      <trkpt lat="45.5036" lon="3.2255">
        <ele>523</ele>
        <time>2012-11-08T13:13:22Z</time>
      </trkpt>
      <trkpt lat="45.50344" lon="3.22536">
        <ele>523</ele>
        <time>2012-11-08T13:13:25Z</time>
      </trkpt>
      <trkpt lat="45.5033" lon="3.22519">
        <ele>522</ele>
        <time>2012-11-08T13:13:29Z</time>
      </trkpt>
      <trkpt lat="45.50312" lon="3.22502">
        <ele>522</ele>
        <time>2012-11-08T13:13:35Z</time>
      </trkpt>
      <trkpt lat="45.50293" lon="3.2249">
        <ele>517</ele>
        <time>2012-11-08T13:13:39Z</time>
      </trkpt>
      <trkpt lat="45.50276" lon="3.22478">
        <ele>517</ele>
        <time>2012-11-08T13:13:43Z</time>
      </trkpt>
      <trkpt lat="45.50256" lon="3.22467">
        <ele>516</ele>
        <time>2012-11-08T13:13:47Z</time>
      </trkpt>
      <trkpt lat="45.50236" lon="3.22449">
        <ele>513</ele>
        <time>2012-11-08T13:13:50Z</time>
      </trkpt>
      <trkpt lat="45.50221" lon="3.22429">
        <ele>512</ele>
        <time>2012-11-08T13:13:53Z</time>
      </trkpt>
      <trkpt lat="45.50208" lon="3.22411">
        <ele>507</ele>
        <time>2012-11-08T13:13:56Z</time>
      </trkpt>
      <trkpt lat="45.50196" lon="3.2238">
        <ele>507</ele>
        <time>2012-11-08T13:13:59Z</time>
      </trkpt>
      <trkpt lat="45.50193" lon="3.22353">
        <ele>505</ele>
        <time>2012-11-08T13:14:04Z</time>
      </trkpt>
      <trkpt lat="45.50176" lon="3.22335">
        <ele>503</ele>
        <time>2012-11-08T13:14:09Z</time>
      </trkpt>
      <trkpt lat="45.50157" lon="3.22324">
        <ele>500</ele>
        <time>2012-11-08T13:14:12Z</time>
      </trkpt>
      <trkpt lat="45.50136" lon="3.22312">
        <ele>498</ele>
        <time>2012-11-08T13:14:15Z</time>
      </trkpt>
      <trkpt lat="45.50118" lon="3.22303">
        <ele>498</ele>
        <time>2012-11-08T13:14:17Z</time>
      </trkpt>
      <trkpt lat="45.50101" lon="3.22274">
        <ele>496</ele>
        <time>2012-11-08T13:14:20Z</time>
      </trkpt>
      <trkpt lat="45.50095" lon="3.22246">
        <ele>492</ele>
        <time>2012-11-08T13:14:22Z</time>
      </trkpt>
      <trkpt lat="45.50085" lon="3.22219">
        <ele>492</ele>
        <time>2012-11-08T13:14:24Z</time>
      </trkpt>
      <trkpt lat="45.50076" lon="3.22197">
        <ele>487</ele>
        <time>2012-11-08T13:14:26Z</time>
      </trkpt>
      <trkpt lat="45.50065" lon="3.22172">
        <ele>487</ele>
        <time>2012-11-08T13:14:30Z</time>
      </trkpt>
      <trkpt lat="45.50047" lon="3.22184">
        <ele>487</ele>
        <time>2012-11-08T13:14:36Z</time>
      </trkpt>
      <trkpt lat="45.50027" lon="3.22193">
        <ele>486</ele>
        <time>2012-11-08T13:14:41Z</time>
      </trkpt>
      <trkpt lat="45.50009" lon="3.22191">
        <ele>485</ele>
        <time>2012-11-08T13:14:45Z</time>
      </trkpt>
      <trkpt lat="45.49987" lon="3.22187">
        <ele>483</ele>
        <time>2012-11-08T13:14:49Z</time>
      </trkpt>
      <trkpt lat="45.49968" lon="3.22184">
        <ele>483</ele>
        <time>2012-11-08T13:14:52Z</time>
      </trkpt>
      <trkpt lat="45.49948" lon="3.22183">
        <ele>482</ele>
        <time>2012-11-08T13:14:55Z</time>
      </trkpt>
      <trkpt lat="45.49929" lon="3.22181">
        <ele>481</ele>
        <time>2012-11-08T13:14:58Z</time>
      </trkpt>
      <trkpt lat="45.49909" lon="3.22181">
        <ele>480</ele>
        <time>2012-11-08T13:15:01Z</time>
      </trkpt>
      <trkpt lat="45.49887" lon="3.22179">
        <ele>480</ele>
        <time>2012-11-08T13:15:04Z</time>
      </trkpt>
      <trkpt lat="45.49866" lon="3.22176">
        <ele>479</ele>
        <time>2012-11-08T13:15:07Z</time>
      </trkpt>
      <trkpt lat="45.49846" lon="3.22175">
        <ele>478</ele>
        <time>2012-11-08T13:15:10Z</time>
      </trkpt>
      <trkpt lat="45.49827" lon="3.22177">
        <ele>477</ele>
        <time>2012-11-08T13:15:13Z</time>
      </trkpt>
      <trkpt lat="45.49808" lon="3.22185">
        <ele>478</ele>
        <time>2012-11-08T13:15:16Z</time>
      </trkpt>
      <trkpt lat="45.49791" lon="3.22193">
        <ele>478</ele>
        <time>2012-11-08T13:15:19Z</time>
      </trkpt>
      <trkpt lat="45.4977" lon="3.222">
        <ele>478</ele>
        <time>2012-11-08T13:15:23Z</time>
      </trkpt>
      <trkpt lat="45.49751" lon="3.222">
        <ele>478</ele>
        <time>2012-11-08T13:15:27Z</time>
      </trkpt>
      <trkpt lat="45.49729" lon="3.22196">
        <ele>477</ele>
        <time>2012-11-08T13:15:31Z</time>
      </trkpt>
      <trkpt lat="45.49707" lon="3.22194">
        <ele>477</ele>
        <time>2012-11-08T13:15:35Z</time>
      </trkpt>
      <trkpt lat="45.49685" lon="3.22193">
        <ele>477</ele>
        <time>2012-11-08T13:15:39Z</time>
      </trkpt>
      <trkpt lat="45.49663" lon="3.2219">
        <ele>476</ele>
        <time>2012-11-08T13:15:43Z</time>
      </trkpt>
      <trkpt lat="45.49642" lon="3.22188">
        <ele>476</ele>
        <time>2012-11-08T13:15:47Z</time>
      </trkpt>
      <trkpt lat="45.49619" lon="3.22186">
        <ele>476</ele>
        <time>2012-11-08T13:15:51Z</time>
      </trkpt>
      <trkpt lat="45.49598" lon="3.22185">
        <ele>476</ele>
        <time>2012-11-08T13:15:55Z</time>
      </trkpt>
      <trkpt lat="45.49575" lon="3.22188">
        <ele>475</ele>
        <time>2012-11-08T13:15:59Z</time>
      </trkpt>
      <trkpt lat="45.49553" lon="3.2219">
        <ele>475</ele>
        <time>2012-11-08T13:16:03Z</time>
      </trkpt>
      <trkpt lat="45.49533" lon="3.22194">
        <ele>475</ele>
        <time>2012-11-08T13:16:07Z</time>
      </trkpt>
      <trkpt lat="45.49511" lon="3.22198">
        <ele>475</ele>
        <time>2012-11-08T13:16:11Z</time>
      </trkpt>
      <trkpt lat="45.49488" lon="3.22201">
        <ele>473</ele>
        <time>2012-11-08T13:16:15Z</time>
      </trkpt>
      <trkpt lat="45.4947" lon="3.22205">
        <ele>473</ele>
        <time>2012-11-08T13:16:18Z</time>
      </trkpt>
      <trkpt lat="45.49448" lon="3.22207">
        <ele>473</ele>
        <time>2012-11-08T13:16:22Z</time>
      </trkpt>
      <trkpt lat="45.49429" lon="3.22208">
        <ele>473</ele>
        <time>2012-11-08T13:16:25Z</time>
      </trkpt>
      <trkpt lat="45.49409" lon="3.22213">
        <ele>472</ele>
        <time>2012-11-08T13:16:29Z</time>
      </trkpt>
      <trkpt lat="45.49388" lon="3.22219">
        <ele>472</ele>
        <time>2012-11-08T13:16:33Z</time>
      </trkpt>
      <trkpt lat="45.49368" lon="3.22226">
        <ele>473</ele>
        <time>2012-11-08T13:16:37Z</time>
      </trkpt>
      <trkpt lat="45.4935" lon="3.22235">
        <ele>473</ele>
        <time>2012-11-08T13:16:41Z</time>
      </trkpt>
      <trkpt lat="45.4933" lon="3.2224">
        <ele>474</ele>
        <time>2012-11-08T13:16:45Z</time>
      </trkpt>
      <trkpt lat="45.49311" lon="3.22246">
        <ele>473</ele>
        <time>2012-11-08T13:16:49Z</time>
      </trkpt>
      <trkpt lat="45.49293" lon="3.22261">
        <ele>476</ele>
        <time>2012-11-08T13:16:54Z</time>
      </trkpt>
      <trkpt lat="45.49291" lon="3.22287">
        <ele>477</ele>
        <time>2012-11-08T13:16:59Z</time>
      </trkpt>
      <trkpt lat="45.49293" lon="3.22312">
        <ele>478</ele>
        <time>2012-11-08T13:17:05Z</time>
      </trkpt>
      <trkpt lat="45.49281" lon="3.22335">
        <ele>482</ele>
        <time>2012-11-08T13:17:14Z</time>
      </trkpt>
      <trkpt lat="45.4926" lon="3.22336">
        <ele>481</ele>
        <time>2012-11-08T13:17:20Z</time>
      </trkpt>
      <trkpt lat="45.49239" lon="3.22339">
        <ele>480</ele>
        <time>2012-11-08T13:17:25Z</time>
      </trkpt>
      <trkpt lat="45.49216" lon="3.22341">
        <ele>480</ele>
        <time>2012-11-08T13:17:30Z</time>
      </trkpt>
      <trkpt lat="45.49196" lon="3.22342">
        <ele>480</ele>
        <time>2012-11-08T13:17:34Z</time>
      </trkpt>
      <trkpt lat="45.49177" lon="3.22348">
        <ele>479</ele>
        <time>2012-11-08T13:17:38Z</time>
      </trkpt>
      <trkpt lat="45.49158" lon="3.22356">
        <ele>477</ele>
        <time>2012-11-08T13:17:42Z</time>
      </trkpt>
      <trkpt lat="45.49137" lon="3.22361">
        <ele>477</ele>
        <time>2012-11-08T13:17:46Z</time>
      </trkpt>
      <trkpt lat="45.49118" lon="3.22364">
        <ele>477</ele>
        <time>2012-11-08T13:17:50Z</time>
      </trkpt>
      <trkpt lat="45.49096" lon="3.22364">
        <ele>476</ele>
        <time>2012-11-08T13:17:54Z</time>
      </trkpt>
      <trkpt lat="45.49078" lon="3.22368">
        <ele>474</ele>
        <time>2012-11-08T13:17:57Z</time>
      </trkpt>
      <trkpt lat="45.49057" lon="3.2237">
        <ele>474</ele>
        <time>2012-11-08T13:18:00Z</time>
      </trkpt>
      <trkpt lat="45.49035" lon="3.22371">
        <ele>473</ele>
        <time>2012-11-08T13:18:03Z</time>
      </trkpt>
      <trkpt lat="45.49012" lon="3.22375">
        <ele>473</ele>
        <time>2012-11-08T13:18:06Z</time>
      </trkpt>
      <trkpt lat="45.48991" lon="3.22381">
        <ele>471</ele>
        <time>2012-11-08T13:18:09Z</time>
      </trkpt>
      <trkpt lat="45.4897" lon="3.22386">
        <ele>471</ele>
        <time>2012-11-08T13:18:12Z</time>
      </trkpt>
      <trkpt lat="45.48951" lon="3.22389">
        <ele>471</ele>
        <time>2012-11-08T13:18:15Z</time>
      </trkpt>
      <trkpt lat="45.48931" lon="3.22388">
        <ele>470</ele>
        <time>2012-11-08T13:18:18Z</time>
      </trkpt>
      <trkpt lat="45.48911" lon="3.22378">
        <ele>468</ele>
        <time>2012-11-08T13:18:21Z</time>
      </trkpt>
      <trkpt lat="45.48889" lon="3.22373">
        <ele>468</ele>
        <time>2012-11-08T13:18:24Z</time>
      </trkpt>
      <trkpt lat="45.48866" lon="3.22368">
        <ele>467</ele>
        <time>2012-11-08T13:18:27Z</time>
      </trkpt>
      <trkpt lat="45.48844" lon="3.22361">
        <ele>466</ele>
        <time>2012-11-08T13:18:30Z</time>
      </trkpt>
      <trkpt lat="45.48825" lon="3.22352">
        <ele>464</ele>
        <time>2012-11-08T13:18:32Z</time>
      </trkpt>
      <trkpt lat="45.488" lon="3.22342">
        <ele>463</ele>
        <time>2012-11-08T13:18:35Z</time>
      </trkpt>
      <trkpt lat="45.48782" lon="3.22336">
        <ele>462</ele>
        <time>2012-11-08T13:18:37Z</time>
      </trkpt>
      <trkpt lat="45.48763" lon="3.22333">
        <ele>458</ele>
        <time>2012-11-08T13:18:39Z</time>
      </trkpt>
      <trkpt lat="45.48737" lon="3.22328">
        <ele>456</ele>
        <time>2012-11-08T13:18:42Z</time>
      </trkpt>
      <trkpt lat="45.48711" lon="3.22326">
        <ele>454</ele>
        <time>2012-11-08T13:18:45Z</time>
      </trkpt>
      <trkpt lat="45.48686" lon="3.2232">
        <ele>453</ele>
        <time>2012-11-08T13:18:48Z</time>
      </trkpt>
      <trkpt lat="45.48662" lon="3.22317">
        <ele>451</ele>
        <time>2012-11-08T13:18:51Z</time>
      </trkpt>
      <trkpt lat="45.48639" lon="3.22314">
        <ele>450</ele>
        <time>2012-11-08T13:18:54Z</time>
      </trkpt>
      <trkpt lat="45.48616" lon="3.22309">
        <ele>450</ele>
        <time>2012-11-08T13:18:57Z</time>
      </trkpt>
      <trkpt lat="45.48595" lon="3.22299">
        <ele>449</ele>
        <time>2012-11-08T13:19:00Z</time>
      </trkpt>
      <trkpt lat="45.48572" lon="3.22285">
        <ele>447</ele>
        <time>2012-11-08T13:19:03Z</time>
      </trkpt>
      <trkpt lat="45.4855" lon="3.22272">
        <ele>447</ele>
        <time>2012-11-08T13:19:06Z</time>
      </trkpt>
      <trkpt lat="45.4853" lon="3.22255">
        <ele>446</ele>
        <time>2012-11-08T13:19:09Z</time>
      </trkpt>
      <trkpt lat="45.48523" lon="3.22224">
        <ele>442</ele>
        <time>2012-11-08T13:19:12Z</time>
      </trkpt>
      <trkpt lat="45.48523" lon="3.22189">
        <ele>441</ele>
        <time>2012-11-08T13:19:15Z</time>
      </trkpt>
      <trkpt lat="45.48521" lon="3.22154">
        <ele>438</ele>
        <time>2012-11-08T13:19:18Z</time>
      </trkpt>
      <trkpt lat="45.48518" lon="3.22121">
        <ele>439</ele>
        <time>2012-11-08T13:19:21Z</time>
      </trkpt>
      <trkpt lat="45.48516" lon="3.22087">
        <ele>438</ele>
        <time>2012-11-08T13:19:24Z</time>
      </trkpt>
      <trkpt lat="45.48514" lon="3.22059">
        <ele>438</ele>
        <time>2012-11-08T13:19:26Z</time>
      </trkpt>
      <trkpt lat="45.48497" lon="3.22048">
        <ele>434</ele>
        <time>2012-11-08T13:19:31Z</time>
      </trkpt>
      <trkpt lat="45.48479" lon="3.22052">
        <ele>434</ele>
        <time>2012-11-08T13:19:34Z</time>
      </trkpt>
      <trkpt lat="45.4846" lon="3.22059">
        <ele>434</ele>
        <time>2012-11-08T13:19:37Z</time>
      </trkpt>
      <trkpt lat="45.48439" lon="3.22067">
        <ele>433</ele>
        <time>2012-11-08T13:19:40Z</time>
      </trkpt>
      <trkpt lat="45.48418" lon="3.22074">
        <ele>432</ele>
        <time>2012-11-08T13:19:43Z</time>
      </trkpt>
      <trkpt lat="45.48395" lon="3.22082">
        <ele>430</ele>
        <time>2012-11-08T13:19:46Z</time>
      </trkpt>
      <trkpt lat="45.48372" lon="3.22089">
        <ele>432</ele>
        <time>2012-11-08T13:19:48Z</time>
      </trkpt>
      <trkpt lat="45.48351" lon="3.22097">
        <ele>432</ele>
        <time>2012-11-08T13:19:52Z</time>
      </trkpt>
      <trkpt lat="45.48331" lon="3.22103">
        <ele>432</ele>
        <time>2012-11-08T13:19:55Z</time>
      </trkpt>
      <trkpt lat="45.48311" lon="3.22107">
        <ele>432</ele>
        <time>2012-11-08T13:19:58Z</time>
      </trkpt>
      <trkpt lat="45.48291" lon="3.22105">
        <ele>432</ele>
        <time>2012-11-08T13:20:01Z</time>
      </trkpt>
      <trkpt lat="45.48273" lon="3.22099">
        <ele>432</ele>
        <time>2012-11-08T13:20:04Z</time>
      </trkpt>
      <trkpt lat="45.48253" lon="3.22091">
        <ele>431</ele>
        <time>2012-11-08T13:20:07Z</time>
      </trkpt>
      <trkpt lat="45.48232" lon="3.22086">
        <ele>432</ele>
        <time>2012-11-08T13:20:10Z</time>
      </trkpt>
      <trkpt lat="45.48209" lon="3.22083">
        <ele>432</ele>
        <time>2012-11-08T13:20:13Z</time>
      </trkpt>
      <trkpt lat="45.48187" lon="3.22085">
        <ele>431</ele>
        <time>2012-11-08T13:20:16Z</time>
      </trkpt>
      <trkpt lat="45.48165" lon="3.22089">
        <ele>430</ele>
        <time>2012-11-08T13:20:19Z</time>
      </trkpt>
      <trkpt lat="45.4814" lon="3.22091">
        <ele>431</ele>
        <time>2012-11-08T13:20:22Z</time>
      </trkpt>
      <trkpt lat="45.48115" lon="3.2209">
        <ele>430</ele>
        <time>2012-11-08T13:20:25Z</time>
      </trkpt>
      <trkpt lat="45.48092" lon="3.22093">
        <ele>429</ele>
        <time>2012-11-08T13:20:28Z</time>
      </trkpt>
      <trkpt lat="45.4807" lon="3.22087">
        <ele>429</ele>
        <time>2012-11-08T13:20:31Z</time>
      </trkpt>
      <trkpt lat="45.4805" lon="3.22074">
        <ele>426</ele>
        <time>2012-11-08T13:20:34Z</time>
      </trkpt>
      <trkpt lat="45.48031" lon="3.22067">
        <ele>426</ele>
        <time>2012-11-08T13:20:37Z</time>
      </trkpt>
      <trkpt lat="45.48011" lon="3.22071">
        <ele>426</ele>
        <time>2012-11-08T13:20:40Z</time>
      </trkpt>
      <trkpt lat="45.47989" lon="3.22076">
        <ele>427</ele>
        <time>2012-11-08T13:20:44Z</time>
      </trkpt>
      <trkpt lat="45.47966" lon="3.22076">
        <ele>426</ele>
        <time>2012-11-08T13:20:48Z</time>
      </trkpt>
      <trkpt lat="45.47947" lon="3.2208">
        <ele>426</ele>
        <time>2012-11-08T13:20:51Z</time>
      </trkpt>
      <trkpt lat="45.47925" lon="3.22071">
        <ele>426</ele>
        <time>2012-11-08T13:20:55Z</time>
      </trkpt>
      <trkpt lat="45.47905" lon="3.2206">
        <ele>425</ele>
        <time>2012-11-08T13:20:58Z</time>
      </trkpt>
      <trkpt lat="45.47886" lon="3.22052">
        <ele>424</ele>
        <time>2012-11-08T13:21:01Z</time>
      </trkpt>
      <trkpt lat="45.47863" lon="3.22051">
        <ele>424</ele>
        <time>2012-11-08T13:21:04Z</time>
      </trkpt>
      <trkpt lat="45.47839" lon="3.22047">
        <ele>423</ele>
        <time>2012-11-08T13:21:07Z</time>
      </trkpt>
      <trkpt lat="45.47819" lon="3.22042">
        <ele>423</ele>
        <time>2012-11-08T13:21:10Z</time>
      </trkpt>
      <trkpt lat="45.47798" lon="3.22035">
        <ele>422</ele>
        <time>2012-11-08T13:21:13Z</time>
      </trkpt>
      <trkpt lat="45.47776" lon="3.22034">
        <ele>422</ele>
        <time>2012-11-08T13:21:16Z</time>
      </trkpt>
      <trkpt lat="45.47754" lon="3.22031">
        <ele>422</ele>
        <time>2012-11-08T13:21:19Z</time>
      </trkpt>
      <trkpt lat="45.47732" lon="3.22029">
        <ele>421</ele>
        <time>2012-11-08T13:21:22Z</time>
      </trkpt>
      <trkpt lat="45.47711" lon="3.22027">
        <ele>420</ele>
        <time>2012-11-08T13:21:25Z</time>
      </trkpt>
      <trkpt lat="45.47688" lon="3.22026">
        <ele>420</ele>
        <time>2012-11-08T13:21:28Z</time>
      </trkpt>
      <trkpt lat="45.47667" lon="3.22026">
        <ele>419</ele>
        <time>2012-11-08T13:21:31Z</time>
      </trkpt>
      <trkpt lat="45.47647" lon="3.22027">
        <ele>418</ele>
        <time>2012-11-08T13:21:34Z</time>
      </trkpt>
      <trkpt lat="45.47625" lon="3.22028">
        <ele>418</ele>
        <time>2012-11-08T13:21:37Z</time>
      </trkpt>
      <trkpt lat="45.47604" lon="3.22031">
        <ele>418</ele>
        <time>2012-11-08T13:21:40Z</time>
      </trkpt>
      <trkpt lat="45.47583" lon="3.22036">
        <ele>416</ele>
        <time>2012-11-08T13:21:43Z</time>
      </trkpt>
      <trkpt lat="45.47562" lon="3.22041">
        <ele>416</ele>
        <time>2012-11-08T13:21:46Z</time>
      </trkpt>
      <trkpt lat="45.47542" lon="3.22047">
        <ele>416</ele>
        <time>2012-11-08T13:21:49Z</time>
      </trkpt>
      <trkpt lat="45.47522" lon="3.22051">
        <ele>416</ele>
        <time>2012-11-08T13:21:52Z</time>
      </trkpt>
      <trkpt lat="45.47501" lon="3.22058">
        <ele>416</ele>
        <time>2012-11-08T13:21:55Z</time>
      </trkpt>
      <trkpt lat="45.4748" lon="3.22066">
        <ele>414</ele>
        <time>2012-11-08T13:21:58Z</time>
      </trkpt>
      <trkpt lat="45.4746" lon="3.22073">
        <ele>414</ele>
        <time>2012-11-08T13:22:01Z</time>
      </trkpt>
      <trkpt lat="45.47439" lon="3.22082">
        <ele>413</ele>
        <time>2012-11-08T13:22:04Z</time>
      </trkpt>
      <trkpt lat="45.47419" lon="3.2209">
        <ele>414</ele>
        <time>2012-11-08T13:22:07Z</time>
      </trkpt>
      <trkpt lat="45.47401" lon="3.22098">
        <ele>414</ele>
        <time>2012-11-08T13:22:10Z</time>
      </trkpt>
      <trkpt lat="45.47383" lon="3.22107">
        <ele>414</ele>
        <time>2012-11-08T13:22:13Z</time>
      </trkpt>
      <trkpt lat="45.47366" lon="3.22117">
        <ele>413</ele>
        <time>2012-11-08T13:22:15Z</time>
      </trkpt>
      <trkpt lat="45.47348" lon="3.2213">
        <ele>413</ele>
        <time>2012-11-08T13:22:19Z</time>
      </trkpt>
      <trkpt lat="45.47332" lon="3.22143">
        <ele>412</ele>
        <time>2012-11-08T13:22:22Z</time>
      </trkpt>
      <trkpt lat="45.47316" lon="3.22157">
        <ele>412</ele>
        <time>2012-11-08T13:22:25Z</time>
      </trkpt>
      <trkpt lat="45.473" lon="3.22172">
        <ele>413</ele>
        <time>2012-11-08T13:22:28Z</time>
      </trkpt>
      <trkpt lat="45.47283" lon="3.22186">
        <ele>413</ele>
        <time>2012-11-08T13:22:31Z</time>
      </trkpt>
      <trkpt lat="45.47267" lon="3.22201">
        <ele>413</ele>
        <time>2012-11-08T13:22:34Z</time>
      </trkpt>
      <trkpt lat="45.47251" lon="3.22216">
        <ele>412</ele>
        <time>2012-11-08T13:22:37Z</time>
      </trkpt>
      <trkpt lat="45.47235" lon="3.2223">
        <ele>410</ele>
        <time>2012-11-08T13:22:40Z</time>
      </trkpt>
      <trkpt lat="45.47218" lon="3.22245">
        <ele>410</ele>
        <time>2012-11-08T13:22:43Z</time>
      </trkpt>
      <trkpt lat="45.472" lon="3.2226">
        <ele>410</ele>
        <time>2012-11-08T13:22:46Z</time>
      </trkpt>
      <trkpt lat="45.47184" lon="3.22276">
        <ele>410</ele>
        <time>2012-11-08T13:22:49Z</time>
      </trkpt>
      <trkpt lat="45.47168" lon="3.22291">
        <ele>410</ele>
        <time>2012-11-08T13:22:52Z</time>
      </trkpt>
      <trkpt lat="45.47158" lon="3.22315">
        <ele>408</ele>
        <time>2012-11-08T13:22:55Z</time>
      </trkpt>
      <trkpt lat="45.47151" lon="3.22339">
        <ele>408</ele>
        <time>2012-11-08T13:22:58Z</time>
      </trkpt>
      <trkpt lat="45.47143" lon="3.22364">
        <ele>407</ele>
        <time>2012-11-08T13:23:01Z</time>
      </trkpt>
      <trkpt lat="45.47134" lon="3.2239">
        <ele>407</ele>
        <time>2012-11-08T13:23:04Z</time>
      </trkpt>
      <trkpt lat="45.47125" lon="3.22416">
        <ele>407</ele>
        <time>2012-11-08T13:23:07Z</time>
      </trkpt>
      <trkpt lat="45.47117" lon="3.22439">
        <ele>408</ele>
        <time>2012-11-08T13:23:10Z</time>
      </trkpt>
      <trkpt lat="45.47107" lon="3.22471">
        <ele>408</ele>
        <time>2012-11-08T13:23:13Z</time>
      </trkpt>
      <trkpt lat="45.47098" lon="3.22499">
        <ele>407</ele>
        <time>2012-11-08T13:23:18Z</time>
      </trkpt>
      <trkpt lat="45.4709" lon="3.22525">
        <ele>409</ele>
        <time>2012-11-08T13:23:22Z</time>
      </trkpt>
      <trkpt lat="45.47084" lon="3.22555">
        <ele>409</ele>
        <time>2012-11-08T13:23:25Z</time>
      </trkpt>
      <trkpt lat="45.47083" lon="3.22581">
        <ele>408</ele>
        <time>2012-11-08T13:23:29Z</time>
      </trkpt>
      <trkpt lat="45.47081" lon="3.22607">
        <ele>407</ele>
        <time>2012-11-08T13:23:32Z</time>
      </trkpt>
      <trkpt lat="45.47081" lon="3.2264">
        <ele>407</ele>
        <time>2012-11-08T13:23:36Z</time>
      </trkpt>
      <trkpt lat="45.4708" lon="3.22672">
        <ele>407</ele>
        <time>2012-11-08T13:23:40Z</time>
      </trkpt>
      <trkpt lat="45.4708" lon="3.22697">
        <ele>406</ele>
        <time>2012-11-08T13:23:43Z</time>
      </trkpt>
      <trkpt lat="45.47079" lon="3.22729">
        <ele>405</ele>
        <time>2012-11-08T13:23:47Z</time>
      </trkpt>
      <trkpt lat="45.47078" lon="3.22763">
        <ele>405</ele>
        <time>2012-11-08T13:23:51Z</time>
      </trkpt>
      <trkpt lat="45.47079" lon="3.22788">
        <ele>404</ele>
        <time>2012-11-08T13:23:53Z</time>
      </trkpt>
      <trkpt lat="45.47078" lon="3.22821">
        <ele>404</ele>
        <time>2012-11-08T13:23:58Z</time>
      </trkpt>
      <trkpt lat="45.47083" lon="3.22853">
        <ele>404</ele>
        <time>2012-11-08T13:24:02Z</time>
      </trkpt>
      <trkpt lat="45.47091" lon="3.22884">
        <ele>406</ele>
        <time>2012-11-08T13:24:06Z</time>
      </trkpt>
      <trkpt lat="45.47103" lon="3.22914">
        <ele>405</ele>
        <time>2012-11-08T13:24:10Z</time>
      </trkpt>
      <trkpt lat="45.47116" lon="3.22942">
        <ele>405</ele>
        <time>2012-11-08T13:24:14Z</time>
      </trkpt>
      <trkpt lat="45.47125" lon="3.22964">
        <ele>405</ele>
        <time>2012-11-08T13:24:17Z</time>
      </trkpt>
      <trkpt lat="45.47133" lon="3.22988">
        <ele>405</ele>
        <time>2012-11-08T13:24:20Z</time>
      </trkpt>
      <trkpt lat="45.47143" lon="3.23017">
        <ele>405</ele>
        <time>2012-11-08T13:24:24Z</time>
      </trkpt>
      <trkpt lat="45.4715" lon="3.23045">
        <ele>405</ele>
        <time>2012-11-08T13:24:28Z</time>
      </trkpt>
      <trkpt lat="45.47139" lon="3.23066">
        <ele>404</ele>
        <time>2012-11-08T13:24:32Z</time>
      </trkpt>
      <trkpt lat="45.47122" lon="3.23084">
        <ele>403</ele>
        <time>2012-11-08T13:24:36Z</time>
      </trkpt>
      <trkpt lat="45.47104" lon="3.23102">
        <ele>403</ele>
        <time>2012-11-08T13:24:40Z</time>
      </trkpt>
      <trkpt lat="45.47088" lon="3.23121">
        <ele>403</ele>
        <time>2012-11-08T13:24:44Z</time>
      </trkpt>
      <trkpt lat="45.47071" lon="3.23142">
        <ele>403</ele>
        <time>2012-11-08T13:24:48Z</time>
      </trkpt>
      <trkpt lat="45.47055" lon="3.2316">
        <ele>403</ele>
        <time>2012-11-08T13:24:52Z</time>
      </trkpt>
      <trkpt lat="45.4704" lon="3.23175">
        <ele>403</ele>
        <time>2012-11-08T13:24:56Z</time>
      </trkpt>
      <trkpt lat="45.47023" lon="3.23194">
        <ele>403</ele>
        <time>2012-11-08T13:25:00Z</time>
      </trkpt>
      <trkpt lat="45.47007" lon="3.2321">
        <ele>403</ele>
        <time>2012-11-08T13:25:04Z</time>
      </trkpt>
      <trkpt lat="45.46989" lon="3.23231">
        <ele>403</ele>
        <time>2012-11-08T13:25:08Z</time>
      </trkpt>
      <trkpt lat="45.46971" lon="3.2325">
        <ele>405</ele>
        <time>2012-11-08T13:25:13Z</time>
      </trkpt>
      <trkpt lat="45.46956" lon="3.23265">
        <ele>406</ele>
        <time>2012-11-08T13:25:18Z</time>
      </trkpt>
      <trkpt lat="45.46942" lon="3.23282">
        <ele>406</ele>
        <time>2012-11-08T13:25:23Z</time>
      </trkpt>
      <trkpt lat="45.46928" lon="3.23299">
        <ele>407</ele>
        <time>2012-11-08T13:25:28Z</time>
      </trkpt>
      <trkpt lat="45.46911" lon="3.23313">
        <ele>409</ele>
        <time>2012-11-08T13:25:34Z</time>
      </trkpt>
      <trkpt lat="45.46891" lon="3.23324">
        <ele>409</ele>
        <time>2012-11-08T13:25:40Z</time>
      </trkpt>
      <trkpt lat="45.46873" lon="3.2333">
        <ele>409</ele>
        <time>2012-11-08T13:25:45Z</time>
      </trkpt>
      <trkpt lat="45.46854" lon="3.23335">
        <ele>412</ele>
        <time>2012-11-08T13:25:50Z</time>
      </trkpt>
      <trkpt lat="45.46835" lon="3.23343">
        <ele>411</ele>
        <time>2012-11-08T13:25:55Z</time>
      </trkpt>
      <trkpt lat="45.46816" lon="3.23353">
        <ele>412</ele>
        <time>2012-11-08T13:26:00Z</time>
      </trkpt>
      <trkpt lat="45.46799" lon="3.23362">
        <ele>412</ele>
        <time>2012-11-08T13:26:04Z</time>
      </trkpt>
      <trkpt lat="45.46782" lon="3.23373">
        <ele>413</ele>
        <time>2012-11-08T13:26:08Z</time>
      </trkpt>
      <trkpt lat="45.46762" lon="3.23385">
        <ele>413</ele>
        <time>2012-11-08T13:26:13Z</time>
      </trkpt>
      <trkpt lat="45.46745" lon="3.23397">
        <ele>413</ele>
        <time>2012-11-08T13:26:17Z</time>
      </trkpt>
      <trkpt lat="45.46728" lon="3.23408">
        <ele>413</ele>
        <time>2012-11-08T13:26:21Z</time>
      </trkpt>
      <trkpt lat="45.4671" lon="3.23419">
        <ele>414</ele>
        <time>2012-11-08T13:26:25Z</time>
      </trkpt>
      <trkpt lat="45.46692" lon="3.23429">
        <ele>414</ele>
        <time>2012-11-08T13:26:29Z</time>
      </trkpt>
      <trkpt lat="45.46673" lon="3.23436">
        <ele>414</ele>
        <time>2012-11-08T13:26:33Z</time>
      </trkpt>
      <trkpt lat="45.46652" lon="3.23446">
        <ele>413</ele>
        <time>2012-11-08T13:26:37Z</time>
      </trkpt>
      <trkpt lat="45.46633" lon="3.23456">
        <ele>413</ele>
        <time>2012-11-08T13:26:41Z</time>
      </trkpt>
      <trkpt lat="45.4661" lon="3.23468">
        <ele>413</ele>
        <time>2012-11-08T13:26:45Z</time>
      </trkpt>
      <trkpt lat="45.46591" lon="3.23477">
        <ele>413</ele>
        <time>2012-11-08T13:26:48Z</time>
      </trkpt>
      <trkpt lat="45.46574" lon="3.23494">
        <ele>412</ele>
        <time>2012-11-08T13:26:51Z</time>
      </trkpt>
      <trkpt lat="45.46562" lon="3.23517">
        <ele>412</ele>
        <time>2012-11-08T13:26:54Z</time>
      </trkpt>
      <trkpt lat="45.46547" lon="3.2354">
        <ele>411</ele>
        <time>2012-11-08T13:26:57Z</time>
      </trkpt>
      <trkpt lat="45.46526" lon="3.23567">
        <ele>411</ele>
        <time>2012-11-08T13:27:01Z</time>
      </trkpt>
      <trkpt lat="45.46511" lon="3.23588">
        <ele>411</ele>
        <time>2012-11-08T13:27:04Z</time>
      </trkpt>
      <trkpt lat="45.46495" lon="3.23606">
        <ele>408</ele>
        <time>2012-11-08T13:27:07Z</time>
      </trkpt>
      <trkpt lat="45.46478" lon="3.23624">
        <ele>408</ele>
        <time>2012-11-08T13:27:10Z</time>
      </trkpt>
      <trkpt lat="45.46462" lon="3.23641">
        <ele>408</ele>
        <time>2012-11-08T13:27:13Z</time>
      </trkpt>
      <trkpt lat="45.46445" lon="3.23664">
        <ele>407</ele>
        <time>2012-11-08T13:27:17Z</time>
      </trkpt>
      <trkpt lat="45.46427" lon="3.23686">
        <ele>407</ele>
        <time>2012-11-08T13:27:21Z</time>
      </trkpt>
      <trkpt lat="45.46411" lon="3.23701">
        <ele>405</ele>
        <time>2012-11-08T13:27:24Z</time>
      </trkpt>
      <trkpt lat="45.46401" lon="3.2373">
        <ele>405</ele>
        <time>2012-11-08T13:27:28Z</time>
      </trkpt>
      <trkpt lat="45.46406" lon="3.23758">
        <ele>405</ele>
        <time>2012-11-08T13:27:31Z</time>
      </trkpt>
      <trkpt lat="45.46416" lon="3.2379">
        <ele>405</ele>
        <time>2012-11-08T13:27:35Z</time>
      </trkpt>
      <trkpt lat="45.46428" lon="3.23812">
        <ele>406</ele>
        <time>2012-11-08T13:27:38Z</time>
      </trkpt>
      <trkpt lat="45.46438" lon="3.23843">
        <ele>407</ele>
        <time>2012-11-08T13:27:42Z</time>
      </trkpt>
      <trkpt lat="45.4644" lon="3.23875">
        <ele>407</ele>
        <time>2012-11-08T13:27:46Z</time>
      </trkpt>
      <trkpt lat="45.46441" lon="3.23909">
        <ele>407</ele>
        <time>2012-11-08T13:27:50Z</time>
      </trkpt>
      <trkpt lat="45.46441" lon="3.23942">
        <ele>407</ele>
        <time>2012-11-08T13:27:54Z</time>
      </trkpt>
      <trkpt lat="45.46446" lon="3.23969">
        <ele>407</ele>
        <time>2012-11-08T13:27:57Z</time>
      </trkpt>
      <trkpt lat="45.46449" lon="3.23997">
        <ele>407</ele>
        <time>2012-11-08T13:28:00Z</time>
      </trkpt>
      <trkpt lat="45.46451" lon="3.24023">
        <ele>406</ele>
        <time>2012-11-08T13:28:03Z</time>
      </trkpt>
      <trkpt lat="45.46454" lon="3.24052">
        <ele>406</ele>
        <time>2012-11-08T13:28:06Z</time>
      </trkpt>
      <trkpt lat="45.46459" lon="3.24083">
        <ele>406</ele>
        <time>2012-11-08T13:28:09Z</time>
      </trkpt>
      <trkpt lat="45.46463" lon="3.24118">
        <ele>405</ele>
        <time>2012-11-08T13:28:13Z</time>
      </trkpt>
      <trkpt lat="45.46464" lon="3.24145">
        <ele>405</ele>
        <time>2012-11-08T13:28:16Z</time>
      </trkpt>
      <trkpt lat="45.4647" lon="3.24175">
        <ele>406</ele>
        <time>2012-11-08T13:28:20Z</time>
      </trkpt>
      <trkpt lat="45.46477" lon="3.24199">
        <ele>406</ele>
        <time>2012-11-08T13:28:23Z</time>
      </trkpt>
      <trkpt lat="45.46486" lon="3.24224">
        <ele>407</ele>
        <time>2012-11-08T13:28:26Z</time>
      </trkpt>
      <trkpt lat="45.46492" lon="3.24256">
        <ele>409</ele>
        <time>2012-11-08T13:28:30Z</time>
      </trkpt>
      <trkpt lat="45.46498" lon="3.24284">
        <ele>408</ele>
        <time>2012-11-08T13:28:34Z</time>
      </trkpt>
      <trkpt lat="45.46495" lon="3.24311">
        <ele>409</ele>
        <time>2012-11-08T13:28:38Z</time>
      </trkpt>
      <trkpt lat="45.46502" lon="3.24342">
        <ele>415</ele>
        <time>2012-11-08T13:28:42Z</time>
      </trkpt>
      <trkpt lat="45.46507" lon="3.24371">
        <ele>417</ele>
        <time>2012-11-08T13:28:47Z</time>
      </trkpt>
      <trkpt lat="45.46513" lon="3.24397">
        <ele>416</ele>
        <time>2012-11-08T13:28:51Z</time>
      </trkpt>
      <trkpt lat="45.46522" lon="3.24423">
        <ele>414</ele>
        <time>2012-11-08T13:28:56Z</time>
      </trkpt>
      <trkpt lat="45.46531" lon="3.24448">
        <ele>415</ele>
        <time>2012-11-08T13:29:00Z</time>
      </trkpt>
      <trkpt lat="45.4654" lon="3.24472">
        <ele>416</ele>
        <time>2012-11-08T13:29:04Z</time>
      </trkpt>
      <trkpt lat="45.46547" lon="3.24496">
        <ele>416</ele>
        <time>2012-11-08T13:29:08Z</time>
      </trkpt>
      <trkpt lat="45.46557" lon="3.24526">
        <ele>413</ele>
        <time>2012-11-08T13:29:12Z</time>
      </trkpt>
      <trkpt lat="45.46567" lon="3.24554">
        <ele>412</ele>
        <time>2012-11-08T13:29:16Z</time>
      </trkpt>
      <trkpt lat="45.46574" lon="3.24578">
        <ele>413</ele>
        <time>2012-11-08T13:29:19Z</time>
      </trkpt>
      <trkpt lat="45.46583" lon="3.24607">
        <ele>417</ele>
        <time>2012-11-08T13:29:23Z</time>
      </trkpt>
      <trkpt lat="45.46592" lon="3.24637">
        <ele>417</ele>
        <time>2012-11-08T13:29:27Z</time>
      </trkpt>
      <trkpt lat="45.46599" lon="3.24665">
        <ele>414</ele>
        <time>2012-11-08T13:29:31Z</time>
      </trkpt>
      <trkpt lat="45.46605" lon="3.2469">
        <ele>412</ele>
        <time>2012-11-08T13:29:34Z</time>
      </trkpt>
      <trkpt lat="45.46614" lon="3.24717">
        <ele>412</ele>
        <time>2012-11-08T13:29:37Z</time>
      </trkpt>
      <trkpt lat="45.46622" lon="3.24742">
        <ele>412</ele>
        <time>2012-11-08T13:29:40Z</time>
      </trkpt>
      <trkpt lat="45.4663" lon="3.24767">
        <ele>409</ele>
        <time>2012-11-08T13:29:43Z</time>
      </trkpt>
      <trkpt lat="45.46637" lon="3.24793">
        <ele>408</ele>
        <time>2012-11-08T13:29:46Z</time>
      </trkpt>
      <trkpt lat="45.46645" lon="3.2482">
        <ele>408</ele>
        <time>2012-11-08T13:29:49Z</time>
      </trkpt>
      <trkpt lat="45.4665" lon="3.24848">
        <ele>407</ele>
        <time>2012-11-08T13:29:52Z</time>
      </trkpt>
      <trkpt lat="45.46655" lon="3.24875">
        <ele>405</ele>
        <time>2012-11-08T13:29:55Z</time>
      </trkpt>
      <trkpt lat="45.4666" lon="3.24907">
        <ele>406</ele>
        <time>2012-11-08T13:29:58Z</time>
      </trkpt>
      <trkpt lat="45.46664" lon="3.24937">
        <ele>404</ele>
        <time>2012-11-08T13:30:01Z</time>
      </trkpt>
      <trkpt lat="45.46669" lon="3.24965">
        <ele>410</ele>
        <time>2012-11-08T13:30:04Z</time>
      </trkpt>
      <trkpt lat="45.46676" lon="3.24996">
        <ele>407</ele>
        <time>2012-11-08T13:30:07Z</time>
      </trkpt>
      <trkpt lat="45.46683" lon="3.25025">
        <ele>409</ele>
        <time>2012-11-08T13:30:10Z</time>
      </trkpt>
      <trkpt lat="45.4669" lon="3.25053">
        <ele>409</ele>
        <time>2012-11-08T13:30:13Z</time>
      </trkpt>
      <trkpt lat="45.46697" lon="3.2508">
        <ele>410</ele>
        <time>2012-11-08T13:30:16Z</time>
      </trkpt>
      <trkpt lat="45.46706" lon="3.25105">
        <ele>410</ele>
        <time>2012-11-08T13:30:18Z</time>
      </trkpt>
      <trkpt lat="45.4673" lon="3.25178">
        <ele>410</ele>
        <time>2012-11-08T13:30:28Z</time>
      </trkpt>
      <trkpt lat="45.46736" lon="3.2521">
        <ele>408</ele>
        <time>2012-11-08T13:30:32Z</time>
      </trkpt>
      <trkpt lat="45.46742" lon="3.25237">
        <ele>407</ele>
        <time>2012-11-08T13:30:35Z</time>
      </trkpt>
      <trkpt lat="45.46748" lon="3.25262">
        <ele>405</ele>
        <time>2012-11-08T13:30:38Z</time>
      </trkpt>
      <trkpt lat="45.4675" lon="3.25291">
        <ele>403</ele>
        <time>2012-11-08T13:30:41Z</time>
      </trkpt>
      <trkpt lat="45.46733" lon="3.25309">
        <ele>402</ele>
        <time>2012-11-08T13:30:44Z</time>
      </trkpt>
      <trkpt lat="45.4671" lon="3.25322">
        <ele>402</ele>
        <time>2012-11-08T13:30:47Z</time>
      </trkpt>
      <trkpt lat="45.46687" lon="3.25332">
        <ele>401</ele>
        <time>2012-11-08T13:30:50Z</time>
      </trkpt>
      <trkpt lat="45.46666" lon="3.25344">
        <ele>398</ele>
        <time>2012-11-08T13:30:53Z</time>
      </trkpt>
      <trkpt lat="45.46644" lon="3.25356">
        <ele>398</ele>
        <time>2012-11-08T13:30:56Z</time>
      </trkpt>
      <trkpt lat="45.46626" lon="3.25372">
        <ele>398</ele>
        <time>2012-11-08T13:30:59Z</time>
      </trkpt>
      <trkpt lat="45.4662" lon="3.25399">
        <ele>397</ele>
        <time>2012-11-08T13:31:02Z</time>
      </trkpt>
      <trkpt lat="45.46626" lon="3.25428">
        <ele>396</ele>
        <time>2012-11-08T13:31:05Z</time>
      </trkpt>
      <trkpt lat="45.46631" lon="3.25457">
        <ele>396</ele>
        <time>2012-11-08T13:31:08Z</time>
      </trkpt>
      <trkpt lat="45.46637" lon="3.25487">
        <ele>396</ele>
        <time>2012-11-08T13:31:11Z</time>
      </trkpt>
      <trkpt lat="45.46639" lon="3.25517">
        <ele>395</ele>
        <time>2012-11-08T13:31:14Z</time>
      </trkpt>
      <trkpt lat="45.4664" lon="3.25546">
        <ele>395</ele>
        <time>2012-11-08T13:31:17Z</time>
      </trkpt>
      <trkpt lat="45.46644" lon="3.25574">
        <ele>395</ele>
        <time>2012-11-08T13:31:20Z</time>
      </trkpt>
      <trkpt lat="45.46651" lon="3.25602">
        <ele>395</ele>
        <time>2012-11-08T13:31:23Z</time>
      </trkpt>
      <trkpt lat="45.46658" lon="3.25629">
        <ele>395</ele>
        <time>2012-11-08T13:31:26Z</time>
      </trkpt>
      <trkpt lat="45.4667" lon="3.25656">
        <ele>395</ele>
        <time>2012-11-08T13:31:29Z</time>
      </trkpt>
      <trkpt lat="45.46678" lon="3.25682">
        <ele>395</ele>
        <time>2012-11-08T13:31:32Z</time>
      </trkpt>
      <trkpt lat="45.46677" lon="3.25708">
        <ele>395</ele>
        <time>2012-11-08T13:31:35Z</time>
      </trkpt>
      <trkpt lat="45.4667" lon="3.25738">
        <ele>395</ele>
        <time>2012-11-08T13:31:38Z</time>
      </trkpt>
      <trkpt lat="45.46652" lon="3.25752">
        <ele>394</ele>
        <time>2012-11-08T13:31:41Z</time>
      </trkpt>
      <trkpt lat="45.46634" lon="3.25759">
        <ele>394</ele>
        <time>2012-11-08T13:31:44Z</time>
      </trkpt>
      <trkpt lat="45.46615" lon="3.25766">
        <ele>394</ele>
        <time>2012-11-08T13:31:47Z</time>
      </trkpt>
      <trkpt lat="45.46604" lon="3.2579">
        <ele>393</ele>
        <time>2012-11-08T13:31:51Z</time>
      </trkpt>
      <trkpt lat="45.46608" lon="3.2582">
        <ele>393</ele>
        <time>2012-11-08T13:31:55Z</time>
      </trkpt>
      <trkpt lat="45.46611" lon="3.2585">
        <ele>393</ele>
        <time>2012-11-08T13:31:59Z</time>
      </trkpt>
      <trkpt lat="45.4661" lon="3.25881">
        <ele>393</ele>
        <time>2012-11-08T13:32:03Z</time>
      </trkpt>
      <trkpt lat="45.4661" lon="3.25917">
        <ele>393</ele>
        <time>2012-11-08T13:32:07Z</time>
      </trkpt>
      <trkpt lat="45.46614" lon="3.25945">
        <ele>393</ele>
        <time>2012-11-08T13:32:10Z</time>
      </trkpt>
      <trkpt lat="45.46618" lon="3.25973">
        <ele>393</ele>
        <time>2012-11-08T13:32:13Z</time>
      </trkpt>
      <trkpt lat="45.46624" lon="3.26008">
        <ele>393</ele>
        <time>2012-11-08T13:32:17Z</time>
      </trkpt>
      <trkpt lat="45.46627" lon="3.26036">
        <ele>393</ele>
        <time>2012-11-08T13:32:20Z</time>
      </trkpt>
      <trkpt lat="45.46628" lon="3.26066">
        <ele>393</ele>
        <time>2012-11-08T13:32:23Z</time>
      </trkpt>
      <trkpt lat="45.46629" lon="3.26095">
        <ele>392</ele>
        <time>2012-11-08T13:32:26Z</time>
      </trkpt>
      <trkpt lat="45.46628" lon="3.26125">
        <ele>392</ele>
        <time>2012-11-08T13:32:29Z</time>
      </trkpt>
      <trkpt lat="45.46627" lon="3.26155">
        <ele>392</ele>
        <time>2012-11-08T13:32:32Z</time>
      </trkpt>
      <trkpt lat="45.46627" lon="3.26186">
        <ele>391</ele>
        <time>2012-11-08T13:32:35Z</time>
      </trkpt>
      <trkpt lat="45.46626" lon="3.26216">
        <ele>391</ele>
        <time>2012-11-08T13:32:39Z</time>
      </trkpt>
      <trkpt lat="45.46625" lon="3.26243">
        <ele>391</ele>
        <time>2012-11-08T13:32:43Z</time>
      </trkpt>
      <trkpt lat="45.46633" lon="3.26274">
        <ele>391</ele>
        <time>2012-11-08T13:32:47Z</time>
      </trkpt>
      <trkpt lat="45.46642" lon="3.26297">
        <ele>391</ele>
        <time>2012-11-08T13:32:50Z</time>
      </trkpt>
      <trkpt lat="45.46651" lon="3.26323">
        <ele>391</ele>
        <time>2012-11-08T13:32:53Z</time>
      </trkpt>
      <trkpt lat="45.46663" lon="3.26352">
        <ele>392</ele>
        <time>2012-11-08T13:32:56Z</time>
      </trkpt>
      <trkpt lat="45.46669" lon="3.26381">
        <ele>392</ele>
        <time>2012-11-08T13:32:59Z</time>
      </trkpt>
      <trkpt lat="45.46666" lon="3.26411">
        <ele>392</ele>
        <time>2012-11-08T13:33:02Z</time>
      </trkpt>
      <trkpt lat="45.46657" lon="3.26436">
        <ele>391</ele>
        <time>2012-11-08T13:33:06Z</time>
      </trkpt>
      <trkpt lat="45.46639" lon="3.26442">
        <ele>391</ele>
        <time>2012-11-08T13:33:10Z</time>
      </trkpt>
      <trkpt lat="45.46619" lon="3.26446">
        <ele>391</ele>
        <time>2012-11-08T13:33:14Z</time>
      </trkpt>
      <trkpt lat="45.46596" lon="3.26448">
        <ele>391</ele>
        <time>2012-11-08T13:33:18Z</time>
      </trkpt>
      <trkpt lat="45.46577" lon="3.2645">
        <ele>390</ele>
        <time>2012-11-08T13:33:22Z</time>
      </trkpt>
      <trkpt lat="45.46557" lon="3.26455">
        <ele>390</ele>
        <time>2012-11-08T13:33:26Z</time>
      </trkpt>
      <trkpt lat="45.46547" lon="3.26481">
        <ele>390</ele>
        <time>2012-11-08T13:33:32Z</time>
      </trkpt>
      <trkpt lat="45.46543" lon="3.26511">
        <ele>388</ele>
        <time>2012-11-08T13:33:35Z</time>
      </trkpt>
      <trkpt lat="45.46537" lon="3.26539">
        <ele>388</ele>
        <time>2012-11-08T13:33:38Z</time>
      </trkpt>
      <trkpt lat="45.46531" lon="3.26567">
        <ele>388</ele>
        <time>2012-11-08T13:33:42Z</time>
      </trkpt>
      <trkpt lat="45.46513" lon="3.26582">
        <ele>388</ele>
        <time>2012-11-08T13:33:46Z</time>
      </trkpt>
      <trkpt lat="45.46492" lon="3.26587">
        <ele>387</ele>
        <time>2012-11-08T13:33:50Z</time>
      </trkpt>
      <trkpt lat="45.46472" lon="3.26593">
        <ele>388</ele>
        <time>2012-11-08T13:33:54Z</time>
      </trkpt>
      <trkpt lat="45.46449" lon="3.26594">
        <ele>389</ele>
        <time>2012-11-08T13:33:58Z</time>
      </trkpt>
      <trkpt lat="45.46432" lon="3.26603">
        <ele>389</ele>
        <time>2012-11-08T13:34:02Z</time>
      </trkpt>
      <trkpt lat="45.46416" lon="3.26624">
        <ele>390</ele>
        <time>2012-11-08T13:34:06Z</time>
      </trkpt>
      <trkpt lat="45.46401" lon="3.26646">
        <ele>390</ele>
        <time>2012-11-08T13:34:10Z</time>
      </trkpt>
      <trkpt lat="45.46394" lon="3.26679">
        <ele>389</ele>
        <time>2012-11-08T13:34:14Z</time>
      </trkpt>
      <trkpt lat="45.46389" lon="3.26709">
        <ele>389</ele>
        <time>2012-11-08T13:34:18Z</time>
      </trkpt>
      <trkpt lat="45.46382" lon="3.26739">
        <ele>389</ele>
        <time>2012-11-08T13:34:22Z</time>
      </trkpt>
      <trkpt lat="45.46383" lon="3.26766">
        <ele>390</ele>
        <time>2012-11-08T13:34:25Z</time>
      </trkpt>
      <trkpt lat="45.46387" lon="3.26793">
        <ele>390</ele>
        <time>2012-11-08T13:34:28Z</time>
      </trkpt>
      <trkpt lat="45.46391" lon="3.26818">
        <ele>390</ele>
        <time>2012-11-08T13:34:31Z</time>
      </trkpt>
      <trkpt lat="45.46397" lon="3.26847">
        <ele>390</ele>
        <time>2012-11-08T13:34:35Z</time>
      </trkpt>
      <trkpt lat="45.46393" lon="3.26877">
        <ele>390</ele>
        <time>2012-11-08T13:34:39Z</time>
      </trkpt>
      <trkpt lat="45.46385" lon="3.26906">
        <ele>390</ele>
        <time>2012-11-08T13:34:43Z</time>
      </trkpt>
      <trkpt lat="45.46386" lon="3.26933">
        <ele>390</ele>
        <time>2012-11-08T13:34:46Z</time>
      </trkpt>
      <trkpt lat="45.46393" lon="3.26962">
        <ele>390</ele>
        <time>2012-11-08T13:34:50Z</time>
      </trkpt>
      <trkpt lat="45.46401" lon="3.26994">
        <ele>389</ele>
        <time>2012-11-08T13:34:54Z</time>
      </trkpt>
      <trkpt lat="45.46408" lon="3.27026">
        <ele>389</ele>
        <time>2012-11-08T13:34:58Z</time>
      </trkpt>
      <trkpt lat="45.46415" lon="3.27051">
        <ele>390</ele>
        <time>2012-11-08T13:35:01Z</time>
      </trkpt>
      <trkpt lat="45.46418" lon="3.27084">
        <ele>390</ele>
        <time>2012-11-08T13:35:05Z</time>
      </trkpt>
      <trkpt lat="45.46413" lon="3.27117">
        <ele>389</ele>
        <time>2012-11-08T13:35:09Z</time>
      </trkpt>
      <trkpt lat="45.46403" lon="3.27146">
        <ele>389</ele>
        <time>2012-11-08T13:35:13Z</time>
      </trkpt>
      <trkpt lat="45.46382" lon="3.27151">
        <ele>389</ele>
        <time>2012-11-08T13:35:17Z</time>
      </trkpt>
      <trkpt lat="45.4636" lon="3.27152">
        <ele>389</ele>
        <time>2012-11-08T13:35:21Z</time>
      </trkpt>
      <trkpt lat="45.46339" lon="3.27149">
        <ele>389</ele>
        <time>2012-11-08T13:35:25Z</time>
      </trkpt>
      <trkpt lat="45.46321" lon="3.2715">
        <ele>389</ele>
        <time>2012-11-08T13:35:28Z</time>
      </trkpt>
      <trkpt lat="45.463" lon="3.27149">
        <ele>389</ele>
        <time>2012-11-08T13:35:33Z</time>
      </trkpt>
      <trkpt lat="45.46284" lon="3.27165">
        <ele>390</ele>
        <time>2012-11-08T13:35:50Z</time>
      </trkpt>
      <trkpt lat="45.46284" lon="3.27195">
        <ele>389</ele>
        <time>2012-11-08T13:35:55Z</time>
      </trkpt>
      <trkpt lat="45.46283" lon="3.27224">
        <ele>389</ele>
        <time>2012-11-08T13:35:59Z</time>
      </trkpt>
      <trkpt lat="45.46281" lon="3.27256">
        <ele>390</ele>
        <time>2012-11-08T13:36:03Z</time>
      </trkpt>
      <trkpt lat="45.46281" lon="3.27282">
        <ele>390</ele>
        <time>2012-11-08T13:36:06Z</time>
      </trkpt>
      <trkpt lat="45.46281" lon="3.27315">
        <ele>390</ele>
        <time>2012-11-08T13:36:10Z</time>
      </trkpt>
      <trkpt lat="45.46279" lon="3.27349">
        <ele>389</ele>
        <time>2012-11-08T13:36:14Z</time>
      </trkpt>
      <trkpt lat="45.46278" lon="3.27375">
        <ele>389</ele>
        <time>2012-11-08T13:36:17Z</time>
      </trkpt>
      <trkpt lat="45.46279" lon="3.27401">
        <ele>389</ele>
        <time>2012-11-08T13:36:20Z</time>
      </trkpt>
      <trkpt lat="45.4628" lon="3.27427">
        <ele>388</ele>
        <time>2012-11-08T13:36:23Z</time>
      </trkpt>
      <trkpt lat="45.4628" lon="3.27455">
        <ele>387</ele>
        <time>2012-11-08T13:36:26Z</time>
      </trkpt>
      <trkpt lat="45.46284" lon="3.27481">
        <ele>387</ele>
        <time>2012-11-08T13:36:29Z</time>
      </trkpt>
      <trkpt lat="45.46302" lon="3.27504">
        <ele>386</ele>
        <time>2012-11-08T13:36:33Z</time>
      </trkpt>
      <trkpt lat="45.46318" lon="3.27519">
        <ele>386</ele>
        <time>2012-11-08T13:36:36Z</time>
      </trkpt>
      <trkpt lat="45.46335" lon="3.27534">
        <ele>386</ele>
        <time>2012-11-08T13:36:39Z</time>
      </trkpt>
      <trkpt lat="45.4635" lon="3.27549">
        <ele>386</ele>
        <time>2012-11-08T13:36:42Z</time>
      </trkpt>
      <trkpt lat="45.46366" lon="3.27574">
        <ele>386</ele>
        <time>2012-11-08T13:36:46Z</time>
      </trkpt>
      <trkpt lat="45.46378" lon="3.27603">
        <ele>386</ele>
        <time>2012-11-08T13:36:50Z</time>
      </trkpt>
      <trkpt lat="45.46387" lon="3.27633">
        <ele>385</ele>
        <time>2012-11-08T13:36:54Z</time>
      </trkpt>
      <trkpt lat="45.46391" lon="3.27664">
        <ele>385</ele>
        <time>2012-11-08T13:36:58Z</time>
      </trkpt>
      <trkpt lat="45.46391" lon="3.27694">
        <ele>386</ele>
        <time>2012-11-08T13:37:02Z</time>
      </trkpt>
      <trkpt lat="45.4639" lon="3.27723">
        <ele>386</ele>
        <time>2012-11-08T13:37:06Z</time>
      </trkpt>
      <trkpt lat="45.46388" lon="3.27752">
        <ele>386</ele>
        <time>2012-11-08T13:37:10Z</time>
      </trkpt>
      <trkpt lat="45.46387" lon="3.2778">
        <ele>386</ele>
        <time>2012-11-08T13:37:14Z</time>
      </trkpt>
      <trkpt lat="45.46387" lon="3.27806">
        <ele>386</ele>
        <time>2012-11-08T13:37:18Z</time>
      </trkpt>
      <trkpt lat="45.46387" lon="3.27833">
        <ele>386</ele>
        <time>2012-11-08T13:37:22Z</time>
      </trkpt>
      <trkpt lat="45.46387" lon="3.27861">
        <ele>386</ele>
        <time>2012-11-08T13:37:26Z</time>
      </trkpt>
      <trkpt lat="45.46387" lon="3.27892">
        <ele>386</ele>
        <time>2012-11-08T13:37:31Z</time>
      </trkpt>
      <trkpt lat="45.46387" lon="3.27919">
        <ele>385</ele>
        <time>2012-11-08T13:37:35Z</time>
      </trkpt>
      <trkpt lat="45.46386" lon="3.27949">
        <ele>385</ele>
        <time>2012-11-08T13:37:40Z</time>
      </trkpt>
      <trkpt lat="45.46385" lon="3.27977">
        <ele>385</ele>
        <time>2012-11-08T13:37:45Z</time>
      </trkpt>
      <trkpt lat="45.46385" lon="3.28008">
        <ele>385</ele>
        <time>2012-11-08T13:37:50Z</time>
      </trkpt>
      <trkpt lat="45.46384" lon="3.28037">
        <ele>385</ele>
        <time>2012-11-08T13:37:55Z</time>
      </trkpt>
      <trkpt lat="45.46384" lon="3.28067">
        <ele>385</ele>
        <time>2012-11-08T13:38:00Z</time>
      </trkpt>
      <trkpt lat="45.46384" lon="3.28098">
        <ele>385</ele>
        <time>2012-11-08T13:38:05Z</time>
      </trkpt>
      <trkpt lat="45.46388" lon="3.28125">
        <ele>385</ele>
        <time>2012-11-08T13:38:11Z</time>
      </trkpt>
      <trkpt lat="45.46408" lon="3.28129">
        <ele>385</ele>
        <time>2012-11-08T13:38:16Z</time>
      </trkpt>
      <trkpt lat="45.46428" lon="3.2813">
        <ele>385</ele>
        <time>2012-11-08T13:38:20Z</time>
      </trkpt>
      <trkpt lat="45.46451" lon="3.28133">
        <ele>386</ele>
        <time>2012-11-08T13:38:24Z</time>
      </trkpt>
      <trkpt lat="45.46469" lon="3.28135">
        <ele>386</ele>
        <time>2012-11-08T13:38:27Z</time>
      </trkpt>
      <trkpt lat="45.46487" lon="3.28137">
        <ele>386</ele>
        <time>2012-11-08T13:38:30Z</time>
      </trkpt>
      <trkpt lat="45.46507" lon="3.28139">
        <ele>386</ele>
        <time>2012-11-08T13:38:33Z</time>
      </trkpt>
      <trkpt lat="45.46527" lon="3.2814">
        <ele>386</ele>
        <time>2012-11-08T13:38:36Z</time>
      </trkpt>
      <trkpt lat="45.46547" lon="3.28141">
        <ele>386</ele>
        <time>2012-11-08T13:38:39Z</time>
      </trkpt>
      <trkpt lat="45.46567" lon="3.28144">
        <ele>386</ele>
        <time>2012-11-08T13:38:42Z</time>
      </trkpt>
      <trkpt lat="45.46586" lon="3.28145">
        <ele>386</ele>
        <time>2012-11-08T13:38:45Z</time>
      </trkpt>
      <trkpt lat="45.46605" lon="3.28145">
        <ele>386</ele>
        <time>2012-11-08T13:38:48Z</time>
      </trkpt>
      <trkpt lat="45.46625" lon="3.28146">
        <ele>386</ele>
        <time>2012-11-08T13:38:51Z</time>
      </trkpt>
      <trkpt lat="45.46648" lon="3.28147">
        <ele>386</ele>
        <time>2012-11-08T13:38:55Z</time>
      </trkpt>
      <trkpt lat="45.46672" lon="3.28151">
        <ele>387</ele>
        <time>2012-11-08T13:38:59Z</time>
      </trkpt>
      <trkpt lat="45.46695" lon="3.28152">
        <ele>388</ele>
        <time>2012-11-08T13:39:03Z</time>
      </trkpt>
      <trkpt lat="45.46717" lon="3.28152">
        <ele>388</ele>
        <time>2012-11-08T13:39:07Z</time>
      </trkpt>
      <trkpt lat="45.46736" lon="3.28148">
        <ele>389</ele>
        <time>2012-11-08T13:39:10Z</time>
      </trkpt>
      <trkpt lat="45.46756" lon="3.28137">
        <ele>388</ele>
        <time>2012-11-08T13:39:14Z</time>
      </trkpt>
      <trkpt lat="45.46776" lon="3.28121">
        <ele>388</ele>
        <time>2012-11-08T13:39:18Z</time>
      </trkpt>
      <trkpt lat="45.46795" lon="3.28105">
        <ele>387</ele>
        <time>2012-11-08T13:39:22Z</time>
      </trkpt>
      <trkpt lat="45.46816" lon="3.28087">
        <ele>386</ele>
        <time>2012-11-08T13:39:26Z</time>
      </trkpt>
      <trkpt lat="45.46832" lon="3.28074">
        <ele>386</ele>
        <time>2012-11-08T13:39:29Z</time>
      </trkpt>
      <trkpt lat="45.46847" lon="3.28059">
        <ele>387</ele>
        <time>2012-11-08T13:39:32Z</time>
      </trkpt>
      <trkpt lat="45.46863" lon="3.28046">
        <ele>388</ele>
        <time>2012-11-08T13:39:35Z</time>
      </trkpt>
      <trkpt lat="45.4688" lon="3.28033">
        <ele>389</ele>
        <time>2012-11-08T13:39:38Z</time>
      </trkpt>
      <trkpt lat="45.46896" lon="3.28017">
        <ele>389</ele>
        <time>2012-11-08T13:39:41Z</time>
      </trkpt>
      <trkpt lat="45.46917" lon="3.28017">
        <ele>390</ele>
        <time>2012-11-08T13:39:45Z</time>
      </trkpt>
      <trkpt lat="45.46934" lon="3.2803">
        <ele>397</ele>
        <time>2012-11-08T13:39:49Z</time>
      </trkpt>
      <trkpt lat="45.4695" lon="3.28042">
        <ele>399</ele>
        <time>2012-11-08T13:39:53Z</time>
      </trkpt>
      <trkpt lat="45.46966" lon="3.28061">
        <ele>400</ele>
        <time>2012-11-08T13:39:59Z</time>
      </trkpt>
      <trkpt lat="45.46975" lon="3.28085">
        <ele>398</ele>
        <time>2012-11-08T13:40:04Z</time>
      </trkpt>
      <trkpt lat="45.46981" lon="3.2811">
        <ele>397</ele>
        <time>2012-11-08T13:40:08Z</time>
      </trkpt>
      <trkpt lat="45.46995" lon="3.28133">
        <ele>395</ele>
        <time>2012-11-08T13:40:13Z</time>
      </trkpt>
      <trkpt lat="45.47005" lon="3.28155">
        <ele>399</ele>
        <time>2012-11-08T13:40:17Z</time>
      </trkpt>
      <trkpt lat="45.47022" lon="3.28166">
        <ele>402</ele>
        <time>2012-11-08T13:40:20Z</time>
      </trkpt>
      <trkpt lat="45.47036" lon="3.28185">
        <ele>396</ele>
        <time>2012-11-08T13:40:23Z</time>
      </trkpt>
      <trkpt lat="45.47049" lon="3.28205">
        <ele>396</ele>
        <time>2012-11-08T13:40:26Z</time>
      </trkpt>
      <trkpt lat="45.47067" lon="3.28226">
        <ele>395</ele>
        <time>2012-11-08T13:40:30Z</time>
      </trkpt>
      <trkpt lat="45.47081" lon="3.28243">
        <ele>394</ele>
        <time>2012-11-08T13:40:34Z</time>
      </trkpt>
      <trkpt lat="45.47098" lon="3.28258">
        <ele>395</ele>
        <time>2012-11-08T13:40:37Z</time>
      </trkpt>
      <trkpt lat="45.47115" lon="3.28283">
        <ele>396</ele>
        <time>2012-11-08T13:40:41Z</time>
      </trkpt>
      <trkpt lat="45.47134" lon="3.28301">
        <ele>396</ele>
        <time>2012-11-08T13:40:45Z</time>
      </trkpt>
      <trkpt lat="45.47151" lon="3.28318">
        <ele>395</ele>
        <time>2012-11-08T13:40:49Z</time>
      </trkpt>
      <trkpt lat="45.4717" lon="3.28335">
        <ele>393</ele>
        <time>2012-11-08T13:40:54Z</time>
      </trkpt>
      <trkpt lat="45.47188" lon="3.28351">
        <ele>393</ele>
        <time>2012-11-08T13:40:59Z</time>
      </trkpt>
      <trkpt lat="45.47206" lon="3.28364">
        <ele>393</ele>
        <time>2012-11-08T13:41:05Z</time>
      </trkpt>
      <trkpt lat="45.47225" lon="3.28379">
        <ele>393</ele>
        <time>2012-11-08T13:41:10Z</time>
      </trkpt>
      <trkpt lat="45.47243" lon="3.28394">
        <ele>392</ele>
        <time>2012-11-08T13:41:14Z</time>
      </trkpt>
      <trkpt lat="45.47262" lon="3.28407">
        <ele>393</ele>
        <time>2012-11-08T13:41:18Z</time>
      </trkpt>
      <trkpt lat="45.47282" lon="3.28417">
        <ele>389</ele>
        <time>2012-11-08T13:41:22Z</time>
      </trkpt>
      <trkpt lat="45.47304" lon="3.28428">
        <ele>389</ele>
        <time>2012-11-08T13:41:26Z</time>
      </trkpt>
      <trkpt lat="45.47326" lon="3.28435">
        <ele>390</ele>
        <time>2012-11-08T13:41:30Z</time>
      </trkpt>
      <trkpt lat="45.47345" lon="3.28438">
        <ele>391</ele>
        <time>2012-11-08T13:41:33Z</time>
      </trkpt>
      <trkpt lat="45.47364" lon="3.28441">
        <ele>390</ele>
        <time>2012-11-08T13:41:36Z</time>
      </trkpt>
      <trkpt lat="45.47383" lon="3.28445">
        <ele>391</ele>
        <time>2012-11-08T13:41:39Z</time>
      </trkpt>
      <trkpt lat="45.47402" lon="3.28454">
        <ele>391</ele>
        <time>2012-11-08T13:41:42Z</time>
      </trkpt>
      <trkpt lat="45.47419" lon="3.28471">
        <ele>391</ele>
        <time>2012-11-08T13:41:45Z</time>
      </trkpt>
      <trkpt lat="45.4743" lon="3.28495">
        <ele>390</ele>
        <time>2012-11-08T13:41:48Z</time>
      </trkpt>
      <trkpt lat="45.47435" lon="3.28521">
        <ele>389</ele>
        <time>2012-11-08T13:41:51Z</time>
      </trkpt>
      <trkpt lat="45.47439" lon="3.28548">
        <ele>389</ele>
        <time>2012-11-08T13:41:54Z</time>
      </trkpt>
      <trkpt lat="45.47441" lon="3.28574">
        <ele>388</ele>
        <time>2012-11-08T13:41:57Z</time>
      </trkpt>
      <trkpt lat="45.47442" lon="3.286">
        <ele>388</ele>
        <time>2012-11-08T13:42:00Z</time>
      </trkpt>
      <trkpt lat="45.4744" lon="3.28626">
        <ele>388</ele>
        <time>2012-11-08T13:42:03Z</time>
      </trkpt>
      <trkpt lat="45.47436" lon="3.28652">
        <ele>388</ele>
        <time>2012-11-08T13:42:06Z</time>
      </trkpt>
      <trkpt lat="45.47432" lon="3.28677">
        <ele>388</ele>
        <time>2012-11-08T13:42:09Z</time>
      </trkpt>
      <trkpt lat="45.47428" lon="3.2871">
        <ele>388</ele>
        <time>2012-11-08T13:42:13Z</time>
      </trkpt>
      <trkpt lat="45.4743" lon="3.28736">
        <ele>388</ele>
        <time>2012-11-08T13:42:16Z</time>
      </trkpt>
      <trkpt lat="45.47437" lon="3.28762">
        <ele>387</ele>
        <time>2012-11-08T13:42:19Z</time>
      </trkpt>
      <trkpt lat="45.47446" lon="3.28786">
        <ele>387</ele>
        <time>2012-11-08T13:42:22Z</time>
      </trkpt>
      <trkpt lat="45.47454" lon="3.2881">
        <ele>387</ele>
        <time>2012-11-08T13:42:25Z</time>
      </trkpt>
      <trkpt lat="45.47464" lon="3.28833">
        <ele>387</ele>
        <time>2012-11-08T13:42:28Z</time>
      </trkpt>
      <trkpt lat="45.47472" lon="3.28857">
        <ele>387</ele>
        <time>2012-11-08T13:42:31Z</time>
      </trkpt>
      <trkpt lat="45.47479" lon="3.28883">
        <ele>387</ele>
        <time>2012-11-08T13:42:34Z</time>
      </trkpt>
      <trkpt lat="45.47485" lon="3.28909">
        <ele>388</ele>
        <time>2012-11-08T13:42:37Z</time>
      </trkpt>
      <trkpt lat="45.47492" lon="3.2894">
        <ele>388</ele>
        <time>2012-11-08T13:42:41Z</time>
      </trkpt>
      <trkpt lat="45.47497" lon="3.28972">
        <ele>387</ele>
        <time>2012-11-08T13:42:45Z</time>
      </trkpt>
      <trkpt lat="45.47501" lon="3.28999">
        <ele>387</ele>
        <time>2012-11-08T13:42:49Z</time>
      </trkpt>
      <trkpt lat="45.47483" lon="3.29002">
        <ele>387</ele>
        <time>2012-11-08T13:42:55Z</time>
      </trkpt>
      <trkpt lat="45.47465" lon="3.28994">
        <ele>387</ele>
        <time>2012-11-08T13:42:59Z</time>
      </trkpt>
      <trkpt lat="45.47446" lon="3.28986">
        <ele>387</ele>
        <time>2012-11-08T13:43:03Z</time>
      </trkpt>
      <trkpt lat="45.47427" lon="3.28978">
        <ele>387</ele>
        <time>2012-11-08T13:43:07Z</time>
      </trkpt>
      <trkpt lat="45.47407" lon="3.28968">
        <ele>387</ele>
        <time>2012-11-08T13:43:11Z</time>
      </trkpt>
      <trkpt lat="45.47388" lon="3.28959">
        <ele>387</ele>
        <time>2012-11-08T13:43:15Z</time>
      </trkpt>
      <trkpt lat="45.47369" lon="3.2895">
        <ele>387</ele>
        <time>2012-11-08T13:43:19Z</time>
      </trkpt>
      <trkpt lat="45.4735" lon="3.28941">
        <ele>387</ele>
        <time>2012-11-08T13:43:22Z</time>
      </trkpt>
      <trkpt lat="45.47331" lon="3.28937">
        <ele>387</ele>
        <time>2012-11-08T13:43:26Z</time>
      </trkpt>
      <trkpt lat="45.47312" lon="3.28926">
        <ele>387</ele>
        <time>2012-11-08T13:43:31Z</time>
      </trkpt>
      <trkpt lat="45.47292" lon="3.28918">
        <ele>387</ele>
        <time>2012-11-08T13:43:35Z</time>
      </trkpt>
      <trkpt lat="45.47274" lon="3.28909">
        <ele>386</ele>
        <time>2012-11-08T13:43:39Z</time>
      </trkpt>
      <trkpt lat="45.47257" lon="3.289">
        <ele>386</ele>
        <time>2012-11-08T13:43:43Z</time>
      </trkpt>
      <trkpt lat="45.4724" lon="3.2889">
        <ele>386</ele>
        <time>2012-11-08T13:43:47Z</time>
      </trkpt>
      <trkpt lat="45.47219" lon="3.28892">
        <ele>386</ele>
        <time>2012-11-08T13:43:52Z</time>
      </trkpt>
      <trkpt lat="45.47208" lon="3.28919">
        <ele>387</ele>
        <time>2012-11-08T13:43:57Z</time>
      </trkpt>
      <trkpt lat="45.47198" lon="3.28949">
        <ele>387</ele>
        <time>2012-11-08T13:44:02Z</time>
      </trkpt>
      <trkpt lat="45.47189" lon="3.28972">
        <ele>387</ele>
        <time>2012-11-08T13:44:06Z</time>
      </trkpt>
      <trkpt lat="45.47179" lon="3.28997">
        <ele>387</ele>
        <time>2012-11-08T13:44:10Z</time>
      </trkpt>
      <trkpt lat="45.4717" lon="3.2902">
        <ele>387</ele>
        <time>2012-11-08T13:44:14Z</time>
      </trkpt>
      <trkpt lat="45.47162" lon="3.29045">
        <ele>387</ele>
        <time>2012-11-08T13:44:18Z</time>
      </trkpt>
      <trkpt lat="45.47153" lon="3.29072">
        <ele>387</ele>
        <time>2012-11-08T13:44:22Z</time>
      </trkpt>
      <trkpt lat="45.47144" lon="3.29094">
        <ele>389</ele>
        <time>2012-11-08T13:44:25Z</time>
      </trkpt>
      <trkpt lat="45.47134" lon="3.29116">
        <ele>389</ele>
        <time>2012-11-08T13:44:29Z</time>
      </trkpt>
      <trkpt lat="45.47124" lon="3.2914">
        <ele>390</ele>
        <time>2012-11-08T13:44:33Z</time>
      </trkpt>
      <trkpt lat="45.47112" lon="3.29163">
        <ele>391</ele>
        <time>2012-11-08T13:44:37Z</time>
      </trkpt>
      <trkpt lat="45.47099" lon="3.29181">
        <ele>391</ele>
        <time>2012-11-08T13:44:41Z</time>
      </trkpt>
      <trkpt lat="45.47085" lon="3.29197">
        <ele>391</ele>
        <time>2012-11-08T13:44:45Z</time>
      </trkpt>
      <trkpt lat="45.47069" lon="3.29216">
        <ele>392</ele>
        <time>2012-11-08T13:44:49Z</time>
      </trkpt>
      <trkpt lat="45.47053" lon="3.29241">
        <ele>392</ele>
        <time>2012-11-08T13:44:53Z</time>
      </trkpt>
      <trkpt lat="45.47036" lon="3.29261">
        <ele>391</ele>
        <time>2012-11-08T13:44:58Z</time>
      </trkpt>
      <trkpt lat="45.47028" lon="3.2929">
        <ele>391</ele>
        <time>2012-11-08T13:45:03Z</time>
      </trkpt>
      <trkpt lat="45.47017" lon="3.29311">
        <ele>391</ele>
        <time>2012-11-08T13:45:06Z</time>
      </trkpt>
      <trkpt lat="45.4701" lon="3.29336">
        <ele>390</ele>
        <time>2012-11-08T13:45:10Z</time>
      </trkpt>
      <trkpt lat="45.47004" lon="3.29365">
        <ele>390</ele>
        <time>2012-11-08T13:45:14Z</time>
      </trkpt>
      <trkpt lat="45.46995" lon="3.29389">
        <ele>392</ele>
        <time>2012-11-08T13:45:17Z</time>
      </trkpt>
      <trkpt lat="45.46984" lon="3.29418">
        <ele>391</ele>
        <time>2012-11-08T13:45:21Z</time>
      </trkpt>
      <trkpt lat="45.46986" lon="3.29447">
        <ele>391</ele>
        <time>2012-11-08T13:45:26Z</time>
      </trkpt>
      <trkpt lat="45.47002" lon="3.2946">
        <ele>389</ele>
        <time>2012-11-08T13:45:30Z</time>
      </trkpt>
      <trkpt lat="45.47018" lon="3.29473">
        <ele>388</ele>
        <time>2012-11-08T13:45:34Z</time>
      </trkpt>
      <trkpt lat="45.47028" lon="3.29497">
        <ele>388</ele>
        <time>2012-11-08T13:45:39Z</time>
      </trkpt>
      <trkpt lat="45.47015" lon="3.29517">
        <ele>388</ele>
        <time>2012-11-08T13:45:44Z</time>
      </trkpt>
      <trkpt lat="45.47004" lon="3.29545">
        <ele>388</ele>
        <time>2012-11-08T13:45:49Z</time>
      </trkpt>
      <trkpt lat="45.4699" lon="3.29563">
        <ele>389</ele>
        <time>2012-11-08T13:45:53Z</time>
      </trkpt>
      <trkpt lat="45.46974" lon="3.29582">
        <ele>389</ele>
        <time>2012-11-08T13:45:58Z</time>
      </trkpt>
      <trkpt lat="45.46959" lon="3.29608">
        <ele>389</ele>
        <time>2012-11-08T13:46:02Z</time>
      </trkpt>
      <trkpt lat="45.46946" lon="3.29633">
        <ele>388</ele>
        <time>2012-11-08T13:46:06Z</time>
      </trkpt>
      <trkpt lat="45.46935" lon="3.29657">
        <ele>388</ele>
        <time>2012-11-08T13:46:10Z</time>
      </trkpt>
      <trkpt lat="45.4692" lon="3.29678">
        <ele>388</ele>
        <time>2012-11-08T13:46:14Z</time>
      </trkpt>
      <trkpt lat="45.46903" lon="3.29698">
        <ele>389</ele>
        <time>2012-11-08T13:46:18Z</time>
      </trkpt>
      <trkpt lat="45.46886" lon="3.29716">
        <ele>389</ele>
        <time>2012-11-08T13:46:22Z</time>
      </trkpt>
      <trkpt lat="45.46869" lon="3.29733">
        <ele>389</ele>
        <time>2012-11-08T13:46:26Z</time>
      </trkpt>
      <trkpt lat="45.4685" lon="3.29746">
        <ele>389</ele>
        <time>2012-11-08T13:46:30Z</time>
      </trkpt>
      <trkpt lat="45.46832" lon="3.29757">
        <ele>389</ele>
        <time>2012-11-08T13:46:34Z</time>
      </trkpt>
      <trkpt lat="45.46813" lon="3.2977">
        <ele>389</ele>
        <time>2012-11-08T13:46:38Z</time>
      </trkpt>
      <trkpt lat="45.46793" lon="3.2978">
        <ele>389</ele>
        <time>2012-11-08T13:46:42Z</time>
      </trkpt>
      <trkpt lat="45.46772" lon="3.29788">
        <ele>389</ele>
        <time>2012-11-08T13:46:46Z</time>
      </trkpt>
      <trkpt lat="45.46754" lon="3.29796">
        <ele>390</ele>
        <time>2012-11-08T13:46:50Z</time>
      </trkpt>
      <trkpt lat="45.46736" lon="3.29805">
        <ele>390</ele>
        <time>2012-11-08T13:46:54Z</time>
      </trkpt>
      <trkpt lat="45.46718" lon="3.29815">
        <ele>389</ele>
        <time>2012-11-08T13:46:58Z</time>
      </trkpt>
      <trkpt lat="45.467" lon="3.29828">
        <ele>389</ele>
        <time>2012-11-08T13:47:02Z</time>
      </trkpt>
      <trkpt lat="45.46688" lon="3.29847">
        <ele>389</ele>
        <time>2012-11-08T13:47:06Z</time>
      </trkpt>
      <trkpt lat="45.46685" lon="3.29875">
        <ele>389</ele>
        <time>2012-11-08T13:47:10Z</time>
      </trkpt>
      <trkpt lat="45.46684" lon="3.29903">
        <ele>389</ele>
        <time>2012-11-08T13:47:14Z</time>
      </trkpt>
      <trkpt lat="45.46684" lon="3.29933">
        <ele>389</ele>
        <time>2012-11-08T13:47:19Z</time>
      </trkpt>
      <trkpt lat="45.46685" lon="3.29963">
        <ele>389</ele>
        <time>2012-11-08T13:47:23Z</time>
      </trkpt>
      <trkpt lat="45.46686" lon="3.29991">
        <ele>389</ele>
        <time>2012-11-08T13:47:27Z</time>
      </trkpt>
      <trkpt lat="45.46685" lon="3.30021">
        <ele>389</ele>
        <time>2012-11-08T13:47:31Z</time>
      </trkpt>
      <trkpt lat="45.46686" lon="3.3005">
        <ele>389</ele>
        <time>2012-11-08T13:47:35Z</time>
      </trkpt>
      <trkpt lat="45.46687" lon="3.30082">
        <ele>389</ele>
        <time>2012-11-08T13:47:40Z</time>
      </trkpt>
      <trkpt lat="45.46689" lon="3.3011">
        <ele>390</ele>
        <time>2012-11-08T13:47:44Z</time>
      </trkpt>
      <trkpt lat="45.46694" lon="3.30138">
        <ele>390</ele>
        <time>2012-11-08T13:47:49Z</time>
      </trkpt>
      <trkpt lat="45.46698" lon="3.30166">
        <ele>390</ele>
        <time>2012-11-08T13:47:53Z</time>
      </trkpt>
      <trkpt lat="45.46704" lon="3.30196">
        <ele>390</ele>
        <time>2012-11-08T13:47:57Z</time>
      </trkpt>
      <trkpt lat="45.46711" lon="3.30224">
        <ele>390</ele>
        <time>2012-11-08T13:48:01Z</time>
      </trkpt>
      <trkpt lat="45.46716" lon="3.30251">
        <ele>391</ele>
        <time>2012-11-08T13:48:05Z</time>
      </trkpt>
      <trkpt lat="45.46719" lon="3.30279">
        <ele>391</ele>
        <time>2012-11-08T13:48:09Z</time>
      </trkpt>
      <trkpt lat="45.46725" lon="3.30306">
        <ele>391</ele>
        <time>2012-11-08T13:48:13Z</time>
      </trkpt>
      <trkpt lat="45.46729" lon="3.30331">
        <ele>391</ele>
        <time>2012-11-08T13:48:17Z</time>
      </trkpt>
      <trkpt lat="45.46734" lon="3.30358">
        <ele>391</ele>
        <time>2012-11-08T13:48:21Z</time>
      </trkpt>
      <trkpt lat="45.46739" lon="3.30386">
        <ele>391</ele>
        <time>2012-11-08T13:48:25Z</time>
      </trkpt>
      <trkpt lat="45.46743" lon="3.30413">
        <ele>392</ele>
        <time>2012-11-08T13:48:29Z</time>
      </trkpt>
      <trkpt lat="45.46748" lon="3.30438">
        <ele>392</ele>
        <time>2012-11-08T13:48:33Z</time>
      </trkpt>
      <trkpt lat="45.46753" lon="3.30464">
        <ele>393</ele>
        <time>2012-11-08T13:48:37Z</time>
      </trkpt>
      <trkpt lat="45.46758" lon="3.30489">
        <ele>394</ele>
        <time>2012-11-08T13:48:41Z</time>
      </trkpt>
      <trkpt lat="45.46764" lon="3.30519">
        <ele>394</ele>
        <time>2012-11-08T13:48:46Z</time>
      </trkpt>
      <trkpt lat="45.4677" lon="3.30545">
        <ele>395</ele>
        <time>2012-11-08T13:48:50Z</time>
      </trkpt>
      <trkpt lat="45.46775" lon="3.3057">
        <ele>395</ele>
        <time>2012-11-08T13:48:54Z</time>
      </trkpt>
      <trkpt lat="45.46778" lon="3.30596">
        <ele>396</ele>
        <time>2012-11-08T13:48:58Z</time>
      </trkpt>
      <trkpt lat="45.46786" lon="3.30621">
        <ele>396</ele>
        <time>2012-11-08T13:49:02Z</time>
      </trkpt>
      <trkpt lat="45.46793" lon="3.30647">
        <ele>396</ele>
        <time>2012-11-08T13:49:06Z</time>
      </trkpt>
      <trkpt lat="45.468" lon="3.30672">
        <ele>397</ele>
        <time>2012-11-08T13:49:10Z</time>
      </trkpt>
      <trkpt lat="45.46807" lon="3.30696">
        <ele>397</ele>
        <time>2012-11-08T13:49:14Z</time>
      </trkpt>
      <trkpt lat="45.46814" lon="3.30722">
        <ele>397</ele>
        <time>2012-11-08T13:49:18Z</time>
      </trkpt>
      <trkpt lat="45.46821" lon="3.30747">
        <ele>397</ele>
        <time>2012-11-08T13:49:22Z</time>
      </trkpt>
      <trkpt lat="45.46828" lon="3.30771">
        <ele>398</ele>
        <time>2012-11-08T13:49:26Z</time>
      </trkpt>
      <trkpt lat="45.46836" lon="3.30796">
        <ele>398</ele>
        <time>2012-11-08T13:49:30Z</time>
      </trkpt>
      <trkpt lat="45.46843" lon="3.3082">
        <ele>398</ele>
        <time>2012-11-08T13:49:34Z</time>
      </trkpt>
      <trkpt lat="45.4685" lon="3.30846">
        <ele>399</ele>
        <time>2012-11-08T13:49:38Z</time>
      </trkpt>
      <trkpt lat="45.46851" lon="3.30874">
        <ele>400</ele>
        <time>2012-11-08T13:49:43Z</time>
      </trkpt>
      <trkpt lat="45.46841" lon="3.30902">
        <ele>401</ele>
        <time>2012-11-08T13:49:49Z</time>
      </trkpt>
      <trkpt lat="45.46836" lon="3.30929">
        <ele>403</ele>
        <time>2012-11-08T13:49:55Z</time>
      </trkpt>
      <trkpt lat="45.46826" lon="3.30955">
        <ele>406</ele>
        <time>2012-11-08T13:51:09Z</time>
      </trkpt>
      <trkpt lat="45.46813" lon="3.30974">
        <ele>407</ele>
        <time>2012-11-08T13:51:14Z</time>
      </trkpt>
      <trkpt lat="45.46801" lon="3.30995">
        <ele>407</ele>
        <time>2012-11-08T13:51:19Z</time>
      </trkpt>
      <trkpt lat="45.46787" lon="3.31014">
        <ele>409</ele>
        <time>2012-11-08T13:51:24Z</time>
      </trkpt>
      <trkpt lat="45.46772" lon="3.31034">
        <ele>410</ele>
        <time>2012-11-08T13:51:29Z</time>
      </trkpt>
      <trkpt lat="45.46765" lon="3.31062">
        <ele>410</ele>
        <time>2012-11-08T13:51:35Z</time>
      </trkpt>
      <trkpt lat="45.46758" lon="3.31086">
        <ele>411</ele>
        <time>2012-11-08T13:51:40Z</time>
      </trkpt>
      <trkpt lat="45.46753" lon="3.31116">
        <ele>412</ele>
        <time>2012-11-08T13:51:45Z</time>
      </trkpt>
      <trkpt lat="45.46744" lon="3.31142">
        <ele>415</ele>
        <time>2012-11-08T13:51:50Z</time>
      </trkpt>
      <trkpt lat="45.46735" lon="3.3117">
        <ele>415</ele>
        <time>2012-11-08T13:51:55Z</time>
      </trkpt>
      <trkpt lat="45.46724" lon="3.31192">
        <ele>418</ele>
        <time>2012-11-08T13:52:00Z</time>
      </trkpt>
      <trkpt lat="45.46714" lon="3.31216">
        <ele>419</ele>
        <time>2012-11-08T13:52:06Z</time>
      </trkpt>
      <trkpt lat="45.46702" lon="3.3124">
        <ele>420</ele>
        <time>2012-11-08T13:52:11Z</time>
      </trkpt>
      <trkpt lat="45.46688" lon="3.31261">
        <ele>422</ele>
        <time>2012-11-08T13:52:16Z</time>
      </trkpt>
      <trkpt lat="45.46675" lon="3.3128">
        <ele>421</ele>
        <time>2012-11-08T13:52:22Z</time>
      </trkpt>
      <trkpt lat="45.46664" lon="3.31306">
        <ele>423</ele>
        <time>2012-11-08T13:52:27Z</time>
      </trkpt>
      <trkpt lat="45.46654" lon="3.31335">
        <ele>422</ele>
        <time>2012-11-08T13:52:33Z</time>
      </trkpt>
      <trkpt lat="45.46649" lon="3.3136">
        <ele>424</ele>
        <time>2012-11-08T13:52:38Z</time>
      </trkpt>
      <trkpt lat="45.46647" lon="3.31387">
        <ele>425</ele>
        <time>2012-11-08T13:52:44Z</time>
      </trkpt>
      <trkpt lat="45.46643" lon="3.31416">
        <ele>425</ele>
        <time>2012-11-08T13:52:53Z</time>
      </trkpt>
      <trkpt lat="45.46639" lon="3.31443">
        <ele>428</ele>
        <time>2012-11-08T13:53:00Z</time>
      </trkpt>
      <trkpt lat="45.46632" lon="3.3147">
        <ele>429</ele>
        <time>2012-11-08T13:53:06Z</time>
      </trkpt>
      <trkpt lat="45.46625" lon="3.31496">
        <ele>429</ele>
        <time>2012-11-08T13:53:12Z</time>
      </trkpt>
      <trkpt lat="45.46617" lon="3.31519">
        <ele>433</ele>
        <time>2012-11-08T13:53:20Z</time>
      </trkpt>
      <trkpt lat="45.46614" lon="3.31546">
        <ele>433</ele>
        <time>2012-11-08T13:53:25Z</time>
      </trkpt>
      <trkpt lat="45.46608" lon="3.3157">
        <ele>434</ele>
        <time>2012-11-08T13:53:32Z</time>
      </trkpt>
      <trkpt lat="45.46599" lon="3.31595">
        <ele>436</ele>
        <time>2012-11-08T13:53:41Z</time>
      </trkpt>
      <trkpt lat="45.46595" lon="3.31623">
        <ele>437</ele>
        <time>2012-11-08T13:53:48Z</time>
      </trkpt>
      <trkpt lat="45.46593" lon="3.31648">
        <ele>437</ele>
        <time>2012-11-08T13:53:55Z</time>
      </trkpt>
      <trkpt lat="45.46589" lon="3.31675">
        <ele>438</ele>
        <time>2012-11-08T13:54:02Z</time>
      </trkpt>
      <trkpt lat="45.46587" lon="3.31701">
        <ele>439</ele>
        <time>2012-11-08T13:54:08Z</time>
      </trkpt>
      <trkpt lat="45.46584" lon="3.31727">
        <ele>439</ele>
        <time>2012-11-08T13:54:15Z</time>
      </trkpt>
      <trkpt lat="45.46582" lon="3.31756">
        <ele>439</ele>
        <time>2012-11-08T13:54:22Z</time>
      </trkpt>
      <trkpt lat="45.46583" lon="3.31784">
        <ele>442</ele>
        <time>2012-11-08T13:54:29Z</time>
      </trkpt>
      <trkpt lat="45.46594" lon="3.31808">
        <ele>443</ele>
        <time>2012-11-08T13:54:36Z</time>
      </trkpt>
      <trkpt lat="45.46603" lon="3.31832">
        <ele>443</ele>
        <time>2012-11-08T13:54:44Z</time>
      </trkpt>
      <trkpt lat="45.46608" lon="3.31859">
        <ele>445</ele>
        <time>2012-11-08T13:54:50Z</time>
      </trkpt>
      <trkpt lat="45.46617" lon="3.31884">
        <ele>445</ele>
        <time>2012-11-08T13:54:55Z</time>
      </trkpt>
      <trkpt lat="45.46635" lon="3.31898">
        <ele>446</ele>
        <time>2012-11-08T13:55:00Z</time>
      </trkpt>
      <trkpt lat="45.46654" lon="3.31904">
        <ele>446</ele>
        <time>2012-11-08T13:55:06Z</time>
      </trkpt>
      <trkpt lat="45.46668" lon="3.31919">
        <ele>447</ele>
        <time>2012-11-08T13:55:16Z</time>
      </trkpt>
      <trkpt lat="45.46679" lon="3.3194">
        <ele>451</ele>
        <time>2012-11-08T13:55:25Z</time>
      </trkpt>
      <trkpt lat="45.4669" lon="3.31962">
        <ele>453</ele>
        <time>2012-11-08T13:55:34Z</time>
      </trkpt>
      <trkpt lat="45.46704" lon="3.31982">
        <ele>453</ele>
        <time>2012-11-08T13:55:44Z</time>
      </trkpt>
      <trkpt lat="45.46722" lon="3.31992">
        <ele>455</ele>
        <time>2012-11-08T13:55:53Z</time>
      </trkpt>
      <trkpt lat="45.46741" lon="3.31999">
        <ele>456</ele>
        <time>2012-11-08T13:56:03Z</time>
      </trkpt>
      <trkpt lat="45.46756" lon="3.32017">
        <ele>461</ele>
        <time>2012-11-08T13:56:14Z</time>
      </trkpt>
      <trkpt lat="45.46764" lon="3.3204">
        <ele>463</ele>
        <time>2012-11-08T13:56:23Z</time>
      </trkpt>
      <trkpt lat="45.46774" lon="3.32064">
        <ele>463</ele>
        <time>2012-11-08T13:56:34Z</time>
      </trkpt>
      <trkpt lat="45.46781" lon="3.32089">
        <ele>465</ele>
        <time>2012-11-08T13:56:46Z</time>
      </trkpt>
      <trkpt lat="45.46785" lon="3.32117">
        <ele>466</ele>
        <time>2012-11-08T13:56:56Z</time>
      </trkpt>
      <trkpt lat="45.46789" lon="3.32144">
        <ele>467</ele>
        <time>2012-11-08T13:57:06Z</time>
      </trkpt>
      <trkpt lat="45.46792" lon="3.3217">
        <ele>470</ele>
        <time>2012-11-08T13:57:13Z</time>
      </trkpt>
      <trkpt lat="45.46795" lon="3.32196">
        <ele>470</ele>
        <time>2012-11-08T13:57:21Z</time>
      </trkpt>
      <trkpt lat="45.46792" lon="3.32223">
        <ele>470</ele>
        <time>2012-11-08T13:57:27Z</time>
      </trkpt>
      <trkpt lat="45.46783" lon="3.32247">
        <ele>469</ele>
        <time>2012-11-08T13:57:32Z</time>
      </trkpt>
      <trkpt lat="45.46774" lon="3.32275">
        <ele>471</ele>
        <time>2012-11-08T13:57:38Z</time>
      </trkpt>
      <trkpt lat="45.46766" lon="3.32298">
        <ele>472</ele>
        <time>2012-11-08T13:57:44Z</time>
      </trkpt>
      <trkpt lat="45.46759" lon="3.32324">
        <ele>471</ele>
        <time>2012-11-08T13:57:54Z</time>
      </trkpt>
      <trkpt lat="45.4675" lon="3.32347">
        <ele>469</ele>
        <time>2012-11-08T13:58:06Z</time>
      </trkpt>
      <trkpt lat="45.46738" lon="3.32369">
        <ele>470</ele>
        <time>2012-11-08T13:58:18Z</time>
      </trkpt>
      <trkpt lat="45.46724" lon="3.32388">
        <ele>470</ele>
        <time>2012-11-08T13:58:26Z</time>
      </trkpt>
      <trkpt lat="45.46709" lon="3.32405">
        <ele>470</ele>
        <time>2012-11-08T13:58:30Z</time>
      </trkpt>
      <trkpt lat="45.46692" lon="3.32425">
        <ele>474</ele>
        <time>2012-11-08T13:58:34Z</time>
      </trkpt>
      <trkpt lat="45.46675" lon="3.32443">
        <ele>474</ele>
        <time>2012-11-08T13:58:38Z</time>
      </trkpt>
      <trkpt lat="45.46656" lon="3.32459">
        <ele>471</ele>
        <time>2012-11-08T13:58:44Z</time>
      </trkpt>
      <trkpt lat="45.46639" lon="3.32468">
        <ele>471</ele>
        <time>2012-11-08T13:58:49Z</time>
      </trkpt>
      <trkpt lat="45.46621" lon="3.3248">
        <ele>471</ele>
        <time>2012-11-08T13:58:55Z</time>
      </trkpt>
      <trkpt lat="45.46601" lon="3.32491">
        <ele>471</ele>
        <time>2012-11-08T13:59:01Z</time>
      </trkpt>
      <trkpt lat="45.46582" lon="3.32499">
        <ele>472</ele>
        <time>2012-11-08T13:59:06Z</time>
      </trkpt>
      <trkpt lat="45.46563" lon="3.32503">
        <ele>473</ele>
        <time>2012-11-08T13:59:11Z</time>
      </trkpt>
      <trkpt lat="45.46543" lon="3.32508">
        <ele>473</ele>
        <time>2012-11-08T13:59:16Z</time>
      </trkpt>
      <trkpt lat="45.46524" lon="3.32511">
        <ele>473</ele>
        <time>2012-11-08T13:59:21Z</time>
      </trkpt>
      <trkpt lat="45.46503" lon="3.32507">
        <ele>473</ele>
        <time>2012-11-08T13:59:26Z</time>
      </trkpt>
      <trkpt lat="45.46482" lon="3.32499">
        <ele>471</ele>
        <time>2012-11-08T13:59:30Z</time>
      </trkpt>
      <trkpt lat="45.46462" lon="3.32493">
        <ele>471</ele>
        <time>2012-11-08T13:59:36Z</time>
      </trkpt>
      <trkpt lat="45.46443" lon="3.32481">
        <ele>471</ele>
        <time>2012-11-08T13:59:41Z</time>
      </trkpt>
      <trkpt lat="45.46422" lon="3.32475">
        <ele>471</ele>
        <time>2012-11-08T13:59:46Z</time>
      </trkpt>
      <trkpt lat="45.46402" lon="3.32472">
        <ele>472</ele>
        <time>2012-11-08T13:59:51Z</time>
      </trkpt>
      <trkpt lat="45.46382" lon="3.32473">
        <ele>472</ele>
        <time>2012-11-08T13:59:56Z</time>
      </trkpt>
      <trkpt lat="45.46362" lon="3.32474">
        <ele>472</ele>
        <time>2012-11-08T14:00:01Z</time>
      </trkpt>
      <trkpt lat="45.46342" lon="3.32477">
        <ele>472</ele>
        <time>2012-11-08T14:00:06Z</time>
      </trkpt>
      <trkpt lat="45.46323" lon="3.32479">
        <ele>474</ele>
        <time>2012-11-08T14:00:11Z</time>
      </trkpt>
      <trkpt lat="45.46303" lon="3.3248">
        <ele>474</ele>
        <time>2012-11-08T14:00:16Z</time>
      </trkpt>
      <trkpt lat="45.46283" lon="3.32481">
        <ele>474</ele>
        <time>2012-11-08T14:00:21Z</time>
      </trkpt>
      <trkpt lat="45.46263" lon="3.32484">
        <ele>475</ele>
        <time>2012-11-08T14:00:27Z</time>
      </trkpt>
      <trkpt lat="45.46257" lon="3.32512">
        <ele>475</ele>
        <time>2012-11-08T14:00:34Z</time>
      </trkpt>
      <trkpt lat="45.46254" lon="3.32541">
        <ele>476</ele>
        <time>2012-11-08T14:00:40Z</time>
      </trkpt>
      <trkpt lat="45.46251" lon="3.3257">
        <ele>476</ele>
        <time>2012-11-08T14:00:46Z</time>
      </trkpt>
      <trkpt lat="45.46246" lon="3.32598">
        <ele>478</ele>
        <time>2012-11-08T14:00:52Z</time>
      </trkpt>
      <trkpt lat="45.46258" lon="3.32617">
        <ele>480</ele>
        <time>2012-11-08T14:01:03Z</time>
      </trkpt>
      <trkpt lat="45.46277" lon="3.32624">
        <ele>481</ele>
        <time>2012-11-08T14:01:10Z</time>
      </trkpt>
      <trkpt lat="45.46296" lon="3.32633">
        <ele>481</ele>
        <time>2012-11-08T14:01:17Z</time>
      </trkpt>
      <trkpt lat="45.46315" lon="3.32647">
        <ele>482</ele>
        <time>2012-11-08T14:01:24Z</time>
      </trkpt>
      <trkpt lat="45.46332" lon="3.32663">
        <ele>485</ele>
        <time>2012-11-08T14:01:30Z</time>
      </trkpt>
      <trkpt lat="45.46349" lon="3.32679">
        <ele>486</ele>
        <time>2012-11-08T14:01:37Z</time>
      </trkpt>
      <trkpt lat="45.46367" lon="3.32696">
        <ele>487</ele>
        <time>2012-11-08T14:01:44Z</time>
      </trkpt>
      <trkpt lat="45.46384" lon="3.3271">
        <ele>487</ele>
        <time>2012-11-08T14:01:51Z</time>
      </trkpt>
      <trkpt lat="45.46402" lon="3.32721">
        <ele>487</ele>
        <time>2012-11-08T14:01:57Z</time>
      </trkpt>
      <trkpt lat="45.46423" lon="3.32729">
        <ele>486</ele>
        <time>2012-11-08T14:02:03Z</time>
      </trkpt>
      <trkpt lat="45.46441" lon="3.32737">
        <ele>486</ele>
        <time>2012-11-08T14:02:09Z</time>
      </trkpt>
      <trkpt lat="45.46458" lon="3.32747">
        <ele>486</ele>
        <time>2012-11-08T14:02:15Z</time>
      </trkpt>
      <trkpt lat="45.46473" lon="3.32762">
        <ele>490</ele>
        <time>2012-11-08T14:02:21Z</time>
      </trkpt>
      <trkpt lat="45.46488" lon="3.32777">
        <ele>490</ele>
        <time>2012-11-08T14:02:27Z</time>
      </trkpt>
      <trkpt lat="45.46503" lon="3.32792">
        <ele>491</ele>
        <time>2012-11-08T14:02:33Z</time>
      </trkpt>
      <trkpt lat="45.46521" lon="3.32807">
        <ele>492</ele>
        <time>2012-11-08T14:02:40Z</time>
      </trkpt>
      <trkpt lat="45.46539" lon="3.32819">
        <ele>492</ele>
        <time>2012-11-08T14:02:47Z</time>
      </trkpt>
      <trkpt lat="45.46557" lon="3.32819">
        <ele>493</ele>
        <time>2012-11-08T14:02:53Z</time>
      </trkpt>
      <trkpt lat="45.46576" lon="3.32819">
        <ele>494</ele>
        <time>2012-11-08T14:03:00Z</time>
      </trkpt>
      <trkpt lat="45.46596" lon="3.32819">
        <ele>496</ele>
        <time>2012-11-08T14:04:52Z</time>
      </trkpt>
      <trkpt lat="45.46614" lon="3.32817">
        <ele>496</ele>
        <time>2012-11-08T14:05:02Z</time>
      </trkpt>
      <trkpt lat="45.46633" lon="3.32817">
        <ele>497</ele>
        <time>2012-11-08T14:05:13Z</time>
      </trkpt>
      <trkpt lat="45.46638" lon="3.32842">
        <ele>500</ele>
        <time>2012-11-08T14:05:25Z</time>
      </trkpt>
      <trkpt lat="45.46628" lon="3.32865">
        <ele>500</ele>
        <time>2012-11-08T14:05:34Z</time>
      </trkpt>
      <trkpt lat="45.46614" lon="3.32885">
        <ele>500</ele>
        <time>2012-11-08T14:05:41Z</time>
      </trkpt>
      <trkpt lat="45.46601" lon="3.32908">
        <ele>501</ele>
        <time>2012-11-08T14:05:47Z</time>
      </trkpt>
      <trkpt lat="45.46588" lon="3.3293">
        <ele>502</ele>
        <time>2012-11-08T14:05:53Z</time>
      </trkpt>
      <trkpt lat="45.46584" lon="3.32956">
        <ele>503</ele>
        <time>2012-11-08T14:05:59Z</time>
      </trkpt>
      <trkpt lat="45.46599" lon="3.32974">
        <ele>503</ele>
        <time>2012-11-08T14:06:05Z</time>
      </trkpt>
      <trkpt lat="45.46617" lon="3.32991">
        <ele>503</ele>
        <time>2012-11-08T14:06:10Z</time>
      </trkpt>
      <trkpt lat="45.46635" lon="3.33007">
        <ele>503</ele>
        <time>2012-11-08T14:06:14Z</time>
      </trkpt>
      <trkpt lat="45.4665" lon="3.33023">
        <ele>503</ele>
        <time>2012-11-08T14:06:17Z</time>
      </trkpt>
      <trkpt lat="45.46666" lon="3.33038">
        <ele>503</ele>
        <time>2012-11-08T14:06:20Z</time>
      </trkpt>
      <trkpt lat="45.46683" lon="3.33053">
        <ele>501</ele>
        <time>2012-11-08T14:06:23Z</time>
      </trkpt>
      <trkpt lat="45.46702" lon="3.33068">
        <ele>500</ele>
        <time>2012-11-08T14:06:26Z</time>
      </trkpt>
      <trkpt lat="45.46721" lon="3.33086">
        <ele>499</ele>
        <time>2012-11-08T14:06:29Z</time>
      </trkpt>
      <trkpt lat="45.4674" lon="3.33104">
        <ele>498</ele>
        <time>2012-11-08T14:06:32Z</time>
      </trkpt>
      <trkpt lat="45.46759" lon="3.33124">
        <ele>496</ele>
        <time>2012-11-08T14:06:35Z</time>
      </trkpt>
      <trkpt lat="45.46778" lon="3.33145">
        <ele>496</ele>
        <time>2012-11-08T14:06:38Z</time>
      </trkpt>
      <trkpt lat="45.46796" lon="3.3317">
        <ele>496</ele>
        <time>2012-11-08T14:06:41Z</time>
      </trkpt>
      <trkpt lat="45.46814" lon="3.33193">
        <ele>495</ele>
        <time>2012-11-08T14:06:44Z</time>
      </trkpt>
      <trkpt lat="45.4683" lon="3.33217">
        <ele>495</ele>
        <time>2012-11-08T14:06:47Z</time>
      </trkpt>
      <trkpt lat="45.46847" lon="3.33238">
        <ele>494</ele>
        <time>2012-11-08T14:06:50Z</time>
      </trkpt>
      <trkpt lat="45.46864" lon="3.33259">
        <ele>494</ele>
        <time>2012-11-08T14:06:53Z</time>
      </trkpt>
      <trkpt lat="45.46881" lon="3.33278">
        <ele>494</ele>
        <time>2012-11-08T14:06:56Z</time>
      </trkpt>
      <trkpt lat="45.46897" lon="3.33296">
        <ele>493</ele>
        <time>2012-11-08T14:06:59Z</time>
      </trkpt>
      <trkpt lat="45.46914" lon="3.33312">
        <ele>493</ele>
        <time>2012-11-08T14:07:02Z</time>
      </trkpt>
      <trkpt lat="45.46931" lon="3.33326">
        <ele>492</ele>
        <time>2012-11-08T14:07:05Z</time>
      </trkpt>
      <trkpt lat="45.46947" lon="3.33342">
        <ele>491</ele>
        <time>2012-11-08T14:07:08Z</time>
      </trkpt>
      <trkpt lat="45.46964" lon="3.33356">
        <ele>491</ele>
        <time>2012-11-08T14:07:11Z</time>
      </trkpt>
      <trkpt lat="45.46981" lon="3.3337">
        <ele>490</ele>
        <time>2012-11-08T14:07:14Z</time>
      </trkpt>
      <trkpt lat="45.47002" lon="3.33386">
        <ele>489</ele>
        <time>2012-11-08T14:07:18Z</time>
      </trkpt>
      <trkpt lat="45.4702" lon="3.33401">
        <ele>489</ele>
        <time>2012-11-08T14:07:21Z</time>
      </trkpt>
      <trkpt lat="45.47039" lon="3.33416">
        <ele>489</ele>
        <time>2012-11-08T14:07:24Z</time>
      </trkpt>
      <trkpt lat="45.47057" lon="3.33431">
        <ele>486</ele>
        <time>2012-11-08T14:07:27Z</time>
      </trkpt>
      <trkpt lat="45.47078" lon="3.33448">
        <ele>486</ele>
        <time>2012-11-08T14:07:30Z</time>
      </trkpt>
      <trkpt lat="45.471" lon="3.33467">
        <ele>485</ele>
        <time>2012-11-08T14:07:33Z</time>
      </trkpt>
      <trkpt lat="45.47117" lon="3.33482">
        <ele>484</ele>
        <time>2012-11-08T14:07:35Z</time>
      </trkpt>
      <trkpt lat="45.47135" lon="3.33497">
        <ele>484</ele>
        <time>2012-11-08T14:07:37Z</time>
      </trkpt>
      <trkpt lat="45.47153" lon="3.33512">
        <ele>481</ele>
        <time>2012-11-08T14:07:39Z</time>
      </trkpt>
      <trkpt lat="45.47171" lon="3.33528">
        <ele>479</ele>
        <time>2012-11-08T14:07:41Z</time>
      </trkpt>
      <trkpt lat="45.47191" lon="3.33544">
        <ele>478</ele>
        <time>2012-11-08T14:07:43Z</time>
      </trkpt>
      <trkpt lat="45.47211" lon="3.3356">
        <ele>477</ele>
        <time>2012-11-08T14:07:45Z</time>
      </trkpt>
      <trkpt lat="45.47232" lon="3.33579">
        <ele>476</ele>
        <time>2012-11-08T14:07:47Z</time>
      </trkpt>
      <trkpt lat="45.47252" lon="3.33596">
        <ele>473</ele>
        <time>2012-11-08T14:07:49Z</time>
      </trkpt>
      <trkpt lat="45.47273" lon="3.33612">
        <ele>473</ele>
        <time>2012-11-08T14:07:51Z</time>
      </trkpt>
      <trkpt lat="45.47294" lon="3.33627">
        <ele>472</ele>
        <time>2012-11-08T14:07:53Z</time>
      </trkpt>
      <trkpt lat="45.47314" lon="3.33638">
        <ele>472</ele>
        <time>2012-11-08T14:07:55Z</time>
      </trkpt>
      <trkpt lat="45.47334" lon="3.33646">
        <ele>472</ele>
        <time>2012-11-08T14:07:57Z</time>
      </trkpt>
      <trkpt lat="45.47353" lon="3.33653">
        <ele>472</ele>
        <time>2012-11-08T14:07:59Z</time>
      </trkpt>
      <trkpt lat="45.47379" lon="3.33658">
        <ele>473</ele>
        <time>2012-11-08T14:08:02Z</time>
      </trkpt>
      <trkpt lat="45.47401" lon="3.3366">
        <ele>474</ele>
        <time>2012-11-08T14:08:05Z</time>
      </trkpt>
      <trkpt lat="45.47422" lon="3.3366">
        <ele>475</ele>
        <time>2012-11-08T14:08:08Z</time>
      </trkpt>
      <trkpt lat="45.47442" lon="3.33658">
        <ele>475</ele>
        <time>2012-11-08T14:08:11Z</time>
      </trkpt>
      <trkpt lat="45.47461" lon="3.33654">
        <ele>475</ele>
        <time>2012-11-08T14:08:14Z</time>
      </trkpt>
      <trkpt lat="45.47479" lon="3.33651">
        <ele>475</ele>
        <time>2012-11-08T14:08:17Z</time>
      </trkpt>
      <trkpt lat="45.47498" lon="3.33646">
        <ele>476</ele>
        <time>2012-11-08T14:08:20Z</time>
      </trkpt>
      <trkpt lat="45.47516" lon="3.33642">
        <ele>476</ele>
        <time>2012-11-08T14:08:23Z</time>
      </trkpt>
      <trkpt lat="45.47534" lon="3.33636">
        <ele>476</ele>
        <time>2012-11-08T14:08:26Z</time>
      </trkpt>
      <trkpt lat="45.47555" lon="3.33632">
        <ele>476</ele>
        <time>2012-11-08T14:08:30Z</time>
      </trkpt>
      <trkpt lat="45.47573" lon="3.33628">
        <ele>476</ele>
        <time>2012-11-08T14:08:33Z</time>
      </trkpt>
      <trkpt lat="45.47596" lon="3.33621">
        <ele>475</ele>
        <time>2012-11-08T14:08:37Z</time>
      </trkpt>
      <trkpt lat="45.47615" lon="3.33621">
        <ele>475</ele>
        <time>2012-11-08T14:08:40Z</time>
      </trkpt>
      <trkpt lat="45.47633" lon="3.33617">
        <ele>474</ele>
        <time>2012-11-08T14:08:43Z</time>
      </trkpt>
      <trkpt lat="45.47653" lon="3.33622">
        <ele>474</ele>
        <time>2012-11-08T14:08:46Z</time>
      </trkpt>
      <trkpt lat="45.47674" lon="3.33621">
        <ele>471</ele>
        <time>2012-11-08T14:08:49Z</time>
      </trkpt>
      <trkpt lat="45.47693" lon="3.33626">
        <ele>471</ele>
        <time>2012-11-08T14:08:52Z</time>
      </trkpt>
      <trkpt lat="45.47713" lon="3.33631">
        <ele>471</ele>
        <time>2012-11-08T14:08:55Z</time>
      </trkpt>
      <trkpt lat="45.47731" lon="3.33634">
        <ele>471</ele>
        <time>2012-11-08T14:09:00Z</time>
      </trkpt>
      <trkpt lat="45.47746" lon="3.33651">
        <ele>472</ele>
        <time>2012-11-08T14:11:50Z</time>
      </trkpt>
      <trkpt lat="45.47769" lon="3.33654">
        <ele>470</ele>
        <time>2012-11-08T14:11:54Z</time>
      </trkpt>
      <trkpt lat="45.47791" lon="3.33663">
        <ele>469</ele>
        <time>2012-11-08T14:11:58Z</time>
      </trkpt>
      <trkpt lat="45.4781" lon="3.33668">
        <ele>471</ele>
        <time>2012-11-08T14:12:01Z</time>
      </trkpt>
      <trkpt lat="45.47832" lon="3.33676">
        <ele>471</ele>
        <time>2012-11-08T14:12:04Z</time>
      </trkpt>
      <trkpt lat="45.47851" lon="3.33689">
        <ele>469</ele>
        <time>2012-11-08T14:12:07Z</time>
      </trkpt>
      <trkpt lat="45.47866" lon="3.33708">
        <ele>468</ele>
        <time>2012-11-08T14:12:10Z</time>
      </trkpt>
      <trkpt lat="45.47881" lon="3.33692">
        <ele>468</ele>
        <time>2012-11-08T14:12:26Z</time>
      </trkpt>
      <trkpt lat="45.479" lon="3.33679">
        <ele>466</ele>
        <time>2012-11-08T14:12:31Z</time>
      </trkpt>
      <trkpt lat="45.47918" lon="3.33666">
        <ele>464</ele>
        <time>2012-11-08T14:12:35Z</time>
      </trkpt>
      <trkpt lat="45.47938" lon="3.33651">
        <ele>462</ele>
        <time>2012-11-08T14:12:39Z</time>
      </trkpt>
      <trkpt lat="45.47954" lon="3.33639">
        <ele>462</ele>
        <time>2012-11-08T14:12:42Z</time>
      </trkpt>
      <trkpt lat="45.47972" lon="3.33627">
        <ele>461</ele>
        <time>2012-11-08T14:12:45Z</time>
      </trkpt>
      <trkpt lat="45.4799" lon="3.33617">
        <ele>461</ele>
        <time>2012-11-08T14:12:48Z</time>
      </trkpt>
      <trkpt lat="45.4801" lon="3.3361">
        <ele>460</ele>
        <time>2012-11-08T14:12:51Z</time>
      </trkpt>
      <trkpt lat="45.4803" lon="3.33604">
        <ele>460</ele>
        <time>2012-11-08T14:12:54Z</time>
      </trkpt>
      <trkpt lat="45.4805" lon="3.336">
        <ele>460</ele>
        <time>2012-11-08T14:12:57Z</time>
      </trkpt>
      <trkpt lat="45.48071" lon="3.33594">
        <ele>459</ele>
        <time>2012-11-08T14:13:00Z</time>
      </trkpt>
      <trkpt lat="45.48093" lon="3.33592">
        <ele>458</ele>
        <time>2012-11-08T14:13:03Z</time>
      </trkpt>
      <trkpt lat="45.48115" lon="3.33588">
        <ele>457</ele>
        <time>2012-11-08T14:13:05Z</time>
      </trkpt>
      <trkpt lat="45.48139" lon="3.33584">
        <ele>456</ele>
        <time>2012-11-08T14:13:09Z</time>
      </trkpt>
      <trkpt lat="45.48163" lon="3.33581">
        <ele>454</ele>
        <time>2012-11-08T14:13:12Z</time>
      </trkpt>
      <trkpt lat="45.48187" lon="3.33581">
        <ele>452</ele>
        <time>2012-11-08T14:13:15Z</time>
      </trkpt>
      <trkpt lat="45.48213" lon="3.33583">
        <ele>452</ele>
        <time>2012-11-08T14:13:18Z</time>
      </trkpt>
      <trkpt lat="45.48237" lon="3.33584">
        <ele>453</ele>
        <time>2012-11-08T14:13:21Z</time>
      </trkpt>
      <trkpt lat="45.48263" lon="3.33592">
        <ele>452</ele>
        <time>2012-11-08T14:13:24Z</time>
      </trkpt>
      <trkpt lat="45.48288" lon="3.33603">
        <ele>451</ele>
        <time>2012-11-08T14:13:27Z</time>
      </trkpt>
      <trkpt lat="45.48313" lon="3.33616">
        <ele>451</ele>
        <time>2012-11-08T14:13:30Z</time>
      </trkpt>
      <trkpt lat="45.48335" lon="3.33632">
        <ele>449</ele>
        <time>2012-11-08T14:13:33Z</time>
      </trkpt>
      <trkpt lat="45.48351" lon="3.33652">
        <ele>449</ele>
        <time>2012-11-08T14:13:36Z</time>
      </trkpt>
      <trkpt lat="45.48366" lon="3.33669">
        <ele>450</ele>
        <time>2012-11-08T14:13:39Z</time>
      </trkpt>
      <trkpt lat="45.48386" lon="3.33675">
        <ele>450</ele>
        <time>2012-11-08T14:13:42Z</time>
      </trkpt>
      <trkpt lat="45.48407" lon="3.33668">
        <ele>449</ele>
        <time>2012-11-08T14:13:46Z</time>
      </trkpt>
      <trkpt lat="45.48429" lon="3.3366">
        <ele>447</ele>
        <time>2012-11-08T14:13:50Z</time>
      </trkpt>
      <trkpt lat="45.48451" lon="3.33652">
        <ele>446</ele>
        <time>2012-11-08T14:13:54Z</time>
      </trkpt>
      <trkpt lat="45.48471" lon="3.33647">
        <ele>446</ele>
        <time>2012-11-08T14:13:58Z</time>
      </trkpt>
      <trkpt lat="45.48494" lon="3.33649">
        <ele>446</ele>
        <time>2012-11-08T14:14:01Z</time>
      </trkpt>
      <trkpt lat="45.48514" lon="3.33655">
        <ele>443</ele>
        <time>2012-11-08T14:14:05Z</time>
      </trkpt>
      <trkpt lat="45.48537" lon="3.33662">
        <ele>441</ele>
        <time>2012-11-08T14:14:08Z</time>
      </trkpt>
      <trkpt lat="45.48557" lon="3.33667">
        <ele>440</ele>
        <time>2012-11-08T14:14:10Z</time>
      </trkpt>
      <trkpt lat="45.48576" lon="3.33672">
        <ele>438</ele>
        <time>2012-11-08T14:14:12Z</time>
      </trkpt>
      <trkpt lat="45.48596" lon="3.33677">
        <ele>436</ele>
        <time>2012-11-08T14:14:14Z</time>
      </trkpt>
      <trkpt lat="45.48617" lon="3.33682">
        <ele>436</ele>
        <time>2012-11-08T14:14:16Z</time>
      </trkpt>
      <trkpt lat="45.48637" lon="3.33687">
        <ele>435</ele>
        <time>2012-11-08T14:14:18Z</time>
      </trkpt>
      <trkpt lat="45.48658" lon="3.33693">
        <ele>435</ele>
        <time>2012-11-08T14:14:19Z</time>
      </trkpt>
      <trkpt lat="45.48676" lon="3.337">
        <ele>435</ele>
        <time>2012-11-08T14:14:21Z</time>
      </trkpt>
      <trkpt lat="45.48694" lon="3.33717">
        <ele>435</ele>
        <time>2012-11-08T14:14:25Z</time>
      </trkpt>
      <trkpt lat="45.48706" lon="3.33736">
        <ele>435</ele>
        <time>2012-11-08T14:14:28Z</time>
      </trkpt>
      <trkpt lat="45.4872" lon="3.33717">
        <ele>435</ele>
        <time>2012-11-08T14:14:36Z</time>
      </trkpt>
      <trkpt lat="45.48724" lon="3.33744">
        <ele>436</ele>
        <time>2012-11-08T14:15:01Z</time>
      </trkpt>
      <trkpt lat="45.48731" lon="3.33773">
        <ele>437</ele>
        <time>2012-11-08T14:15:09Z</time>
      </trkpt>
      <trkpt lat="45.48738" lon="3.33798">
        <ele>438</ele>
        <time>2012-11-08T14:15:15Z</time>
      </trkpt>
      <trkpt lat="45.48749" lon="3.33821">
        <ele>439</ele>
        <time>2012-11-08T14:15:20Z</time>
      </trkpt>
      <trkpt lat="45.48747" lon="3.3385">
        <ele>440</ele>
        <time>2012-11-08T14:15:29Z</time>
      </trkpt>
      <trkpt lat="45.48744" lon="3.33876">
        <ele>440</ele>
        <time>2012-11-08T14:15:35Z</time>
      </trkpt>
      <trkpt lat="45.48742" lon="3.33903">
        <ele>441</ele>
        <time>2012-11-08T14:15:40Z</time>
      </trkpt>
      <trkpt lat="45.48737" lon="3.33929">
        <ele>442</ele>
        <time>2012-11-08T14:15:48Z</time>
      </trkpt>
      <trkpt lat="45.48736" lon="3.33955">
        <ele>443</ele>
        <time>2012-11-08T14:15:56Z</time>
      </trkpt>
      <trkpt lat="45.48738" lon="3.33982">
        <ele>445</ele>
        <time>2012-11-08T14:16:04Z</time>
      </trkpt>
      <trkpt lat="45.48742" lon="3.34008">
        <ele>447</ele>
        <time>2012-11-08T14:16:19Z</time>
      </trkpt>
      <trkpt lat="45.48748" lon="3.34035">
        <ele>448</ele>
        <time>2012-11-08T14:16:29Z</time>
      </trkpt>
      <trkpt lat="45.48752" lon="3.34062">
        <ele>456</ele>
        <time>2012-11-08T14:16:40Z</time>
      </trkpt>
      <trkpt lat="45.48761" lon="3.34086">
        <ele>457</ele>
        <time>2012-11-08T14:16:53Z</time>
      </trkpt>
      <trkpt lat="45.48767" lon="3.34112">
        <ele>460</ele>
        <time>2012-11-08T14:17:04Z</time>
      </trkpt>
      <trkpt lat="45.48773" lon="3.34137">
        <ele>461</ele>
        <time>2012-11-08T14:17:15Z</time>
      </trkpt>
      <trkpt lat="45.48779" lon="3.34164">
        <ele>462</ele>
        <time>2012-11-08T14:17:25Z</time>
      </trkpt>
      <trkpt lat="45.48784" lon="3.34189">
        <ele>464</ele>
        <time>2012-11-08T14:17:36Z</time>
      </trkpt>
      <trkpt lat="45.48791" lon="3.34216">
        <ele>465</ele>
        <time>2012-11-08T14:17:47Z</time>
      </trkpt>
      <trkpt lat="45.48794" lon="3.34244">
        <ele>465</ele>
        <time>2012-11-08T14:17:57Z</time>
      </trkpt>
      <trkpt lat="45.48795" lon="3.34273">
        <ele>467</ele>
        <time>2012-11-08T14:18:03Z</time>
      </trkpt>
      <trkpt lat="45.48792" lon="3.34304">
        <ele>467</ele>
        <time>2012-11-08T14:18:09Z</time>
      </trkpt>
      <trkpt lat="45.48787" lon="3.34336">
        <ele>468</ele>
        <time>2012-11-08T14:18:15Z</time>
      </trkpt>
      <trkpt lat="45.48783" lon="3.34361">
        <ele>469</ele>
        <time>2012-11-08T14:18:19Z</time>
      </trkpt>
      <trkpt lat="45.48775" lon="3.34389">
        <ele>469</ele>
        <time>2012-11-08T14:18:24Z</time>
      </trkpt>
      <trkpt lat="45.48766" lon="3.3442">
        <ele>470</ele>
        <time>2012-11-08T14:18:29Z</time>
      </trkpt>
      <trkpt lat="45.48754" lon="3.34451">
        <ele>470</ele>
        <time>2012-11-08T14:18:35Z</time>
      </trkpt>
      <trkpt lat="45.48748" lon="3.34479">
        <ele>470</ele>
        <time>2012-11-08T14:18:40Z</time>
      </trkpt>
      <trkpt lat="45.48746" lon="3.34506">
        <ele>471</ele>
        <time>2012-11-08T14:18:45Z</time>
      </trkpt>
      <trkpt lat="45.48745" lon="3.34534">
        <ele>471</ele>
        <time>2012-11-08T14:18:50Z</time>
      </trkpt>
      <trkpt lat="45.48744" lon="3.3456">
        <ele>472</ele>
        <time>2012-11-08T14:18:55Z</time>
      </trkpt>
      <trkpt lat="45.48746" lon="3.3459">
        <ele>472</ele>
        <time>2012-11-08T14:19:00Z</time>
      </trkpt>
      <trkpt lat="45.48749" lon="3.34619">
        <ele>473</ele>
        <time>2012-11-08T14:19:05Z</time>
      </trkpt>
      <trkpt lat="45.4875" lon="3.34648">
        <ele>473</ele>
        <time>2012-11-08T14:19:10Z</time>
      </trkpt>
      <trkpt lat="45.48749" lon="3.34678">
        <ele>474</ele>
        <time>2012-11-08T14:19:15Z</time>
      </trkpt>
      <trkpt lat="45.48747" lon="3.34708">
        <ele>474</ele>
        <time>2012-11-08T14:19:20Z</time>
      </trkpt>
      <trkpt lat="45.48746" lon="3.34735">
        <ele>474</ele>
        <time>2012-11-08T14:19:24Z</time>
      </trkpt>
      <trkpt lat="45.48746" lon="3.34762">
        <ele>474</ele>
        <time>2012-11-08T14:19:28Z</time>
      </trkpt>
      <trkpt lat="45.48747" lon="3.34788">
        <ele>473</ele>
        <time>2012-11-08T14:19:32Z</time>
      </trkpt>
      <trkpt lat="45.48749" lon="3.34815">
        <ele>473</ele>
        <time>2012-11-08T14:19:36Z</time>
      </trkpt>
      <trkpt lat="45.4875" lon="3.34846">
        <ele>473</ele>
        <time>2012-11-08T14:19:41Z</time>
      </trkpt>
      <trkpt lat="45.48752" lon="3.34876">
        <ele>474</ele>
        <time>2012-11-08T14:19:46Z</time>
      </trkpt>
      <trkpt lat="45.48754" lon="3.34904">
        <ele>475</ele>
        <time>2012-11-08T14:19:51Z</time>
      </trkpt>
      <trkpt lat="45.48758" lon="3.3493">
        <ele>477</ele>
        <time>2012-11-08T14:19:55Z</time>
      </trkpt>
      <trkpt lat="45.48763" lon="3.34956">
        <ele>478</ele>
        <time>2012-11-08T14:19:59Z</time>
      </trkpt>
      <trkpt lat="45.48766" lon="3.34985">
        <ele>479</ele>
        <time>2012-11-08T14:20:04Z</time>
      </trkpt>
      <trkpt lat="45.4877" lon="3.35012">
        <ele>481</ele>
        <time>2012-11-08T14:20:09Z</time>
      </trkpt>
      <trkpt lat="45.48772" lon="3.35041">
        <ele>481</ele>
        <time>2012-11-08T14:20:16Z</time>
      </trkpt>
      <trkpt lat="45.48773" lon="3.35067">
        <ele>482</ele>
        <time>2012-11-08T14:20:22Z</time>
      </trkpt>
      <trkpt lat="45.4877" lon="3.35095">
        <ele>484</ele>
        <time>2012-11-08T14:20:32Z</time>
      </trkpt>
      <trkpt lat="45.48767" lon="3.35121">
        <ele>485</ele>
        <time>2012-11-08T14:20:38Z</time>
      </trkpt>
      <trkpt lat="45.48762" lon="3.35148">
        <ele>486</ele>
        <time>2012-11-08T14:20:46Z</time>
      </trkpt>
      <trkpt lat="45.48765" lon="3.35178">
        <ele>489</ele>
        <time>2012-11-08T14:20:53Z</time>
      </trkpt>
      <trkpt lat="45.48766" lon="3.35207">
        <ele>489</ele>
        <time>2012-11-08T14:21:00Z</time>
      </trkpt>
      <trkpt lat="45.48765" lon="3.35233">
        <ele>490</ele>
        <time>2012-11-08T14:21:07Z</time>
      </trkpt>
      <trkpt lat="45.48765" lon="3.35261">
        <ele>493</ele>
        <time>2012-11-08T14:21:14Z</time>
      </trkpt>
      <trkpt lat="45.48768" lon="3.35287">
        <ele>494</ele>
        <time>2012-11-08T14:21:21Z</time>
      </trkpt>
      <trkpt lat="45.48769" lon="3.35316">
        <ele>495</ele>
        <time>2012-11-08T14:21:28Z</time>
      </trkpt>
      <trkpt lat="45.48769" lon="3.35344">
        <ele>499</ele>
        <time>2012-11-08T14:21:37Z</time>
      </trkpt>
      <trkpt lat="45.48768" lon="3.35372">
        <ele>500</ele>
        <time>2012-11-08T14:21:45Z</time>
      </trkpt>
      <trkpt lat="45.4877" lon="3.35398">
        <ele>501</ele>
        <time>2012-11-08T14:21:56Z</time>
      </trkpt>
      <trkpt lat="45.4877" lon="3.35424">
        <ele>505</ele>
        <time>2012-11-08T14:22:06Z</time>
      </trkpt>
      <trkpt lat="45.48766" lon="3.3545">
        <ele>506</ele>
        <time>2012-11-08T14:22:18Z</time>
      </trkpt>
      <trkpt lat="45.48769" lon="3.35477">
        <ele>508</ele>
        <time>2012-11-08T14:22:30Z</time>
      </trkpt>
      <trkpt lat="45.48778" lon="3.35499">
        <ele>508</ele>
        <time>2012-11-08T14:22:40Z</time>
      </trkpt>
      <trkpt lat="45.48788" lon="3.35524">
        <ele>513</ele>
        <time>2012-11-08T14:22:51Z</time>
      </trkpt>
      <trkpt lat="45.48798" lon="3.35547">
        <ele>514</ele>
        <time>2012-11-08T14:23:01Z</time>
      </trkpt>
      <trkpt lat="45.48809" lon="3.3557">
        <ele>515</ele>
        <time>2012-11-08T14:23:10Z</time>
      </trkpt>
      <trkpt lat="45.48819" lon="3.35594">
        <ele>520</ele>
        <time>2012-11-08T14:23:20Z</time>
      </trkpt>
      <trkpt lat="45.48827" lon="3.35617">
        <ele>522</ele>
        <time>2012-11-08T14:23:29Z</time>
      </trkpt>
      <trkpt lat="45.48834" lon="3.35643">
        <ele>522</ele>
        <time>2012-11-08T14:23:39Z</time>
      </trkpt>
      <trkpt lat="45.48842" lon="3.35667">
        <ele>528</ele>
        <time>2012-11-08T14:23:49Z</time>
      </trkpt>
      <trkpt lat="45.48847" lon="3.35692">
        <ele>529</ele>
        <time>2012-11-08T14:24:00Z</time>
      </trkpt>
      <trkpt lat="45.48854" lon="3.35718">
        <ele>531</ele>
        <time>2012-11-08T14:24:11Z</time>
      </trkpt>
      <trkpt lat="45.48861" lon="3.35741">
        <ele>533</ele>
        <time>2012-11-08T14:24:24Z</time>
      </trkpt>
      <trkpt lat="45.48865" lon="3.35767">
        <ele>540</ele>
        <time>2012-11-08T14:24:37Z</time>
      </trkpt>
      <trkpt lat="45.4887" lon="3.35793">
        <ele>541</ele>
        <time>2012-11-08T14:24:49Z</time>
      </trkpt>
      <trkpt lat="45.4887" lon="3.3582">
        <ele>543</ele>
        <time>2012-11-08T14:25:04Z</time>
      </trkpt>
      <trkpt lat="45.48874" lon="3.35846">
        <ele>548</ele>
        <time>2012-11-08T14:25:15Z</time>
      </trkpt>
      <trkpt lat="45.48872" lon="3.35872">
        <ele>548</ele>
        <time>2012-11-08T14:25:27Z</time>
      </trkpt>
      <trkpt lat="45.48867" lon="3.35898">
        <ele>550</ele>
        <time>2012-11-08T14:25:39Z</time>
      </trkpt>
      <trkpt lat="45.48863" lon="3.35923">
        <ele>551</ele>
        <time>2012-11-08T14:25:49Z</time>
      </trkpt>
      <trkpt lat="45.48863" lon="3.35951">
        <ele>549</ele>
        <time>2012-11-08T14:25:56Z</time>
      </trkpt>
      <trkpt lat="45.4885" lon="3.35972">
        <ele>550</ele>
        <time>2012-11-08T14:25:59Z</time>
      </trkpt>
      <trkpt lat="45.48845" lon="3.35998">
        <ele>552</ele>
        <time>2012-11-08T14:26:04Z</time>
      </trkpt>
      <trkpt lat="45.48851" lon="3.36022">
        <ele>546</ele>
        <time>2012-11-08T14:26:23Z</time>
      </trkpt>
      <trkpt lat="45.48871" lon="3.36024">
        <ele>544</ele>
        <time>2012-11-08T14:30:51Z</time>
      </trkpt>
      <trkpt lat="45.48887" lon="3.36008">
        <ele>541</ele>
        <time>2012-11-08T14:30:55Z</time>
      </trkpt>
      <trkpt lat="45.48906" lon="3.35997">
        <ele>539</ele>
        <time>2012-11-08T14:30:58Z</time>
      </trkpt>
      <trkpt lat="45.48927" lon="3.3598">
        <ele>532</ele>
        <time>2012-11-08T14:31:01Z</time>
      </trkpt>
      <trkpt lat="45.4894" lon="3.35962">
        <ele>532</ele>
        <time>2012-11-08T14:31:03Z</time>
      </trkpt>
      <trkpt lat="45.48954" lon="3.35943">
        <ele>531</ele>
        <time>2012-11-08T14:31:05Z</time>
      </trkpt>
      <trkpt lat="45.48968" lon="3.3592">
        <ele>531</ele>
        <time>2012-11-08T14:31:07Z</time>
      </trkpt>
      <trkpt lat="45.48981" lon="3.35895">
        <ele>532</ele>
        <time>2012-11-08T14:31:09Z</time>
      </trkpt>
      <trkpt lat="45.48994" lon="3.3587">
        <ele>531</ele>
        <time>2012-11-08T14:31:11Z</time>
      </trkpt>
      <trkpt lat="45.49003" lon="3.35841">
        <ele>524</ele>
        <time>2012-11-08T14:31:13Z</time>
      </trkpt>
      <trkpt lat="45.49013" lon="3.3581">
        <ele>520</ele>
        <time>2012-11-08T14:31:15Z</time>
      </trkpt>
      <trkpt lat="45.49021" lon="3.35778">
        <ele>518</ele>
        <time>2012-11-08T14:31:17Z</time>
      </trkpt>
      <trkpt lat="45.49031" lon="3.35746">
        <ele>516</ele>
        <time>2012-11-08T14:31:19Z</time>
      </trkpt>
      <trkpt lat="45.49048" lon="3.35718">
        <ele>515</ele>
        <time>2012-11-08T14:31:21Z</time>
      </trkpt>
      <trkpt lat="45.49067" lon="3.35694">
        <ele>514</ele>
        <time>2012-11-08T14:31:23Z</time>
      </trkpt>
      <trkpt lat="45.49091" lon="3.35676">
        <ele>511</ele>
        <time>2012-11-08T14:31:25Z</time>
      </trkpt>
      <trkpt lat="45.49115" lon="3.35662">
        <ele>509</ele>
        <time>2012-11-08T14:31:27Z</time>
      </trkpt>
      <trkpt lat="45.4914" lon="3.35648">
        <ele>507</ele>
        <time>2012-11-08T14:31:29Z</time>
      </trkpt>
      <trkpt lat="45.49164" lon="3.35636">
        <ele>507</ele>
        <time>2012-11-08T14:31:31Z</time>
      </trkpt>
      <trkpt lat="45.49188" lon="3.35623">
        <ele>502</ele>
        <time>2012-11-08T14:31:33Z</time>
      </trkpt>
      <trkpt lat="45.49211" lon="3.35609">
        <ele>501</ele>
        <time>2012-11-08T14:31:35Z</time>
      </trkpt>
      <trkpt lat="45.49235" lon="3.35597">
        <ele>500</ele>
        <time>2012-11-08T14:31:37Z</time>
      </trkpt>
      <trkpt lat="45.49258" lon="3.35586">
        <ele>498</ele>
        <time>2012-11-08T14:31:39Z</time>
      </trkpt>
      <trkpt lat="45.49281" lon="3.35574">
        <ele>497</ele>
        <time>2012-11-08T14:31:41Z</time>
      </trkpt>
      <trkpt lat="45.49303" lon="3.35563">
        <ele>497</ele>
        <time>2012-11-08T14:31:43Z</time>
      </trkpt>
      <trkpt lat="45.49325" lon="3.3555">
        <ele>497</ele>
        <time>2012-11-08T14:31:45Z</time>
      </trkpt>
      <trkpt lat="45.49348" lon="3.35539">
        <ele>495</ele>
        <time>2012-11-08T14:31:47Z</time>
      </trkpt>
      <trkpt lat="45.4937" lon="3.35527">
        <ele>494</ele>
        <time>2012-11-08T14:31:49Z</time>
      </trkpt>
      <trkpt lat="45.49391" lon="3.35513">
        <ele>493</ele>
        <time>2012-11-08T14:31:51Z</time>
      </trkpt>
      <trkpt lat="45.49412" lon="3.35496">
        <ele>492</ele>
        <time>2012-11-08T14:31:53Z</time>
      </trkpt>
      <trkpt lat="45.4943" lon="3.35475">
        <ele>490</ele>
        <time>2012-11-08T14:31:55Z</time>
      </trkpt>
      <trkpt lat="45.49446" lon="3.35451">
        <ele>490</ele>
        <time>2012-11-08T14:31:57Z</time>
      </trkpt>
      <trkpt lat="45.4946" lon="3.35426">
        <ele>489</ele>
        <time>2012-11-08T14:31:59Z</time>
      </trkpt>
      <trkpt lat="45.49475" lon="3.35402">
        <ele>487</ele>
        <time>2012-11-08T14:32:01Z</time>
      </trkpt>
      <trkpt lat="45.49489" lon="3.35378">
        <ele>487</ele>
        <time>2012-11-08T14:32:03Z</time>
      </trkpt>
      <trkpt lat="45.49504" lon="3.35353">
        <ele>486</ele>
        <time>2012-11-08T14:32:05Z</time>
      </trkpt>
      <trkpt lat="45.49518" lon="3.35329">
        <ele>484</ele>
        <time>2012-11-08T14:32:07Z</time>
      </trkpt>
      <trkpt lat="45.49532" lon="3.35305">
        <ele>484</ele>
        <time>2012-11-08T14:32:09Z</time>
      </trkpt>
      <trkpt lat="45.49547" lon="3.3528">
        <ele>483</ele>
        <time>2012-11-08T14:32:11Z</time>
      </trkpt>
      <trkpt lat="45.49561" lon="3.35256">
        <ele>482</ele>
        <time>2012-11-08T14:32:13Z</time>
      </trkpt>
      <trkpt lat="45.49576" lon="3.35231">
        <ele>481</ele>
        <time>2012-11-08T14:32:15Z</time>
      </trkpt>
      <trkpt lat="45.4959" lon="3.35209">
        <ele>479</ele>
        <time>2012-11-08T14:32:17Z</time>
      </trkpt>
      <trkpt lat="45.49605" lon="3.3519">
        <ele>478</ele>
        <time>2012-11-08T14:32:19Z</time>
      </trkpt>
      <trkpt lat="45.49617" lon="3.35168">
        <ele>478</ele>
        <time>2012-11-08T14:32:21Z</time>
      </trkpt>
      <trkpt lat="45.4963" lon="3.35148">
        <ele>476</ele>
        <time>2012-11-08T14:32:23Z</time>
      </trkpt>
      <trkpt lat="45.49643" lon="3.35128">
        <ele>476</ele>
        <time>2012-11-08T14:32:25Z</time>
      </trkpt>
      <trkpt lat="45.49657" lon="3.35112">
        <ele>476</ele>
        <time>2012-11-08T14:32:27Z</time>
      </trkpt>
      <trkpt lat="45.49679" lon="3.35091">
        <ele>474</ele>
        <time>2012-11-08T14:32:30Z</time>
      </trkpt>
      <trkpt lat="45.49702" lon="3.35072">
        <ele>474</ele>
        <time>2012-11-08T14:32:33Z</time>
      </trkpt>
      <trkpt lat="45.49725" lon="3.35055">
        <ele>474</ele>
        <time>2012-11-08T14:32:36Z</time>
      </trkpt>
      <trkpt lat="45.49748" lon="3.35039">
        <ele>473</ele>
        <time>2012-11-08T14:32:39Z</time>
      </trkpt>
      <trkpt lat="45.49764" lon="3.35027">
        <ele>471</ele>
        <time>2012-11-08T14:32:41Z</time>
      </trkpt>
      <trkpt lat="45.49788" lon="3.35011">
        <ele>470</ele>
        <time>2012-11-08T14:32:44Z</time>
      </trkpt>
      <trkpt lat="45.49804" lon="3.34998">
        <ele>471</ele>
        <time>2012-11-08T14:32:46Z</time>
      </trkpt>
      <trkpt lat="45.4982" lon="3.34986">
        <ele>470</ele>
        <time>2012-11-08T14:32:48Z</time>
      </trkpt>
      <trkpt lat="45.49836" lon="3.34974">
        <ele>468</ele>
        <time>2012-11-08T14:32:50Z</time>
      </trkpt>
      <trkpt lat="45.49853" lon="3.34962">
        <ele>468</ele>
        <time>2012-11-08T14:32:52Z</time>
      </trkpt>
      <trkpt lat="45.4987" lon="3.34951">
        <ele>468</ele>
        <time>2012-11-08T14:32:54Z</time>
      </trkpt>
      <trkpt lat="45.49887" lon="3.34939">
        <ele>468</ele>
        <time>2012-11-08T14:32:56Z</time>
      </trkpt>
      <trkpt lat="45.49903" lon="3.34926">
        <ele>467</ele>
        <time>2012-11-08T14:32:58Z</time>
      </trkpt>
      <trkpt lat="45.49919" lon="3.34913">
        <ele>466</ele>
        <time>2012-11-08T14:33:00Z</time>
      </trkpt>
      <trkpt lat="45.49936" lon="3.349">
        <ele>465</ele>
        <time>2012-11-08T14:33:02Z</time>
      </trkpt>
      <trkpt lat="45.49951" lon="3.34886">
        <ele>464</ele>
        <time>2012-11-08T14:33:04Z</time>
      </trkpt>
      <trkpt lat="45.49965" lon="3.34868">
        <ele>464</ele>
        <time>2012-11-08T14:33:06Z</time>
      </trkpt>
      <trkpt lat="45.49977" lon="3.34848">
        <ele>464</ele>
        <time>2012-11-08T14:33:08Z</time>
      </trkpt>
      <trkpt lat="45.49991" lon="3.34816">
        <ele>463</ele>
        <time>2012-11-08T14:33:11Z</time>
      </trkpt>
      <trkpt lat="45.49999" lon="3.34792">
        <ele>463</ele>
        <time>2012-11-08T14:33:13Z</time>
      </trkpt>
      <trkpt lat="45.50007" lon="3.34768">
        <ele>462</ele>
        <time>2012-11-08T14:33:15Z</time>
      </trkpt>
      <trkpt lat="45.50013" lon="3.34744">
        <ele>461</ele>
        <time>2012-11-08T14:33:17Z</time>
      </trkpt>
      <trkpt lat="45.5002" lon="3.34719">
        <ele>460</ele>
        <time>2012-11-08T14:33:19Z</time>
      </trkpt>
      <trkpt lat="45.50028" lon="3.34694">
        <ele>460</ele>
        <time>2012-11-08T14:33:21Z</time>
      </trkpt>
      <trkpt lat="45.50037" lon="3.34669">
        <ele>459</ele>
        <time>2012-11-08T14:33:23Z</time>
      </trkpt>
      <trkpt lat="45.50044" lon="3.34642">
        <ele>457</ele>
        <time>2012-11-08T14:33:25Z</time>
      </trkpt>
      <trkpt lat="45.50052" lon="3.34616">
        <ele>456</ele>
        <time>2012-11-08T14:33:27Z</time>
      </trkpt>
      <trkpt lat="45.50059" lon="3.34589">
        <ele>455</ele>
        <time>2012-11-08T14:33:29Z</time>
      </trkpt>
      <trkpt lat="45.50067" lon="3.3456">
        <ele>452</ele>
        <time>2012-11-08T14:33:31Z</time>
      </trkpt>
      <trkpt lat="45.50076" lon="3.34533">
        <ele>451</ele>
        <time>2012-11-08T14:33:33Z</time>
      </trkpt>
      <trkpt lat="45.50086" lon="3.34503">
        <ele>449</ele>
        <time>2012-11-08T14:33:35Z</time>
      </trkpt>
      <trkpt lat="45.50098" lon="3.34474">
        <ele>447</ele>
        <time>2012-11-08T14:33:37Z</time>
      </trkpt>
      <trkpt lat="45.50115" lon="3.34448">
        <ele>446</ele>
        <time>2012-11-08T14:33:39Z</time>
      </trkpt>
      <trkpt lat="45.50134" lon="3.34426">
        <ele>446</ele>
        <time>2012-11-08T14:33:41Z</time>
      </trkpt>
      <trkpt lat="45.50155" lon="3.34406">
        <ele>443</ele>
        <time>2012-11-08T14:33:43Z</time>
      </trkpt>
      <trkpt lat="45.50176" lon="3.34386">
        <ele>444</ele>
        <time>2012-11-08T14:33:45Z</time>
      </trkpt>
      <trkpt lat="45.50197" lon="3.34365">
        <ele>443</ele>
        <time>2012-11-08T14:33:47Z</time>
      </trkpt>
      <trkpt lat="45.50217" lon="3.34342">
        <ele>442</ele>
        <time>2012-11-08T14:33:49Z</time>
      </trkpt>
      <trkpt lat="45.50234" lon="3.34314">
        <ele>437</ele>
        <time>2012-11-08T14:33:51Z</time>
      </trkpt>
      <trkpt lat="45.50248" lon="3.34284">
        <ele>435</ele>
        <time>2012-11-08T14:33:53Z</time>
      </trkpt>
      <trkpt lat="45.50263" lon="3.34254">
        <ele>433</ele>
        <time>2012-11-08T14:33:55Z</time>
      </trkpt>
      <trkpt lat="45.50276" lon="3.34221">
        <ele>429</ele>
        <time>2012-11-08T14:33:57Z</time>
      </trkpt>
      <trkpt lat="45.50288" lon="3.34188">
        <ele>428</ele>
        <time>2012-11-08T14:33:59Z</time>
      </trkpt>
      <trkpt lat="45.50302" lon="3.34156">
        <ele>425</ele>
        <time>2012-11-08T14:34:01Z</time>
      </trkpt>
      <trkpt lat="45.50316" lon="3.34123">
        <ele>424</ele>
        <time>2012-11-08T14:34:03Z</time>
      </trkpt>
      <trkpt lat="45.50328" lon="3.3409">
        <ele>423</ele>
        <time>2012-11-08T14:34:05Z</time>
      </trkpt>
      <trkpt lat="45.50339" lon="3.34054">
        <ele>421</ele>
        <time>2012-11-08T14:34:07Z</time>
      </trkpt>
      <trkpt lat="45.50342" lon="3.34016">
        <ele>419</ele>
        <time>2012-11-08T14:34:09Z</time>
      </trkpt>
      <trkpt lat="45.50342" lon="3.33979">
        <ele>416</ele>
        <time>2012-11-08T14:34:11Z</time>
      </trkpt>
      <trkpt lat="45.50342" lon="3.33941">
        <ele>415</ele>
        <time>2012-11-08T14:34:13Z</time>
      </trkpt>
      <trkpt lat="45.50343" lon="3.33905">
        <ele>413</ele>
        <time>2012-11-08T14:34:15Z</time>
      </trkpt>
      <trkpt lat="45.50348" lon="3.33874">
        <ele>413</ele>
        <time>2012-11-08T14:34:17Z</time>
      </trkpt>
      <trkpt lat="45.50356" lon="3.33846">
        <ele>412</ele>
        <time>2012-11-08T14:34:19Z</time>
      </trkpt>
      <trkpt lat="45.50366" lon="3.33822">
        <ele>413</ele>
        <time>2012-11-08T14:34:21Z</time>
      </trkpt>
      <trkpt lat="45.5038" lon="3.33793">
        <ele>413</ele>
        <time>2012-11-08T14:34:24Z</time>
      </trkpt>
      <trkpt lat="45.50393" lon="3.33766">
        <ele>414</ele>
        <time>2012-11-08T14:34:27Z</time>
      </trkpt>
      <trkpt lat="45.50404" lon="3.33741">
        <ele>415</ele>
        <time>2012-11-08T14:34:30Z</time>
      </trkpt>
      <trkpt lat="45.50415" lon="3.33718">
        <ele>416</ele>
        <time>2012-11-08T14:34:33Z</time>
      </trkpt>
      <trkpt lat="45.50429" lon="3.3369">
        <ele>417</ele>
        <time>2012-11-08T14:34:37Z</time>
      </trkpt>
      <trkpt lat="45.50439" lon="3.33668">
        <ele>417</ele>
        <time>2012-11-08T14:34:40Z</time>
      </trkpt>
      <trkpt lat="45.50449" lon="3.33646">
        <ele>419</ele>
        <time>2012-11-08T14:34:43Z</time>
      </trkpt>
      <trkpt lat="45.50459" lon="3.33623">
        <ele>420</ele>
        <time>2012-11-08T14:34:46Z</time>
      </trkpt>
      <trkpt lat="45.50471" lon="3.33595">
        <ele>420</ele>
        <time>2012-11-08T14:34:50Z</time>
      </trkpt>
      <trkpt lat="45.50483" lon="3.33566">
        <ele>421</ele>
        <time>2012-11-08T14:34:54Z</time>
      </trkpt>
      <trkpt lat="45.50491" lon="3.33542">
        <ele>422</ele>
        <time>2012-11-08T14:34:57Z</time>
      </trkpt>
      <trkpt lat="45.505" lon="3.33518">
        <ele>422</ele>
        <time>2012-11-08T14:35:00Z</time>
      </trkpt>
      <trkpt lat="45.50509" lon="3.33493">
        <ele>421</ele>
        <time>2012-11-08T14:35:03Z</time>
      </trkpt>
      <trkpt lat="45.50518" lon="3.33467">
        <ele>421</ele>
        <time>2012-11-08T14:35:06Z</time>
      </trkpt>
      <trkpt lat="45.50526" lon="3.33438">
        <ele>420</ele>
        <time>2012-11-08T14:35:09Z</time>
      </trkpt>
      <trkpt lat="45.50535" lon="3.33408">
        <ele>418</ele>
        <time>2012-11-08T14:35:12Z</time>
      </trkpt>
      <trkpt lat="45.50546" lon="3.33375">
        <ele>417</ele>
        <time>2012-11-08T14:35:15Z</time>
      </trkpt>
      <trkpt lat="45.50555" lon="3.3334">
        <ele>416</ele>
        <time>2012-11-08T14:35:18Z</time>
      </trkpt>
      <trkpt lat="45.50563" lon="3.33316">
        <ele>413</ele>
        <time>2012-11-08T14:35:20Z</time>
      </trkpt>
      <trkpt lat="45.5057" lon="3.33292">
        <ele>413</ele>
        <time>2012-11-08T14:35:22Z</time>
      </trkpt>
      <trkpt lat="45.50577" lon="3.33267">
        <ele>412</ele>
        <time>2012-11-08T14:35:24Z</time>
      </trkpt>
      <trkpt lat="45.50583" lon="3.33241">
        <ele>410</ele>
        <time>2012-11-08T14:35:26Z</time>
      </trkpt>
      <trkpt lat="45.5059" lon="3.33215">
        <ele>409</ele>
        <time>2012-11-08T14:35:28Z</time>
      </trkpt>
      <trkpt lat="45.50597" lon="3.33188">
        <ele>408</ele>
        <time>2012-11-08T14:35:30Z</time>
      </trkpt>
      <trkpt lat="45.50605" lon="3.33162">
        <ele>406</ele>
        <time>2012-11-08T14:35:32Z</time>
      </trkpt>
      <trkpt lat="45.50613" lon="3.33136">
        <ele>406</ele>
        <time>2012-11-08T14:35:34Z</time>
      </trkpt>
      <trkpt lat="45.50621" lon="3.33109">
        <ele>406</ele>
        <time>2012-11-08T14:35:36Z</time>
      </trkpt>
      <trkpt lat="45.5063" lon="3.33084">
        <ele>406</ele>
        <time>2012-11-08T14:35:38Z</time>
      </trkpt>
      <trkpt lat="45.50639" lon="3.33059">
        <ele>405</ele>
        <time>2012-11-08T14:35:40Z</time>
      </trkpt>
      <trkpt lat="45.50649" lon="3.33035">
        <ele>405</ele>
        <time>2012-11-08T14:35:42Z</time>
      </trkpt>
      <trkpt lat="45.50657" lon="3.33012">
        <ele>404</ele>
        <time>2012-11-08T14:35:44Z</time>
      </trkpt>
      <trkpt lat="45.50667" lon="3.32989">
        <ele>402</ele>
        <time>2012-11-08T14:35:46Z</time>
      </trkpt>
      <trkpt lat="45.50677" lon="3.32966">
        <ele>402</ele>
        <time>2012-11-08T14:35:48Z</time>
      </trkpt>
      <trkpt lat="45.50686" lon="3.32943">
        <ele>402</ele>
        <time>2012-11-08T14:35:50Z</time>
      </trkpt>
      <trkpt lat="45.50695" lon="3.32921">
        <ele>401</ele>
        <time>2012-11-08T14:35:52Z</time>
      </trkpt>
      <trkpt lat="45.50704" lon="3.32897">
        <ele>401</ele>
        <time>2012-11-08T14:35:54Z</time>
      </trkpt>
      <trkpt lat="45.50717" lon="3.32864">
        <ele>400</ele>
        <time>2012-11-08T14:35:57Z</time>
      </trkpt>
      <trkpt lat="45.50729" lon="3.32832">
        <ele>399</ele>
        <time>2012-11-08T14:36:00Z</time>
      </trkpt>
      <trkpt lat="45.50742" lon="3.32799">
        <ele>399</ele>
        <time>2012-11-08T14:36:03Z</time>
      </trkpt>
      <trkpt lat="45.50755" lon="3.32766">
        <ele>396</ele>
        <time>2012-11-08T14:36:06Z</time>
      </trkpt>
      <trkpt lat="45.50769" lon="3.32733">
        <ele>396</ele>
        <time>2012-11-08T14:36:09Z</time>
      </trkpt>
      <trkpt lat="45.50783" lon="3.32701">
        <ele>396</ele>
        <time>2012-11-08T14:36:12Z</time>
      </trkpt>
      <trkpt lat="45.50792" lon="3.32679">
        <ele>395</ele>
        <time>2012-11-08T14:36:14Z</time>
      </trkpt>
      <trkpt lat="45.50804" lon="3.32646">
        <ele>395</ele>
        <time>2012-11-08T14:36:17Z</time>
      </trkpt>
      <trkpt lat="45.50818" lon="3.32613">
        <ele>395</ele>
        <time>2012-11-08T14:36:20Z</time>
      </trkpt>
      <trkpt lat="45.50829" lon="3.32581">
        <ele>395</ele>
        <time>2012-11-08T14:36:23Z</time>
      </trkpt>
      <trkpt lat="45.50841" lon="3.32549">
        <ele>394</ele>
        <time>2012-11-08T14:36:26Z</time>
      </trkpt>
      <trkpt lat="45.50854" lon="3.32516">
        <ele>394</ele>
        <time>2012-11-08T14:36:29Z</time>
      </trkpt>
      <trkpt lat="45.50867" lon="3.32485">
        <ele>394</ele>
        <time>2012-11-08T14:36:32Z</time>
      </trkpt>
      <trkpt lat="45.5088" lon="3.32454">
        <ele>393</ele>
        <time>2012-11-08T14:36:35Z</time>
      </trkpt>
      <trkpt lat="45.50893" lon="3.32422">
        <ele>393</ele>
        <time>2012-11-08T14:36:38Z</time>
      </trkpt>
      <trkpt lat="45.50907" lon="3.3239">
        <ele>392</ele>
        <time>2012-11-08T14:36:41Z</time>
      </trkpt>
      <trkpt lat="45.50916" lon="3.32367">
        <ele>392</ele>
        <time>2012-11-08T14:36:43Z</time>
      </trkpt>
      <trkpt lat="45.50927" lon="3.32335">
        <ele>391</ele>
        <time>2012-11-08T14:36:46Z</time>
      </trkpt>
      <trkpt lat="45.5094" lon="3.32302">
        <ele>392</ele>
        <time>2012-11-08T14:36:49Z</time>
      </trkpt>
      <trkpt lat="45.50953" lon="3.32271">
        <ele>392</ele>
        <time>2012-11-08T14:36:52Z</time>
      </trkpt>
      <trkpt lat="45.50964" lon="3.3224">
        <ele>392</ele>
        <time>2012-11-08T14:36:55Z</time>
      </trkpt>
      <trkpt lat="45.50977" lon="3.3221">
        <ele>392</ele>
        <time>2012-11-08T14:36:58Z</time>
      </trkpt>
      <trkpt lat="45.5099" lon="3.32179">
        <ele>391</ele>
        <time>2012-11-08T14:37:01Z</time>
      </trkpt>
      <trkpt lat="45.51002" lon="3.32149">
        <ele>391</ele>
        <time>2012-11-08T14:37:04Z</time>
      </trkpt>
      <trkpt lat="45.51015" lon="3.32118">
        <ele>391</ele>
        <time>2012-11-08T14:37:07Z</time>
      </trkpt>
      <trkpt lat="45.51029" lon="3.32088">
        <ele>391</ele>
        <time>2012-11-08T14:37:10Z</time>
      </trkpt>
      <trkpt lat="45.51041" lon="3.32059">
        <ele>391</ele>
        <time>2012-11-08T14:37:13Z</time>
      </trkpt>
      <trkpt lat="45.51053" lon="3.32029">
        <ele>392</ele>
        <time>2012-11-08T14:37:16Z</time>
      </trkpt>
      <trkpt lat="45.51064" lon="3.32001">
        <ele>392</ele>
        <time>2012-11-08T14:37:19Z</time>
      </trkpt>
      <trkpt lat="45.51084" lon="3.3199">
        <ele>391</ele>
        <time>2012-11-08T14:37:23Z</time>
      </trkpt>
      <trkpt lat="45.51102" lon="3.31997">
        <ele>391</ele>
        <time>2012-11-08T14:37:25Z</time>
      </trkpt>
      <trkpt lat="45.51128" lon="3.31998">
        <ele>390</ele>
        <time>2012-11-08T14:37:30Z</time>
      </trkpt>
      <trkpt lat="45.51151" lon="3.32">
        <ele>390</ele>
        <time>2012-11-08T14:37:33Z</time>
      </trkpt>
      <trkpt lat="45.51174" lon="3.31999">
        <ele>389</ele>
        <time>2012-11-08T14:37:36Z</time>
      </trkpt>
      <trkpt lat="45.51198" lon="3.32007">
        <ele>388</ele>
        <time>2012-11-08T14:37:39Z</time>
      </trkpt>
      <trkpt lat="45.5122" lon="3.32015">
        <ele>387</ele>
        <time>2012-11-08T14:37:42Z</time>
      </trkpt>
      <trkpt lat="45.51241" lon="3.32029">
        <ele>387</ele>
        <time>2012-11-08T14:37:45Z</time>
      </trkpt>
      <trkpt lat="45.5126" lon="3.32044">
        <ele>386</ele>
        <time>2012-11-08T14:37:48Z</time>
      </trkpt>
      <trkpt lat="45.5128" lon="3.32062">
        <ele>385</ele>
        <time>2012-11-08T14:37:51Z</time>
      </trkpt>
      <trkpt lat="45.51296" lon="3.32084">
        <ele>385</ele>
        <time>2012-11-08T14:37:54Z</time>
      </trkpt>
      <trkpt lat="45.51312" lon="3.32107">
        <ele>385</ele>
        <time>2012-11-08T14:37:57Z</time>
      </trkpt>
      <trkpt lat="45.51326" lon="3.32131">
        <ele>384</ele>
        <time>2012-11-08T14:38:00Z</time>
      </trkpt>
      <trkpt lat="45.51339" lon="3.32152">
        <ele>384</ele>
        <time>2012-11-08T14:38:03Z</time>
      </trkpt>
      <trkpt lat="45.51353" lon="3.32171">
        <ele>385</ele>
        <time>2012-11-08T14:38:06Z</time>
      </trkpt>
      <trkpt lat="45.5137" lon="3.32191">
        <ele>385</ele>
        <time>2012-11-08T14:38:10Z</time>
      </trkpt>
      <trkpt lat="45.51384" lon="3.32207">
        <ele>385</ele>
        <time>2012-11-08T14:38:13Z</time>
      </trkpt>
      <trkpt lat="45.51398" lon="3.32226">
        <ele>385</ele>
        <time>2012-11-08T14:38:16Z</time>
      </trkpt>
      <trkpt lat="45.51416" lon="3.32243">
        <ele>386</ele>
        <time>2012-11-08T14:38:19Z</time>
      </trkpt>
      <trkpt lat="45.51437" lon="3.32253">
        <ele>387</ele>
        <time>2012-11-08T14:38:22Z</time>
      </trkpt>
      <trkpt lat="45.51457" lon="3.32262">
        <ele>387</ele>
        <time>2012-11-08T14:38:25Z</time>
      </trkpt>
      <trkpt lat="45.51477" lon="3.32272">
        <ele>387</ele>
        <time>2012-11-08T14:38:28Z</time>
      </trkpt>
      <trkpt lat="45.51495" lon="3.32286">
        <ele>388</ele>
        <time>2012-11-08T14:38:31Z</time>
      </trkpt>
      <trkpt lat="45.51511" lon="3.32303">
        <ele>388</ele>
        <time>2012-11-08T14:38:34Z</time>
      </trkpt>
      <trkpt lat="45.51529" lon="3.32313">
        <ele>388</ele>
        <time>2012-11-08T14:38:37Z</time>
      </trkpt>
      <trkpt lat="45.51549" lon="3.3231">
        <ele>388</ele>
        <time>2012-11-08T14:38:40Z</time>
      </trkpt>
      <trkpt lat="45.51569" lon="3.32308">
        <ele>388</ele>
        <time>2012-11-08T14:38:43Z</time>
      </trkpt>
      <trkpt lat="45.5159" lon="3.32313">
        <ele>387</ele>
        <time>2012-11-08T14:38:46Z</time>
      </trkpt>
      <trkpt lat="45.5161" lon="3.32315">
        <ele>386</ele>
        <time>2012-11-08T14:38:49Z</time>
      </trkpt>
      <trkpt lat="45.51633" lon="3.32317">
        <ele>386</ele>
        <time>2012-11-08T14:38:52Z</time>
      </trkpt>
      <trkpt lat="45.51653" lon="3.32317">
        <ele>386</ele>
        <time>2012-11-08T14:38:55Z</time>
      </trkpt>
      <trkpt lat="45.51674" lon="3.32318">
        <ele>385</ele>
        <time>2012-11-08T14:38:57Z</time>
      </trkpt>
      <trkpt lat="45.51696" lon="3.32326">
        <ele>384</ele>
        <time>2012-11-08T14:39:01Z</time>
      </trkpt>
      <trkpt lat="45.51716" lon="3.32339">
        <ele>385</ele>
        <time>2012-11-08T14:39:04Z</time>
      </trkpt>
      <trkpt lat="45.51734" lon="3.32349">
        <ele>384</ele>
        <time>2012-11-08T14:39:07Z</time>
      </trkpt>
      <trkpt lat="45.51752" lon="3.32362">
        <ele>384</ele>
        <time>2012-11-08T14:39:10Z</time>
      </trkpt>
      <trkpt lat="45.51769" lon="3.32372">
        <ele>384</ele>
        <time>2012-11-08T14:39:13Z</time>
      </trkpt>
      <trkpt lat="45.51786" lon="3.32382">
        <ele>384</ele>
        <time>2012-11-08T14:39:16Z</time>
      </trkpt>
      <trkpt lat="45.51803" lon="3.32389">
        <ele>384</ele>
        <time>2012-11-08T14:39:19Z</time>
      </trkpt>
      <trkpt lat="45.51826" lon="3.32391">
        <ele>384</ele>
        <time>2012-11-08T14:39:23Z</time>
      </trkpt>
      <trkpt lat="45.51847" lon="3.32406">
        <ele>384</ele>
        <time>2012-11-08T14:39:27Z</time>
      </trkpt>
      <trkpt lat="45.51863" lon="3.32427">
        <ele>384</ele>
        <time>2012-11-08T14:39:31Z</time>
      </trkpt>
      <trkpt lat="45.5188" lon="3.32444">
        <ele>384</ele>
        <time>2012-11-08T14:39:35Z</time>
      </trkpt>
      <trkpt lat="45.51895" lon="3.32461">
        <ele>384</ele>
        <time>2012-11-08T14:39:38Z</time>
      </trkpt>
      <trkpt lat="45.5191" lon="3.3248">
        <ele>385</ele>
        <time>2012-11-08T14:39:42Z</time>
      </trkpt>
      <trkpt lat="45.51926" lon="3.325">
        <ele>386</ele>
        <time>2012-11-08T14:39:46Z</time>
      </trkpt>
      <trkpt lat="45.51942" lon="3.3252">
        <ele>386</ele>
        <time>2012-11-08T14:39:49Z</time>
      </trkpt>
      <trkpt lat="45.51956" lon="3.32543">
        <ele>387</ele>
        <time>2012-11-08T14:39:54Z</time>
      </trkpt>
      <trkpt lat="45.5197" lon="3.32566">
        <ele>387</ele>
        <time>2012-11-08T14:39:58Z</time>
      </trkpt>
      <trkpt lat="45.51982" lon="3.32587">
        <ele>389</ele>
        <time>2012-11-08T14:40:02Z</time>
      </trkpt>
      <trkpt lat="45.52002" lon="3.32592">
        <ele>390</ele>
        <time>2012-11-08T14:40:08Z</time>
      </trkpt>
      <trkpt lat="45.5202" lon="3.32585">
        <ele>391</ele>
        <time>2012-11-08T14:40:17Z</time>
      </trkpt>
      <trkpt lat="45.51999" lon="3.32588">
        <ele>389</ele>
        <time>2012-11-08T14:40:44Z</time>
      </trkpt>
      <trkpt lat="45.51981" lon="3.32584">
        <ele>389</ele>
        <time>2012-11-08T14:40:52Z</time>
      </trkpt>
      <trkpt lat="45.51969" lon="3.32564">
        <ele>387</ele>
        <time>2012-11-08T14:40:55Z</time>
      </trkpt>
      <trkpt lat="45.51956" lon="3.32541">
        <ele>387</ele>
        <time>2012-11-08T14:41:00Z</time>
      </trkpt>
      <trkpt lat="45.5194" lon="3.32517">
        <ele>386</ele>
        <time>2012-11-08T14:41:04Z</time>
      </trkpt>
      <trkpt lat="45.51923" lon="3.32495">
        <ele>385</ele>
        <time>2012-11-08T14:41:08Z</time>
      </trkpt>
      <trkpt lat="45.51903" lon="3.32475">
        <ele>384</ele>
        <time>2012-11-08T14:41:12Z</time>
      </trkpt>
      <trkpt lat="45.51889" lon="3.32458">
        <ele>384</ele>
        <time>2012-11-08T14:41:15Z</time>
      </trkpt>
      <trkpt lat="45.51875" lon="3.32442">
        <ele>384</ele>
        <time>2012-11-08T14:41:18Z</time>
      </trkpt>
      <trkpt lat="45.51856" lon="3.3242">
        <ele>384</ele>
        <time>2012-11-08T14:41:22Z</time>
      </trkpt>
      <trkpt lat="45.51844" lon="3.32398">
        <ele>384</ele>
        <time>2012-11-08T14:41:26Z</time>
      </trkpt>
      <trkpt lat="45.51864" lon="3.32384">
        <ele>384</ele>
        <time>2012-11-08T14:41:32Z</time>
      </trkpt>
      <trkpt lat="45.51886" lon="3.32383">
        <ele>384</ele>
        <time>2012-11-08T14:41:36Z</time>
      </trkpt>
      <trkpt lat="45.51906" lon="3.32374">
        <ele>383</ele>
        <time>2012-11-08T14:41:39Z</time>
      </trkpt>
      <trkpt lat="45.51923" lon="3.32361">
        <ele>384</ele>
        <time>2012-11-08T14:41:42Z</time>
      </trkpt>
      <trkpt lat="45.51939" lon="3.32345">
        <ele>383</ele>
        <time>2012-11-08T14:41:45Z</time>
      </trkpt>
      <trkpt lat="45.51955" lon="3.32327">
        <ele>383</ele>
        <time>2012-11-08T14:41:48Z</time>
      </trkpt>
      <trkpt lat="45.51973" lon="3.3231">
        <ele>383</ele>
        <time>2012-11-08T14:41:51Z</time>
      </trkpt>
      <trkpt lat="45.5199" lon="3.32294">
        <ele>383</ele>
        <time>2012-11-08T14:41:53Z</time>
      </trkpt>
      <trkpt lat="45.52007" lon="3.32279">
        <ele>383</ele>
        <time>2012-11-08T14:41:57Z</time>
      </trkpt>
      <trkpt lat="45.52027" lon="3.32266">
        <ele>383</ele>
        <time>2012-11-08T14:42:00Z</time>
      </trkpt>
      <trkpt lat="45.52046" lon="3.32254">
        <ele>383</ele>
        <time>2012-11-08T14:42:03Z</time>
      </trkpt>
      <trkpt lat="45.52068" lon="3.32244">
        <ele>383</ele>
        <time>2012-11-08T14:42:06Z</time>
      </trkpt>
      <trkpt lat="45.52087" lon="3.32234">
        <ele>382</ele>
        <time>2012-11-08T14:42:09Z</time>
      </trkpt>
      <trkpt lat="45.52108" lon="3.32235">
        <ele>382</ele>
        <time>2012-11-08T14:42:12Z</time>
      </trkpt>
      <trkpt lat="45.52127" lon="3.32243">
        <ele>382</ele>
        <time>2012-11-08T14:42:15Z</time>
      </trkpt>
      <trkpt lat="45.52146" lon="3.32244">
        <ele>382</ele>
        <time>2012-11-08T14:42:18Z</time>
      </trkpt>
      <trkpt lat="45.52166" lon="3.32244">
        <ele>383</ele>
        <time>2012-11-08T14:42:21Z</time>
      </trkpt>
      <trkpt lat="45.52185" lon="3.32243">
        <ele>383</ele>
        <time>2012-11-08T14:42:24Z</time>
      </trkpt>
      <trkpt lat="45.52204" lon="3.32244">
        <ele>382</ele>
        <time>2012-11-08T14:42:27Z</time>
      </trkpt>
      <trkpt lat="45.52224" lon="3.32243">
        <ele>382</ele>
        <time>2012-11-08T14:42:30Z</time>
      </trkpt>
      <trkpt lat="45.52243" lon="3.32241">
        <ele>382</ele>
        <time>2012-11-08T14:42:33Z</time>
      </trkpt>
      <trkpt lat="45.5226" lon="3.3223">
        <ele>382</ele>
        <time>2012-11-08T14:42:36Z</time>
      </trkpt>
      <trkpt lat="45.52278" lon="3.32212">
        <ele>383</ele>
        <time>2012-11-08T14:42:40Z</time>
      </trkpt>
      <trkpt lat="45.52297" lon="3.322">
        <ele>383</ele>
        <time>2012-11-08T14:42:44Z</time>
      </trkpt>
      <trkpt lat="45.52315" lon="3.32189">
        <ele>383</ele>
        <time>2012-11-08T14:42:48Z</time>
      </trkpt>
      <trkpt lat="45.52335" lon="3.32177">
        <ele>384</ele>
        <time>2012-11-08T14:42:52Z</time>
      </trkpt>
      <trkpt lat="45.52355" lon="3.32163">
        <ele>384</ele>
        <time>2012-11-08T14:42:56Z</time>
      </trkpt>
      <trkpt lat="45.52374" lon="3.32147">
        <ele>384</ele>
        <time>2012-11-08T14:43:00Z</time>
      </trkpt>
      <trkpt lat="45.52394" lon="3.3213">
        <ele>383</ele>
        <time>2012-11-08T14:43:03Z</time>
      </trkpt>
      <trkpt lat="45.52413" lon="3.32111">
        <ele>383</ele>
        <time>2012-11-08T14:43:08Z</time>
      </trkpt>
      <trkpt lat="45.52433" lon="3.32095">
        <ele>382</ele>
        <time>2012-11-08T14:43:12Z</time>
      </trkpt>
      <trkpt lat="45.52453" lon="3.32078">
        <ele>382</ele>
        <time>2012-11-08T14:43:16Z</time>
      </trkpt>
      <trkpt lat="45.52473" lon="3.32064">
        <ele>381</ele>
        <time>2012-11-08T14:43:20Z</time>
      </trkpt>
      <trkpt lat="45.5249" lon="3.32054">
        <ele>381</ele>
        <time>2012-11-08T14:43:23Z</time>
      </trkpt>
      <trkpt lat="45.52508" lon="3.3205">
        <ele>382</ele>
        <time>2012-11-08T14:43:26Z</time>
      </trkpt>
      <trkpt lat="45.52531" lon="3.32043">
        <ele>382</ele>
        <time>2012-11-08T14:43:30Z</time>
      </trkpt>
      <trkpt lat="45.52555" lon="3.32039">
        <ele>382</ele>
        <time>2012-11-08T14:43:34Z</time>
      </trkpt>
      <trkpt lat="45.52578" lon="3.32034">
        <ele>382</ele>
        <time>2012-11-08T14:43:38Z</time>
      </trkpt>
      <trkpt lat="45.526" lon="3.32027">
        <ele>383</ele>
        <time>2012-11-08T14:43:42Z</time>
      </trkpt>
      <trkpt lat="45.52623" lon="3.32024">
        <ele>383</ele>
        <time>2012-11-08T14:43:46Z</time>
      </trkpt>
      <trkpt lat="45.52642" lon="3.32021">
        <ele>383</ele>
        <time>2012-11-08T14:43:49Z</time>
      </trkpt>
      <trkpt lat="45.5266" lon="3.32015">
        <ele>382</ele>
        <time>2012-11-08T14:43:52Z</time>
      </trkpt>
      <trkpt lat="45.5268" lon="3.32009">
        <ele>381</ele>
        <time>2012-11-08T14:43:55Z</time>
      </trkpt>
      <trkpt lat="45.527" lon="3.32004">
        <ele>381</ele>
        <time>2012-11-08T14:43:58Z</time>
      </trkpt>
      <trkpt lat="45.52719" lon="3.32">
        <ele>380</ele>
        <time>2012-11-08T14:44:01Z</time>
      </trkpt>
      <trkpt lat="45.52738" lon="3.31995">
        <ele>380</ele>
        <time>2012-11-08T14:44:04Z</time>
      </trkpt>
      <trkpt lat="45.52759" lon="3.31988">
        <ele>380</ele>
        <time>2012-11-08T14:44:07Z</time>
      </trkpt>
      <trkpt lat="45.52779" lon="3.31983">
        <ele>380</ele>
        <time>2012-11-08T14:44:10Z</time>
      </trkpt>
      <trkpt lat="45.528" lon="3.31974">
        <ele>380</ele>
        <time>2012-11-08T14:44:13Z</time>
      </trkpt>
      <trkpt lat="45.52818" lon="3.31965">
        <ele>380</ele>
        <time>2012-11-08T14:44:16Z</time>
      </trkpt>
      <trkpt lat="45.52839" lon="3.31957">
        <ele>381</ele>
        <time>2012-11-08T14:44:19Z</time>
      </trkpt>
      <trkpt lat="45.52858" lon="3.31952">
        <ele>381</ele>
        <time>2012-11-08T14:44:22Z</time>
      </trkpt>
      <trkpt lat="45.52879" lon="3.31945">
        <ele>381</ele>
        <time>2012-11-08T14:44:25Z</time>
      </trkpt>
      <trkpt lat="45.52899" lon="3.3194">
        <ele>381</ele>
        <time>2012-11-08T14:44:28Z</time>
      </trkpt>
      <trkpt lat="45.52919" lon="3.31936">
        <ele>380</ele>
        <time>2012-11-08T14:44:31Z</time>
      </trkpt>
      <trkpt lat="45.52939" lon="3.31932">
        <ele>380</ele>
        <time>2012-11-08T14:44:34Z</time>
      </trkpt>
      <trkpt lat="45.5296" lon="3.31926">
        <ele>380</ele>
        <time>2012-11-08T14:44:37Z</time>
      </trkpt>
      <trkpt lat="45.52979" lon="3.31921">
        <ele>380</ele>
        <time>2012-11-08T14:44:40Z</time>
      </trkpt>
      <trkpt lat="45.53" lon="3.31913">
        <ele>379</ele>
        <time>2012-11-08T14:44:43Z</time>
      </trkpt>
      <trkpt lat="45.53021" lon="3.31907">
        <ele>379</ele>
        <time>2012-11-08T14:44:46Z</time>
      </trkpt>
      <trkpt lat="45.53042" lon="3.31903">
        <ele>379</ele>
        <time>2012-11-08T14:44:49Z</time>
      </trkpt>
      <trkpt lat="45.53063" lon="3.31901">
        <ele>379</ele>
        <time>2012-11-08T14:44:52Z</time>
      </trkpt>
      <trkpt lat="45.53085" lon="3.31899">
        <ele>380</ele>
        <time>2012-11-08T14:44:55Z</time>
      </trkpt>
      <trkpt lat="45.53106" lon="3.31897">
        <ele>380</ele>
        <time>2012-11-08T14:44:58Z</time>
      </trkpt>
      <trkpt lat="45.53126" lon="3.31894">
        <ele>380</ele>
        <time>2012-11-08T14:45:01Z</time>
      </trkpt>
      <trkpt lat="45.53144" lon="3.31891">
        <ele>380</ele>
        <time>2012-11-08T14:45:04Z</time>
      </trkpt>
      <trkpt lat="45.53163" lon="3.31891">
        <ele>380</ele>
        <time>2012-11-08T14:45:07Z</time>
      </trkpt>
      <trkpt lat="45.53182" lon="3.31895">
        <ele>380</ele>
        <time>2012-11-08T14:45:10Z</time>
      </trkpt>
      <trkpt lat="45.53201" lon="3.319">
        <ele>380</ele>
        <time>2012-11-08T14:45:13Z</time>
      </trkpt>
      <trkpt lat="45.5322" lon="3.31905">
        <ele>381</ele>
        <time>2012-11-08T14:45:16Z</time>
      </trkpt>
      <trkpt lat="45.53241" lon="3.31908">
        <ele>381</ele>
        <time>2012-11-08T14:45:19Z</time>
      </trkpt>
      <trkpt lat="45.5326" lon="3.31908">
        <ele>381</ele>
        <time>2012-11-08T14:45:22Z</time>
      </trkpt>
      <trkpt lat="45.5328" lon="3.31909">
        <ele>381</ele>
        <time>2012-11-08T14:45:25Z</time>
      </trkpt>
      <trkpt lat="45.53299" lon="3.3191">
        <ele>381</ele>
        <time>2012-11-08T14:45:28Z</time>
      </trkpt>
      <trkpt lat="45.53319" lon="3.31911">
        <ele>381</ele>
        <time>2012-11-08T14:45:31Z</time>
      </trkpt>
      <trkpt lat="45.53339" lon="3.31909">
        <ele>381</ele>
        <time>2012-11-08T14:45:34Z</time>
      </trkpt>
      <trkpt lat="45.53358" lon="3.31906">
        <ele>382</ele>
        <time>2012-11-08T14:45:37Z</time>
      </trkpt>
      <trkpt lat="45.53376" lon="3.319">
        <ele>382</ele>
        <time>2012-11-08T14:45:40Z</time>
      </trkpt>
      <trkpt lat="45.53395" lon="3.31894">
        <ele>382</ele>
        <time>2012-11-08T14:45:43Z</time>
      </trkpt>
      <trkpt lat="45.53414" lon="3.3189">
        <ele>382</ele>
        <time>2012-11-08T14:45:46Z</time>
      </trkpt>
      <trkpt lat="45.53433" lon="3.31884">
        <ele>383</ele>
        <time>2012-11-08T14:45:49Z</time>
      </trkpt>
      <trkpt lat="45.53451" lon="3.31876">
        <ele>383</ele>
        <time>2012-11-08T14:45:52Z</time>
      </trkpt>
      <trkpt lat="45.53469" lon="3.31869">
        <ele>383</ele>
        <time>2012-11-08T14:45:55Z</time>
      </trkpt>
      <trkpt lat="45.53492" lon="3.31865">
        <ele>383</ele>
        <time>2012-11-08T14:45:59Z</time>
      </trkpt>
      <trkpt lat="45.53511" lon="3.31859">
        <ele>384</ele>
        <time>2012-11-08T14:46:02Z</time>
      </trkpt>
      <trkpt lat="45.53529" lon="3.31852">
        <ele>384</ele>
        <time>2012-11-08T14:46:05Z</time>
      </trkpt>
      <trkpt lat="45.53547" lon="3.31848">
        <ele>384</ele>
        <time>2012-11-08T14:46:08Z</time>
      </trkpt>
      <trkpt lat="45.53566" lon="3.31842">
        <ele>384</ele>
        <time>2012-11-08T14:46:11Z</time>
      </trkpt>
      <trkpt lat="45.53585" lon="3.31835">
        <ele>383</ele>
        <time>2012-11-08T14:46:14Z</time>
      </trkpt>
      <trkpt lat="45.53603" lon="3.31829">
        <ele>383</ele>
        <time>2012-11-08T14:46:17Z</time>
      </trkpt>
      <trkpt lat="45.53622" lon="3.31826">
        <ele>383</ele>
        <time>2012-11-08T14:46:20Z</time>
      </trkpt>
      <trkpt lat="45.53642" lon="3.31825">
        <ele>383</ele>
        <time>2012-11-08T14:46:23Z</time>
      </trkpt>
      <trkpt lat="45.53663" lon="3.31823">
        <ele>383</ele>
        <time>2012-11-08T14:46:26Z</time>
      </trkpt>
      <trkpt lat="45.53684" lon="3.31821">
        <ele>383</ele>
        <time>2012-11-08T14:46:29Z</time>
      </trkpt>
      <trkpt lat="45.53704" lon="3.3182">
        <ele>383</ele>
        <time>2012-11-08T14:46:32Z</time>
      </trkpt>
      <trkpt lat="45.53724" lon="3.31816">
        <ele>383</ele>
        <time>2012-11-08T14:46:35Z</time>
      </trkpt>
      <trkpt lat="45.53744" lon="3.31813">
        <ele>383</ele>
        <time>2012-11-08T14:46:38Z</time>
      </trkpt>
      <trkpt lat="45.53765" lon="3.31809">
        <ele>383</ele>
        <time>2012-11-08T14:46:41Z</time>
      </trkpt>
      <trkpt lat="45.53786" lon="3.31804">
        <ele>383</ele>
        <time>2012-11-08T14:46:44Z</time>
      </trkpt>
      <trkpt lat="45.53807" lon="3.31797">
        <ele>383</ele>
        <time>2012-11-08T14:46:47Z</time>
      </trkpt>
      <trkpt lat="45.53827" lon="3.31788">
        <ele>383</ele>
        <time>2012-11-08T14:46:50Z</time>
      </trkpt>
      <trkpt lat="45.53847" lon="3.3178">
        <ele>383</ele>
        <time>2012-11-08T14:46:53Z</time>
      </trkpt>
      <trkpt lat="45.53868" lon="3.31773">
        <ele>383</ele>
        <time>2012-11-08T14:46:56Z</time>
      </trkpt>
      <trkpt lat="45.53889" lon="3.31766">
        <ele>383</ele>
        <time>2012-11-08T14:46:59Z</time>
      </trkpt>
      <trkpt lat="45.5391" lon="3.31757">
        <ele>382</ele>
        <time>2012-11-08T14:47:02Z</time>
      </trkpt>
      <trkpt lat="45.5393" lon="3.3175">
        <ele>383</ele>
        <time>2012-11-08T14:47:05Z</time>
      </trkpt>
      <trkpt lat="45.53952" lon="3.31742">
        <ele>382</ele>
        <time>2012-11-08T14:47:08Z</time>
      </trkpt>
      <trkpt lat="45.53972" lon="3.31733">
        <ele>382</ele>
        <time>2012-11-08T14:47:11Z</time>
      </trkpt>
      <trkpt lat="45.53991" lon="3.31728">
        <ele>382</ele>
        <time>2012-11-08T14:47:14Z</time>
      </trkpt>
      <trkpt lat="45.54009" lon="3.31726">
        <ele>382</ele>
        <time>2012-11-08T14:47:17Z</time>
      </trkpt>
      <trkpt lat="45.5403" lon="3.31721">
        <ele>382</ele>
        <time>2012-11-08T14:47:21Z</time>
      </trkpt>
      <trkpt lat="45.54051" lon="3.31713">
        <ele>382</ele>
        <time>2012-11-08T14:47:26Z</time>
      </trkpt>
      <trkpt lat="45.54072" lon="3.31703">
        <ele>382</ele>
        <time>2012-11-08T14:47:30Z</time>
      </trkpt>
      <trkpt lat="45.54092" lon="3.31694">
        <ele>382</ele>
        <time>2012-11-08T14:47:34Z</time>
      </trkpt>
      <trkpt lat="45.5411" lon="3.31686">
        <ele>382</ele>
        <time>2012-11-08T14:47:37Z</time>
      </trkpt>
      <trkpt lat="45.54127" lon="3.31676">
        <ele>381</ele>
        <time>2012-11-08T14:47:40Z</time>
      </trkpt>
      <trkpt lat="45.54143" lon="3.31662">
        <ele>381</ele>
        <time>2012-11-08T14:47:43Z</time>
      </trkpt>
      <trkpt lat="45.5416" lon="3.31649">
        <ele>381</ele>
        <time>2012-11-08T14:47:46Z</time>
      </trkpt>
      <trkpt lat="45.54175" lon="3.31635">
        <ele>381</ele>
        <time>2012-11-08T14:47:49Z</time>
      </trkpt>
      <trkpt lat="45.54195" lon="3.31616">
        <ele>381</ele>
        <time>2012-11-08T14:47:53Z</time>
      </trkpt>
      <trkpt lat="45.54208" lon="3.31597">
        <ele>381</ele>
        <time>2012-11-08T14:47:56Z</time>
      </trkpt>
      <trkpt lat="45.54223" lon="3.31574">
        <ele>381</ele>
        <time>2012-11-08T14:48:00Z</time>
      </trkpt>
      <trkpt lat="45.54218" lon="3.31545">
        <ele>381</ele>
        <time>2012-11-08T14:48:04Z</time>
      </trkpt>
      <trkpt lat="45.54216" lon="3.31512">
        <ele>380</ele>
        <time>2012-11-08T14:48:08Z</time>
      </trkpt>
      <trkpt lat="45.54215" lon="3.31484">
        <ele>380</ele>
        <time>2012-11-08T14:48:11Z</time>
      </trkpt>
      <trkpt lat="45.54214" lon="3.31456">
        <ele>380</ele>
        <time>2012-11-08T14:48:14Z</time>
      </trkpt>
      <trkpt lat="45.54218" lon="3.31426">
        <ele>380</ele>
        <time>2012-11-08T14:48:17Z</time>
      </trkpt>
      <trkpt lat="45.54223" lon="3.31395">
        <ele>379</ele>
        <time>2012-11-08T14:48:19Z</time>
      </trkpt>
      <trkpt lat="45.54227" lon="3.31368">
        <ele>379</ele>
        <time>2012-11-08T14:48:23Z</time>
      </trkpt>
      <trkpt lat="45.54229" lon="3.31337">
        <ele>379</ele>
        <time>2012-11-08T14:48:26Z</time>
      </trkpt>
      <trkpt lat="45.54231" lon="3.31308">
        <ele>379</ele>
        <time>2012-11-08T14:48:29Z</time>
      </trkpt>
      <trkpt lat="45.54232" lon="3.31278">
        <ele>379</ele>
        <time>2012-11-08T14:48:32Z</time>
      </trkpt>
      <trkpt lat="45.54235" lon="3.31251">
        <ele>380</ele>
        <time>2012-11-08T14:48:35Z</time>
      </trkpt>
      <trkpt lat="45.54234" lon="3.31221">
        <ele>379</ele>
        <time>2012-11-08T14:48:38Z</time>
      </trkpt>
      <trkpt lat="45.54229" lon="3.31193">
        <ele>379</ele>
        <time>2012-11-08T14:48:41Z</time>
      </trkpt>
      <trkpt lat="45.54226" lon="3.31165">
        <ele>379</ele>
        <time>2012-11-08T14:48:44Z</time>
      </trkpt>
      <trkpt lat="45.54225" lon="3.31136">
        <ele>378</ele>
        <time>2012-11-08T14:48:47Z</time>
      </trkpt>
      <trkpt lat="45.54225" lon="3.31107">
        <ele>378</ele>
        <time>2012-11-08T14:48:49Z</time>
      </trkpt>
      <trkpt lat="45.54226" lon="3.31078">
        <ele>378</ele>
        <time>2012-11-08T14:48:53Z</time>
      </trkpt>
      <trkpt lat="45.54228" lon="3.31051">
        <ele>378</ele>
        <time>2012-11-08T14:48:56Z</time>
      </trkpt>
      <trkpt lat="45.54235" lon="3.31027">
        <ele>379</ele>
        <time>2012-11-08T14:48:58Z</time>
      </trkpt>
      <trkpt lat="45.54243" lon="3.30996">
        <ele>379</ele>
        <time>2012-11-08T14:49:03Z</time>
      </trkpt>
      <trkpt lat="45.54232" lon="3.30974">
        <ele>378</ele>
        <time>2012-11-08T14:49:10Z</time>
      </trkpt>
      <trkpt lat="45.54225" lon="3.3095">
        <ele>378</ele>
        <time>2012-11-08T14:49:14Z</time>
      </trkpt>
      <trkpt lat="45.54216" lon="3.30925">
        <ele>378</ele>
        <time>2012-11-08T14:49:17Z</time>
      </trkpt>
      <trkpt lat="45.54214" lon="3.30894">
        <ele>377</ele>
        <time>2012-11-08T14:49:20Z</time>
      </trkpt>
      <trkpt lat="45.54215" lon="3.30866">
        <ele>377</ele>
        <time>2012-11-08T14:49:23Z</time>
      </trkpt>
      <trkpt lat="45.54207" lon="3.30841">
        <ele>377</ele>
        <time>2012-11-08T14:49:26Z</time>
      </trkpt>
      <trkpt lat="45.54188" lon="3.30818">
        <ele>376</ele>
        <time>2012-11-08T14:49:30Z</time>
      </trkpt>
      <trkpt lat="45.54172" lon="3.30802">
        <ele>376</ele>
        <time>2012-11-08T14:49:33Z</time>
      </trkpt>
      <trkpt lat="45.54157" lon="3.30787">
        <ele>376</ele>
        <time>2012-11-08T14:49:36Z</time>
      </trkpt>
      <trkpt lat="45.5414" lon="3.30772">
        <ele>376</ele>
        <time>2012-11-08T14:49:39Z</time>
      </trkpt>
      <trkpt lat="45.54121" lon="3.3077">
        <ele>376</ele>
        <time>2012-11-08T14:49:42Z</time>
      </trkpt>
      <trkpt lat="45.54098" lon="3.30767">
        <ele>377</ele>
        <time>2012-11-08T14:49:46Z</time>
      </trkpt>
      <trkpt lat="45.5408" lon="3.30751">
        <ele>377</ele>
        <time>2012-11-08T14:49:50Z</time>
      </trkpt>
      <trkpt lat="45.54065" lon="3.30734">
        <ele>377</ele>
        <time>2012-11-08T14:49:54Z</time>
      </trkpt>
      <trkpt lat="45.5406" lon="3.30703">
        <ele>376</ele>
        <time>2012-11-08T14:49:58Z</time>
      </trkpt>
      <trkpt lat="45.54066" lon="3.3067">
        <ele>376</ele>
        <time>2012-11-08T14:50:02Z</time>
      </trkpt>
      <trkpt lat="45.54065" lon="3.30638">
        <ele>375</ele>
        <time>2012-11-08T14:50:06Z</time>
      </trkpt>
      <trkpt lat="45.54056" lon="3.30612">
        <ele>375</ele>
        <time>2012-11-08T14:50:09Z</time>
      </trkpt>
      <trkpt lat="45.54048" lon="3.30585">
        <ele>374</ele>
        <time>2012-11-08T14:50:13Z</time>
      </trkpt>
      <trkpt lat="45.54045" lon="3.30558">
        <ele>374</ele>
        <time>2012-11-08T14:50:17Z</time>
      </trkpt>
      <trkpt lat="45.54044" lon="3.3053">
        <ele>374</ele>
        <time>2012-11-08T14:50:21Z</time>
      </trkpt>
      <trkpt lat="45.54041" lon="3.30501">
        <ele>374</ele>
        <time>2012-11-08T14:50:26Z</time>
      </trkpt>
      <trkpt lat="45.54029" lon="3.3048">
        <ele>375</ele>
        <time>2012-11-08T14:50:30Z</time>
      </trkpt>
      <trkpt lat="45.54016" lon="3.30455">
        <ele>375</ele>
        <time>2012-11-08T14:50:35Z</time>
      </trkpt>
      <trkpt lat="45.54009" lon="3.30429">
        <ele>375</ele>
        <time>2012-11-08T14:50:40Z</time>
      </trkpt>
      <trkpt lat="45.54002" lon="3.30403">
        <ele>376</ele>
        <time>2012-11-08T14:50:45Z</time>
      </trkpt>
      <trkpt lat="45.53998" lon="3.30375">
        <ele>376</ele>
        <time>2012-11-08T14:50:50Z</time>
      </trkpt>
      <trkpt lat="45.53993" lon="3.3035">
        <ele>375</ele>
        <time>2012-11-08T14:51:12Z</time>
      </trkpt>
      <trkpt lat="45.5399" lon="3.30323">
        <ele>375</ele>
        <time>2012-11-08T14:51:21Z</time>
      </trkpt>
      <trkpt lat="45.53988" lon="3.30295">
        <ele>375</ele>
        <time>2012-11-08T14:51:28Z</time>
      </trkpt>
      <trkpt lat="45.53988" lon="3.30269">
        <ele>375</ele>
        <time>2012-11-08T14:51:33Z</time>
      </trkpt>
      <trkpt lat="45.53994" lon="3.30242">
        <ele>375</ele>
        <time>2012-11-08T14:51:39Z</time>
      </trkpt>
      <trkpt lat="45.54008" lon="3.3022">
        <ele>378</ele>
        <time>2012-11-08T14:51:45Z</time>
      </trkpt>
      <trkpt lat="45.54021" lon="3.30201">
        <ele>379</ele>
        <time>2012-11-08T14:51:51Z</time>
      </trkpt>
      <trkpt lat="45.54026" lon="3.30173">
        <ele>379</ele>
        <time>2012-11-08T14:51:57Z</time>
      </trkpt>
      <trkpt lat="45.54029" lon="3.30146">
        <ele>382</ele>
        <time>2012-11-08T14:52:05Z</time>
      </trkpt>
      <trkpt lat="45.54032" lon="3.30118">
        <ele>382</ele>
        <time>2012-11-08T14:52:14Z</time>
      </trkpt>
      <trkpt lat="45.54027" lon="3.30092">
        <ele>383</ele>
        <time>2012-11-08T14:52:22Z</time>
      </trkpt>
      <trkpt lat="45.54017" lon="3.30068">
        <ele>385</ele>
        <time>2012-11-08T14:52:30Z</time>
      </trkpt>
      <trkpt lat="45.54005" lon="3.30044">
        <ele>385</ele>
        <time>2012-11-08T14:52:36Z</time>
      </trkpt>
      <trkpt lat="45.53994" lon="3.30023">
        <ele>384</ele>
        <time>2012-11-08T14:52:41Z</time>
      </trkpt>
      <trkpt lat="45.53983" lon="3.30003">
        <ele>384</ele>
        <time>2012-11-08T14:52:46Z</time>
      </trkpt>
      <trkpt lat="45.53972" lon="3.29979">
        <ele>385</ele>
        <time>2012-11-08T14:52:51Z</time>
      </trkpt>
      <trkpt lat="45.53959" lon="3.29955">
        <ele>385</ele>
        <time>2012-11-08T14:52:56Z</time>
      </trkpt>
      <trkpt lat="45.53946" lon="3.29928">
        <ele>385</ele>
        <time>2012-11-08T14:53:01Z</time>
      </trkpt>
      <trkpt lat="45.53931" lon="3.29903">
        <ele>385</ele>
        <time>2012-11-08T14:53:05Z</time>
      </trkpt>
      <trkpt lat="45.53921" lon="3.29881">
        <ele>386</ele>
        <time>2012-11-08T14:53:08Z</time>
      </trkpt>
      <trkpt lat="45.5391" lon="3.29859">
        <ele>382</ele>
        <time>2012-11-08T14:53:11Z</time>
      </trkpt>
      <trkpt lat="45.539" lon="3.29836">
        <ele>383</ele>
        <time>2012-11-08T14:53:14Z</time>
      </trkpt>
      <trkpt lat="45.53888" lon="3.29815">
        <ele>383</ele>
        <time>2012-11-08T14:53:17Z</time>
      </trkpt>
      <trkpt lat="45.53875" lon="3.29789">
        <ele>383</ele>
        <time>2012-11-08T14:53:21Z</time>
      </trkpt>
      <trkpt lat="45.53862" lon="3.29763">
        <ele>383</ele>
        <time>2012-11-08T14:53:25Z</time>
      </trkpt>
      <trkpt lat="45.53845" lon="3.29741">
        <ele>384</ele>
        <time>2012-11-08T14:53:29Z</time>
      </trkpt>
      <trkpt lat="45.53825" lon="3.29748">
        <ele>381</ele>
        <time>2012-11-08T14:53:32Z</time>
      </trkpt>
      <trkpt lat="45.5381" lon="3.29776">
        <ele>378</ele>
        <time>2012-11-08T14:53:35Z</time>
      </trkpt>
      <trkpt lat="45.53793" lon="3.29804">
        <ele>376</ele>
        <time>2012-11-08T14:53:38Z</time>
      </trkpt>
      <trkpt lat="45.53779" lon="3.29825">
        <ele>375</ele>
        <time>2012-11-08T14:53:40Z</time>
      </trkpt>
      <trkpt lat="45.53764" lon="3.29845">
        <ele>373</ele>
        <time>2012-11-08T14:53:42Z</time>
      </trkpt>
      <trkpt lat="45.53749" lon="3.29862">
        <ele>373</ele>
        <time>2012-11-08T14:53:44Z</time>
      </trkpt>
      <trkpt lat="45.53726" lon="3.29881">
        <ele>373</ele>
        <time>2012-11-08T14:53:47Z</time>
      </trkpt>
      <trkpt lat="45.53704" lon="3.29888">
        <ele>373</ele>
        <time>2012-11-08T14:53:50Z</time>
      </trkpt>
      <trkpt lat="45.53684" lon="3.2989">
        <ele>373</ele>
        <time>2012-11-08T14:53:53Z</time>
      </trkpt>
      <trkpt lat="45.53665" lon="3.29894">
        <ele>374</ele>
        <time>2012-11-08T14:53:56Z</time>
      </trkpt>
      <trkpt lat="45.53647" lon="3.29897">
        <ele>374</ele>
        <time>2012-11-08T14:53:59Z</time>
      </trkpt>
      <trkpt lat="45.53627" lon="3.29897">
        <ele>374</ele>
        <time>2012-11-08T14:54:02Z</time>
      </trkpt>
      <trkpt lat="45.53604" lon="3.29895">
        <ele>374</ele>
        <time>2012-11-08T14:54:06Z</time>
      </trkpt>
      <trkpt lat="45.53586" lon="3.29892">
        <ele>374</ele>
        <time>2012-11-08T14:54:09Z</time>
      </trkpt>
      <trkpt lat="45.53569" lon="3.29879">
        <ele>375</ele>
        <time>2012-11-08T14:54:12Z</time>
      </trkpt>
      <trkpt lat="45.53554" lon="3.29854">
        <ele>375</ele>
        <time>2012-11-08T14:54:15Z</time>
      </trkpt>
      <trkpt lat="45.53538" lon="3.29832">
        <ele>375</ele>
        <time>2012-11-08T14:54:18Z</time>
      </trkpt>
      <trkpt lat="45.53522" lon="3.29811">
        <ele>375</ele>
        <time>2012-11-08T14:54:21Z</time>
      </trkpt>
      <trkpt lat="45.53506" lon="3.29792">
        <ele>375</ele>
        <time>2012-11-08T14:54:24Z</time>
      </trkpt>
      <trkpt lat="45.53493" lon="3.29769">
        <ele>374</ele>
        <time>2012-11-08T14:54:27Z</time>
      </trkpt>
      <trkpt lat="45.53489" lon="3.29736">
        <ele>374</ele>
        <time>2012-11-08T14:54:31Z</time>
      </trkpt>
      <trkpt lat="45.53494" lon="3.29711">
        <ele>373</ele>
        <time>2012-11-08T14:54:34Z</time>
      </trkpt>
      <trkpt lat="45.535" lon="3.2968">
        <ele>373</ele>
        <time>2012-11-08T14:54:38Z</time>
      </trkpt>
      <trkpt lat="45.53504" lon="3.29649">
        <ele>373</ele>
        <time>2012-11-08T14:54:42Z</time>
      </trkpt>
      <trkpt lat="45.53508" lon="3.29614">
        <ele>372</ele>
        <time>2012-11-08T14:54:46Z</time>
      </trkpt>
      <trkpt lat="45.53512" lon="3.29588">
        <ele>372</ele>
        <time>2012-11-08T14:54:49Z</time>
      </trkpt>
      <trkpt lat="45.53516" lon="3.2956">
        <ele>372</ele>
        <time>2012-11-08T14:54:52Z</time>
      </trkpt>
      <trkpt lat="45.5352" lon="3.29531">
        <ele>372</ele>
        <time>2012-11-08T14:54:55Z</time>
      </trkpt>
      <trkpt lat="45.53527" lon="3.295">
        <ele>372</ele>
        <time>2012-11-08T14:54:58Z</time>
      </trkpt>
      <trkpt lat="45.53531" lon="3.29469">
        <ele>372</ele>
        <time>2012-11-08T14:55:01Z</time>
      </trkpt>
      <trkpt lat="45.53535" lon="3.2944">
        <ele>373</ele>
        <time>2012-11-08T14:55:04Z</time>
      </trkpt>
      <trkpt lat="45.53535" lon="3.29408">
        <ele>374</ele>
        <time>2012-11-08T14:55:07Z</time>
      </trkpt>
      <trkpt lat="45.53528" lon="3.29384">
        <ele>374</ele>
        <time>2012-11-08T14:55:10Z</time>
      </trkpt>
      <trkpt lat="45.53512" lon="3.29362">
        <ele>375</ele>
        <time>2012-11-08T14:55:13Z</time>
      </trkpt>
      <trkpt lat="45.53496" lon="3.29343">
        <ele>377</ele>
        <time>2012-11-08T14:55:16Z</time>
      </trkpt>
      <trkpt lat="45.53479" lon="3.29326">
        <ele>377</ele>
        <time>2012-11-08T14:55:19Z</time>
      </trkpt>
      <trkpt lat="45.53466" lon="3.29306">
        <ele>377</ele>
        <time>2012-11-08T14:55:22Z</time>
      </trkpt>
      <trkpt lat="45.53469" lon="3.29277">
        <ele>377</ele>
        <time>2012-11-08T14:55:25Z</time>
      </trkpt>
      <trkpt lat="45.53481" lon="3.29251">
        <ele>377</ele>
        <time>2012-11-08T14:55:28Z</time>
      </trkpt>
      <trkpt lat="45.53487" lon="3.29224">
        <ele>375</ele>
        <time>2012-11-08T14:55:31Z</time>
      </trkpt>
      <trkpt lat="45.53493" lon="3.29193">
        <ele>375</ele>
        <time>2012-11-08T14:55:34Z</time>
      </trkpt>
      <trkpt lat="45.53494" lon="3.29162">
        <ele>375</ele>
        <time>2012-11-08T14:55:37Z</time>
      </trkpt>
      <trkpt lat="45.53499" lon="3.2913">
        <ele>374</ele>
        <time>2012-11-08T14:55:40Z</time>
      </trkpt>
      <trkpt lat="45.53501" lon="3.291">
        <ele>374</ele>
        <time>2012-11-08T14:55:43Z</time>
      </trkpt>
      <trkpt lat="45.53493" lon="3.29072">
        <ele>374</ele>
        <time>2012-11-08T14:55:46Z</time>
      </trkpt>
      <trkpt lat="45.53483" lon="3.29049">
        <ele>374</ele>
        <time>2012-11-08T14:55:49Z</time>
      </trkpt>
      <trkpt lat="45.53484" lon="3.29019">
        <ele>374</ele>
        <time>2012-11-08T14:55:52Z</time>
      </trkpt>
      <trkpt lat="45.53493" lon="3.28996">
        <ele>373</ele>
        <time>2012-11-08T14:55:57Z</time>
      </trkpt>
      <trkpt lat="45.53513" lon="3.28989">
        <ele>373</ele>
        <time>2012-11-08T14:56:01Z</time>
      </trkpt>
      <trkpt lat="45.53528" lon="3.28975">
        <ele>372</ele>
        <time>2012-11-08T14:56:04Z</time>
      </trkpt>
      <trkpt lat="45.53543" lon="3.28961">
        <ele>372</ele>
        <time>2012-11-08T14:56:07Z</time>
      </trkpt>
      <trkpt lat="45.53563" lon="3.28959">
        <ele>372</ele>
        <time>2012-11-08T14:56:10Z</time>
      </trkpt>
      <trkpt lat="45.53583" lon="3.28956">
        <ele>372</ele>
        <time>2012-11-08T14:56:13Z</time>
      </trkpt>
      <trkpt lat="45.53605" lon="3.28956">
        <ele>373</ele>
        <time>2012-11-08T14:56:16Z</time>
      </trkpt>
      <trkpt lat="45.53627" lon="3.28957">
        <ele>373</ele>
        <time>2012-11-08T14:56:19Z</time>
      </trkpt>
      <trkpt lat="45.53648" lon="3.28959">
        <ele>373</ele>
        <time>2012-11-08T14:56:22Z</time>
      </trkpt>
      <trkpt lat="45.53668" lon="3.28961">
        <ele>375</ele>
        <time>2012-11-08T14:56:25Z</time>
      </trkpt>
      <trkpt lat="45.5369" lon="3.28965">
        <ele>375</ele>
        <time>2012-11-08T14:56:28Z</time>
      </trkpt>
      <trkpt lat="45.53713" lon="3.28961">
        <ele>376</ele>
        <time>2012-11-08T14:56:32Z</time>
      </trkpt>
      <trkpt lat="45.53725" lon="3.28938">
        <ele>376</ele>
        <time>2012-11-08T14:56:36Z</time>
      </trkpt>
      <trkpt lat="45.53728" lon="3.28909">
        <ele>374</ele>
        <time>2012-11-08T14:56:41Z</time>
      </trkpt>
      <trkpt lat="45.53729" lon="3.28883">
        <ele>373</ele>
        <time>2012-11-08T14:56:46Z</time>
      </trkpt>
      <trkpt lat="45.53726" lon="3.28854">
        <ele>373</ele>
        <time>2012-11-08T14:56:49Z</time>
      </trkpt>
      <trkpt lat="45.53726" lon="3.28826">
        <ele>371</ele>
        <time>2012-11-08T14:56:52Z</time>
      </trkpt>
      <trkpt lat="45.53731" lon="3.28798">
        <ele>371</ele>
        <time>2012-11-08T14:56:55Z</time>
      </trkpt>
      <trkpt lat="45.53737" lon="3.28771">
        <ele>371</ele>
        <time>2012-11-08T14:56:58Z</time>
      </trkpt>
      <trkpt lat="45.53746" lon="3.28748">
        <ele>371</ele>
        <time>2012-11-08T14:57:01Z</time>
      </trkpt>
      <trkpt lat="45.53752" lon="3.28713">
        <ele>372</ele>
        <time>2012-11-08T14:57:05Z</time>
      </trkpt>
      <trkpt lat="45.53758" lon="3.28687">
        <ele>372</ele>
        <time>2012-11-08T14:57:08Z</time>
      </trkpt>
      <trkpt lat="45.53761" lon="3.28661">
        <ele>372</ele>
        <time>2012-11-08T14:57:11Z</time>
      </trkpt>
      <trkpt lat="45.53769" lon="3.28634">
        <ele>371</ele>
        <time>2012-11-08T14:57:14Z</time>
      </trkpt>
      <trkpt lat="45.53779" lon="3.28608">
        <ele>371</ele>
        <time>2012-11-08T14:57:17Z</time>
      </trkpt>
      <trkpt lat="45.5379" lon="3.28583">
        <ele>370</ele>
        <time>2012-11-08T14:57:20Z</time>
      </trkpt>
      <trkpt lat="45.53801" lon="3.28559">
        <ele>370</ele>
        <time>2012-11-08T14:57:23Z</time>
      </trkpt>
      <trkpt lat="45.53813" lon="3.28536">
        <ele>370</ele>
        <time>2012-11-08T14:57:26Z</time>
      </trkpt>
      <trkpt lat="45.53829" lon="3.28519">
        <ele>370</ele>
        <time>2012-11-08T14:57:29Z</time>
      </trkpt>
      <trkpt lat="45.53844" lon="3.285">
        <ele>372</ele>
        <time>2012-11-08T14:57:32Z</time>
      </trkpt>
      <trkpt lat="45.53859" lon="3.28484">
        <ele>372</ele>
        <time>2012-11-08T14:57:35Z</time>
      </trkpt>
      <trkpt lat="45.53876" lon="3.2847">
        <ele>373</ele>
        <time>2012-11-08T14:57:38Z</time>
      </trkpt>
      <trkpt lat="45.53897" lon="3.28454">
        <ele>373</ele>
        <time>2012-11-08T14:57:42Z</time>
      </trkpt>
      <trkpt lat="45.53914" lon="3.28441">
        <ele>372</ele>
        <time>2012-11-08T14:57:45Z</time>
      </trkpt>
      <trkpt lat="45.53929" lon="3.28425">
        <ele>375</ele>
        <time>2012-11-08T14:57:48Z</time>
      </trkpt>
      <trkpt lat="45.53942" lon="3.28406">
        <ele>373</ele>
        <time>2012-11-08T14:57:51Z</time>
      </trkpt>
      <trkpt lat="45.53952" lon="3.28384">
        <ele>373</ele>
        <time>2012-11-08T14:57:54Z</time>
      </trkpt>
      <trkpt lat="45.53961" lon="3.28359">
        <ele>372</ele>
        <time>2012-11-08T14:57:57Z</time>
      </trkpt>
      <trkpt lat="45.5397" lon="3.28334">
        <ele>372</ele>
        <time>2012-11-08T14:58:00Z</time>
      </trkpt>
      <trkpt lat="45.53976" lon="3.28309">
        <ele>370</ele>
        <time>2012-11-08T14:58:03Z</time>
      </trkpt>
      <trkpt lat="45.53984" lon="3.28282">
        <ele>369</ele>
        <time>2012-11-08T14:58:06Z</time>
      </trkpt>
      <trkpt lat="45.53994" lon="3.28257">
        <ele>369</ele>
        <time>2012-11-08T14:58:09Z</time>
      </trkpt>
      <trkpt lat="45.54" lon="3.2823">
        <ele>368</ele>
        <time>2012-11-08T14:58:12Z</time>
      </trkpt>
      <trkpt lat="45.53997" lon="3.28205">
        <ele>368</ele>
        <time>2012-11-08T14:58:15Z</time>
      </trkpt>
      <trkpt lat="45.53995" lon="3.28178">
        <ele>368</ele>
        <time>2012-11-08T14:58:18Z</time>
      </trkpt>
      <trkpt lat="45.53993" lon="3.28146">
        <ele>368</ele>
        <time>2012-11-08T14:58:22Z</time>
      </trkpt>
      <trkpt lat="45.53991" lon="3.28119">
        <ele>368</ele>
        <time>2012-11-08T14:58:25Z</time>
      </trkpt>
      <trkpt lat="45.53988" lon="3.28087">
        <ele>368</ele>
        <time>2012-11-08T14:58:29Z</time>
      </trkpt>
      <trkpt lat="45.53988" lon="3.28059">
        <ele>369</ele>
        <time>2012-11-08T14:58:34Z</time>
      </trkpt>
      <trkpt lat="45.54001" lon="3.28037">
        <ele>369</ele>
        <time>2012-11-08T14:58:39Z</time>
      </trkpt>
      <trkpt lat="45.54017" lon="3.2802">
        <ele>369</ele>
        <time>2012-11-08T14:58:43Z</time>
      </trkpt>
      <trkpt lat="45.54037" lon="3.28002">
        <ele>370</ele>
        <time>2012-11-08T14:58:47Z</time>
      </trkpt>
      <trkpt lat="45.54056" lon="3.27984">
        <ele>370</ele>
        <time>2012-11-08T14:58:51Z</time>
      </trkpt>
      <trkpt lat="45.54075" lon="3.27967">
        <ele>370</ele>
        <time>2012-11-08T14:58:55Z</time>
      </trkpt>
      <trkpt lat="45.5409" lon="3.27953">
        <ele>374</ele>
        <time>2012-11-08T14:58:58Z</time>
      </trkpt>
      <trkpt lat="45.54109" lon="3.27935">
        <ele>374</ele>
        <time>2012-11-08T14:59:02Z</time>
      </trkpt>
      <trkpt lat="45.54128" lon="3.27916">
        <ele>375</ele>
        <time>2012-11-08T14:59:06Z</time>
      </trkpt>
      <trkpt lat="45.54144" lon="3.27901">
        <ele>376</ele>
        <time>2012-11-08T14:59:09Z</time>
      </trkpt>
      <trkpt lat="45.5416" lon="3.27884">
        <ele>376</ele>
        <time>2012-11-08T14:59:12Z</time>
      </trkpt>
      <trkpt lat="45.54177" lon="3.27868">
        <ele>383</ele>
        <time>2012-11-08T14:59:15Z</time>
      </trkpt>
      <trkpt lat="45.54193" lon="3.27848">
        <ele>382</ele>
        <time>2012-11-08T14:59:18Z</time>
      </trkpt>
      <trkpt lat="45.54209" lon="3.27821">
        <ele>376</ele>
        <time>2012-11-08T14:59:21Z</time>
      </trkpt>
      <trkpt lat="45.54225" lon="3.27796">
        <ele>376</ele>
        <time>2012-11-08T14:59:24Z</time>
      </trkpt>
      <trkpt lat="45.5424" lon="3.27773">
        <ele>374</ele>
        <time>2012-11-08T14:59:27Z</time>
      </trkpt>
      <trkpt lat="45.54251" lon="3.27747">
        <ele>371</ele>
        <time>2012-11-08T14:59:30Z</time>
      </trkpt>
      <trkpt lat="45.54261" lon="3.2772">
        <ele>371</ele>
        <time>2012-11-08T14:59:33Z</time>
      </trkpt>
      <trkpt lat="45.5427" lon="3.27695">
        <ele>371</ele>
        <time>2012-11-08T14:59:36Z</time>
      </trkpt>
      <trkpt lat="45.54278" lon="3.27668">
        <ele>370</ele>
        <time>2012-11-08T14:59:39Z</time>
      </trkpt>
      <trkpt lat="45.54292" lon="3.27638">
        <ele>369</ele>
        <time>2012-11-08T14:59:43Z</time>
      </trkpt>
      <trkpt lat="45.54298" lon="3.27612">
        <ele>368</ele>
        <time>2012-11-08T14:59:46Z</time>
      </trkpt>
      <trkpt lat="45.54306" lon="3.27583">
        <ele>367</ele>
        <time>2012-11-08T14:59:49Z</time>
      </trkpt>
      <trkpt lat="45.54314" lon="3.27553">
        <ele>368</ele>
        <time>2012-11-08T14:59:52Z</time>
      </trkpt>
      <trkpt lat="45.5432" lon="3.27525">
        <ele>368</ele>
        <time>2012-11-08T14:59:55Z</time>
      </trkpt>
      <trkpt lat="45.5433" lon="3.27495">
        <ele>370</ele>
        <time>2012-11-08T14:59:58Z</time>
      </trkpt>
      <trkpt lat="45.54336" lon="3.27468">
        <ele>370</ele>
        <time>2012-11-08T15:00:01Z</time>
      </trkpt>
      <trkpt lat="45.54346" lon="3.27438">
        <ele>370</ele>
        <time>2012-11-08T15:00:04Z</time>
      </trkpt>
      <trkpt lat="45.54353" lon="3.27408">
        <ele>371</ele>
        <time>2012-11-08T15:00:07Z</time>
      </trkpt>
      <trkpt lat="45.54362" lon="3.27379">
        <ele>370</ele>
        <time>2012-11-08T15:00:10Z</time>
      </trkpt>
      <trkpt lat="45.54365" lon="3.27344">
        <ele>370</ele>
        <time>2012-11-08T15:00:13Z</time>
      </trkpt>
      <trkpt lat="45.54364" lon="3.27309">
        <ele>369</ele>
        <time>2012-11-08T15:00:16Z</time>
      </trkpt>
      <trkpt lat="45.54362" lon="3.27274">
        <ele>369</ele>
        <time>2012-11-08T15:00:19Z</time>
      </trkpt>
      <trkpt lat="45.54355" lon="3.27243">
        <ele>369</ele>
        <time>2012-11-08T15:00:22Z</time>
      </trkpt>
      <trkpt lat="45.54345" lon="3.27214">
        <ele>370</ele>
        <time>2012-11-08T15:00:25Z</time>
      </trkpt>
      <trkpt lat="45.54332" lon="3.27192">
        <ele>370</ele>
        <time>2012-11-08T15:00:28Z</time>
      </trkpt>
      <trkpt lat="45.54323" lon="3.27165">
        <ele>372</ele>
        <time>2012-11-08T15:00:31Z</time>
      </trkpt>
      <trkpt lat="45.5432" lon="3.27139">
        <ele>371</ele>
        <time>2012-11-08T15:00:34Z</time>
      </trkpt>
      <trkpt lat="45.54316" lon="3.27106">
        <ele>372</ele>
        <time>2012-11-08T15:00:38Z</time>
      </trkpt>
      <trkpt lat="45.54312" lon="3.27079">
        <ele>372</ele>
        <time>2012-11-08T15:00:41Z</time>
      </trkpt>
      <trkpt lat="45.54311" lon="3.27049">
        <ele>371</ele>
        <time>2012-11-08T15:00:45Z</time>
      </trkpt>
      <trkpt lat="45.54311" lon="3.2702">
        <ele>371</ele>
        <time>2012-11-08T15:00:48Z</time>
      </trkpt>
      <trkpt lat="45.5431" lon="3.2699">
        <ele>371</ele>
        <time>2012-11-08T15:00:51Z</time>
      </trkpt>
      <trkpt lat="45.54311" lon="3.26961">
        <ele>371</ele>
        <time>2012-11-08T15:00:54Z</time>
      </trkpt>
      <trkpt lat="45.54311" lon="3.26935">
        <ele>371</ele>
        <time>2012-11-08T15:00:57Z</time>
      </trkpt>
      <trkpt lat="45.54317" lon="3.26903">
        <ele>373</ele>
        <time>2012-11-08T15:01:01Z</time>
      </trkpt>
      <trkpt lat="45.54329" lon="3.2688">
        <ele>373</ele>
        <time>2012-11-08T15:01:04Z</time>
      </trkpt>
      <trkpt lat="45.54346" lon="3.2686">
        <ele>373</ele>
        <time>2012-11-08T15:01:08Z</time>
      </trkpt>
      <trkpt lat="45.54367" lon="3.26847">
        <ele>373</ele>
        <time>2012-11-08T15:01:13Z</time>
      </trkpt>
      <trkpt lat="45.54387" lon="3.2684">
        <ele>373</ele>
        <time>2012-11-08T15:01:19Z</time>
      </trkpt>
      <trkpt lat="45.54406" lon="3.26842">
        <ele>373</ele>
        <time>2012-11-08T15:01:23Z</time>
      </trkpt>
      <trkpt lat="45.54425" lon="3.26849">
        <ele>373</ele>
        <time>2012-11-08T15:01:26Z</time>
      </trkpt>
      <trkpt lat="45.54445" lon="3.2686">
        <ele>373</ele>
        <time>2012-11-08T15:01:30Z</time>
      </trkpt>
      <trkpt lat="45.54463" lon="3.26866">
        <ele>373</ele>
        <time>2012-11-08T15:01:34Z</time>
      </trkpt>
      <trkpt lat="45.54483" lon="3.26872">
        <ele>373</ele>
        <time>2012-11-08T15:01:39Z</time>
      </trkpt>
      <trkpt lat="45.545" lon="3.26858">
        <ele>373</ele>
        <time>2012-11-08T15:01:43Z</time>
      </trkpt>
      <trkpt lat="45.54506" lon="3.26824">
        <ele>373</ele>
        <time>2012-11-08T15:01:50Z</time>
      </trkpt>
      <trkpt lat="45.54509" lon="3.26795">
        <ele>373</ele>
        <time>2012-11-08T15:01:55Z</time>
      </trkpt>
      <trkpt lat="45.54509" lon="3.26767">
        <ele>374</ele>
        <time>2012-11-08T15:02:00Z</time>
      </trkpt>
      <trkpt lat="45.54507" lon="3.26738">
        <ele>374</ele>
        <time>2012-11-08T15:02:05Z</time>
      </trkpt>
      <trkpt lat="45.545" lon="3.26712">
        <ele>374</ele>
        <time>2012-11-08T15:02:10Z</time>
      </trkpt>
      <trkpt lat="45.54492" lon="3.26685">
        <ele>374</ele>
        <time>2012-11-08T15:02:14Z</time>
      </trkpt>
      <trkpt lat="45.54486" lon="3.26658">
        <ele>375</ele>
        <time>2012-11-08T15:02:18Z</time>
      </trkpt>
      <trkpt lat="45.54479" lon="3.26632">
        <ele>374</ele>
        <time>2012-11-08T15:02:22Z</time>
      </trkpt>
      <trkpt lat="45.54471" lon="3.26605">
        <ele>374</ele>
        <time>2012-11-08T15:02:26Z</time>
      </trkpt>
      <trkpt lat="45.54467" lon="3.26574">
        <ele>374</ele>
        <time>2012-11-08T15:02:30Z</time>
      </trkpt>
      <trkpt lat="45.54463" lon="3.26543">
        <ele>374</ele>
        <time>2012-11-08T15:02:34Z</time>
      </trkpt>
      <trkpt lat="45.54454" lon="3.26512">
        <ele>374</ele>
        <time>2012-11-08T15:02:38Z</time>
      </trkpt>
      <trkpt lat="45.54449" lon="3.26487">
        <ele>374</ele>
        <time>2012-11-08T15:02:41Z</time>
      </trkpt>
      <trkpt lat="45.54444" lon="3.26461">
        <ele>374</ele>
        <time>2012-11-08T15:02:45Z</time>
      </trkpt>
      <trkpt lat="45.54436" lon="3.26433">
        <ele>374</ele>
        <time>2012-11-08T15:02:50Z</time>
      </trkpt>
      <trkpt lat="45.54424" lon="3.26409">
        <ele>374</ele>
        <time>2012-11-08T15:02:54Z</time>
      </trkpt>
      <trkpt lat="45.5443" lon="3.26382">
        <ele>374</ele>
        <time>2012-11-08T15:03:03Z</time>
      </trkpt>
      <trkpt lat="45.54445" lon="3.2636">
        <ele>375</ele>
        <time>2012-11-08T15:03:10Z</time>
      </trkpt>
      <trkpt lat="45.54449" lon="3.26332">
        <ele>374</ele>
        <time>2012-11-08T15:03:14Z</time>
      </trkpt>
      <trkpt lat="45.54447" lon="3.26304">
        <ele>374</ele>
        <time>2012-11-08T15:03:20Z</time>
      </trkpt>
      <trkpt lat="45.54443" lon="3.26278">
        <ele>374</ele>
        <time>2012-11-08T15:03:26Z</time>
      </trkpt>
      <trkpt lat="45.54442" lon="3.2625">
        <ele>375</ele>
        <time>2012-11-08T15:03:35Z</time>
      </trkpt>
      <trkpt lat="45.54431" lon="3.26226">
        <ele>375</ele>
        <time>2012-11-08T15:03:41Z</time>
      </trkpt>
      <trkpt lat="45.54431" lon="3.26195">
        <ele>376</ele>
        <time>2012-11-08T15:03:47Z</time>
      </trkpt>
      <trkpt lat="45.54433" lon="3.26165">
        <ele>377</ele>
        <time>2012-11-08T15:03:51Z</time>
      </trkpt>
      <trkpt lat="45.54433" lon="3.26138">
        <ele>378</ele>
        <time>2012-11-08T15:03:55Z</time>
      </trkpt>
      <trkpt lat="45.54433" lon="3.26106">
        <ele>378</ele>
        <time>2012-11-08T15:04:00Z</time>
      </trkpt>
      <trkpt lat="45.54433" lon="3.2608">
        <ele>378</ele>
        <time>2012-11-08T15:04:04Z</time>
      </trkpt>
      <trkpt lat="45.54429" lon="3.26048">
        <ele>378</ele>
        <time>2012-11-08T15:04:09Z</time>
      </trkpt>
      <trkpt lat="45.54419" lon="3.26025">
        <ele>378</ele>
        <time>2012-11-08T15:04:13Z</time>
      </trkpt>
      <trkpt lat="45.5441" lon="3.25997">
        <ele>377</ele>
        <time>2012-11-08T15:04:17Z</time>
      </trkpt>
      <trkpt lat="45.54398" lon="3.25977">
        <ele>377</ele>
        <time>2012-11-08T15:04:21Z</time>
      </trkpt>
      <trkpt lat="45.54383" lon="3.2596">
        <ele>377</ele>
        <time>2012-11-08T15:04:25Z</time>
      </trkpt>
      <trkpt lat="45.54365" lon="3.25958">
        <ele>378</ele>
        <time>2012-11-08T15:04:28Z</time>
      </trkpt>
      <trkpt lat="45.54347" lon="3.25957">
        <ele>378</ele>
        <time>2012-11-08T15:04:32Z</time>
      </trkpt>
      <trkpt lat="45.5433" lon="3.25943">
        <ele>380</ele>
        <time>2012-11-08T15:04:37Z</time>
      </trkpt>
      <trkpt lat="45.54327" lon="3.25913">
        <ele>380</ele>
        <time>2012-11-08T15:04:41Z</time>
      </trkpt>
      <trkpt lat="45.54327" lon="3.25886">
        <ele>381</ele>
        <time>2012-11-08T15:04:46Z</time>
      </trkpt>
      <trkpt lat="45.54332" lon="3.25858">
        <ele>381</ele>
        <time>2012-11-08T15:04:51Z</time>
      </trkpt>
      <trkpt lat="45.54337" lon="3.25828">
        <ele>379</ele>
        <time>2012-11-08T15:04:55Z</time>
      </trkpt>
      <trkpt lat="45.54336" lon="3.25798">
        <ele>379</ele>
        <time>2012-11-08T15:04:59Z</time>
      </trkpt>
      <trkpt lat="45.54338" lon="3.25771">
        <ele>379</ele>
        <time>2012-11-08T15:05:02Z</time>
      </trkpt>
      <trkpt lat="45.54343" lon="3.25745">
        <ele>379</ele>
        <time>2012-11-08T15:05:06Z</time>
      </trkpt>
      <trkpt lat="45.54361" lon="3.25727">
        <ele>379</ele>
        <time>2012-11-08T15:05:11Z</time>
      </trkpt>
      <trkpt lat="45.54368" lon="3.25699">
        <ele>378</ele>
        <time>2012-11-08T15:05:16Z</time>
      </trkpt>
      <trkpt lat="45.54362" lon="3.25674">
        <ele>378</ele>
        <time>2012-11-08T15:05:20Z</time>
      </trkpt>
      <trkpt lat="45.54358" lon="3.25647">
        <ele>379</ele>
        <time>2012-11-08T15:05:24Z</time>
      </trkpt>
      <trkpt lat="45.54371" lon="3.25625">
        <ele>379</ele>
        <time>2012-11-08T15:05:30Z</time>
      </trkpt>
      <trkpt lat="45.54377" lon="3.25596">
        <ele>380</ele>
        <time>2012-11-08T15:05:35Z</time>
      </trkpt>
      <trkpt lat="45.54364" lon="3.25567">
        <ele>381</ele>
        <time>2012-11-08T15:05:39Z</time>
      </trkpt>
      <trkpt lat="45.54358" lon="3.25538">
        <ele>381</ele>
        <time>2012-11-08T15:05:43Z</time>
      </trkpt>
      <trkpt lat="45.54351" lon="3.25507">
        <ele>380</ele>
        <time>2012-11-08T15:05:47Z</time>
      </trkpt>
      <trkpt lat="45.54346" lon="3.25479">
        <ele>381</ele>
        <time>2012-11-08T15:05:51Z</time>
      </trkpt>
      <trkpt lat="45.54343" lon="3.25449">
        <ele>381</ele>
        <time>2012-11-08T15:05:55Z</time>
      </trkpt>
      <trkpt lat="45.5434" lon="3.25422">
        <ele>381</ele>
        <time>2012-11-08T15:05:59Z</time>
      </trkpt>
      <trkpt lat="45.54338" lon="3.25396">
        <ele>382</ele>
        <time>2012-11-08T15:06:03Z</time>
      </trkpt>
      <trkpt lat="45.5435" lon="3.2537">
        <ele>383</ele>
        <time>2012-11-08T15:06:08Z</time>
      </trkpt>
      <trkpt lat="45.54371" lon="3.25367">
        <ele>383</ele>
        <time>2012-11-08T15:06:12Z</time>
      </trkpt>
      <trkpt lat="45.54389" lon="3.25362">
        <ele>384</ele>
        <time>2012-11-08T15:06:16Z</time>
      </trkpt>
      <trkpt lat="45.54406" lon="3.25352">
        <ele>384</ele>
        <time>2012-11-08T15:06:21Z</time>
      </trkpt>
      <trkpt lat="45.54406" lon="3.2532">
        <ele>385</ele>
        <time>2012-11-08T15:06:26Z</time>
      </trkpt>
      <trkpt lat="45.54405" lon="3.2529">
        <ele>385</ele>
        <time>2012-11-08T15:06:30Z</time>
      </trkpt>
      <trkpt lat="45.54404" lon="3.25258">
        <ele>385</ele>
        <time>2012-11-08T15:06:34Z</time>
      </trkpt>
      <trkpt lat="45.54401" lon="3.25227">
        <ele>386</ele>
        <time>2012-11-08T15:06:38Z</time>
      </trkpt>
      <trkpt lat="45.54401" lon="3.25196">
        <ele>387</ele>
        <time>2012-11-08T15:06:42Z</time>
      </trkpt>
      <trkpt lat="45.54403" lon="3.25168">
        <ele>388</ele>
        <time>2012-11-08T15:06:47Z</time>
      </trkpt>
      <trkpt lat="45.54385" lon="3.2515">
        <ele>388</ele>
        <time>2012-11-08T15:06:52Z</time>
      </trkpt>
      <trkpt lat="45.54366" lon="3.25141">
        <ele>388</ele>
        <time>2012-11-08T15:06:56Z</time>
      </trkpt>
      <trkpt lat="45.54349" lon="3.25133">
        <ele>387</ele>
        <time>2012-11-08T15:06:59Z</time>
      </trkpt>
      <trkpt lat="45.54328" lon="3.25121">
        <ele>386</ele>
        <time>2012-11-08T15:07:03Z</time>
      </trkpt>
      <trkpt lat="45.54306" lon="3.25108">
        <ele>385</ele>
        <time>2012-11-08T15:07:07Z</time>
      </trkpt>
      <trkpt lat="45.54285" lon="3.2509">
        <ele>385</ele>
        <time>2012-11-08T15:07:11Z</time>
      </trkpt>
      <trkpt lat="45.54268" lon="3.25072">
        <ele>386</ele>
        <time>2012-11-08T15:07:15Z</time>
      </trkpt>
      <trkpt lat="45.54271" lon="3.25044">
        <ele>387</ele>
        <time>2012-11-08T15:07:20Z</time>
      </trkpt>
      <trkpt lat="45.54273" lon="3.25017">
        <ele>387</ele>
        <time>2012-11-08T15:07:24Z</time>
      </trkpt>
      <trkpt lat="45.54277" lon="3.24988">
        <ele>389</ele>
        <time>2012-11-08T15:07:28Z</time>
      </trkpt>
      <trkpt lat="45.54277" lon="3.24949">
        <ele>390</ele>
        <time>2012-11-08T15:07:37Z</time>
      </trkpt>
      <trkpt lat="45.54277" lon="3.24921">
        <ele>390</ele>
        <time>2012-11-08T15:07:40Z</time>
      </trkpt>
      <trkpt lat="45.54284" lon="3.24894">
        <ele>392</ele>
        <time>2012-11-08T15:07:44Z</time>
      </trkpt>
      <trkpt lat="45.5429" lon="3.24858">
        <ele>392</ele>
        <time>2012-11-08T15:07:50Z</time>
      </trkpt>
      <trkpt lat="45.54285" lon="3.24828">
        <ele>392</ele>
        <time>2012-11-08T15:07:56Z</time>
      </trkpt>
      <trkpt lat="45.54286" lon="3.24802">
        <ele>392</ele>
        <time>2012-11-08T15:08:02Z</time>
      </trkpt>
      <trkpt lat="45.54278" lon="3.24771">
        <ele>392</ele>
        <time>2012-11-08T15:08:09Z</time>
      </trkpt>
      <trkpt lat="45.54268" lon="3.24748">
        <ele>392</ele>
        <time>2012-11-08T15:08:16Z</time>
      </trkpt>
      <trkpt lat="45.54254" lon="3.24728">
        <ele>392</ele>
        <time>2012-11-08T15:08:55Z</time>
      </trkpt>
      <trkpt lat="45.54246" lon="3.24703">
        <ele>391</ele>
        <time>2012-11-08T15:08:58Z</time>
      </trkpt>
      <trkpt lat="45.54238" lon="3.24679">
        <ele>391</ele>
        <time>2012-11-08T15:09:02Z</time>
      </trkpt>
      <trkpt lat="45.54229" lon="3.24649">
        <ele>391</ele>
        <time>2012-11-08T15:09:06Z</time>
      </trkpt>
      <trkpt lat="45.54225" lon="3.24622">
        <ele>391</ele>
        <time>2012-11-08T15:09:10Z</time>
      </trkpt>
      <trkpt lat="45.54221" lon="3.24593">
        <ele>391</ele>
        <time>2012-11-08T15:09:14Z</time>
      </trkpt>
      <trkpt lat="45.54214" lon="3.24566">
        <ele>391</ele>
        <time>2012-11-08T15:09:17Z</time>
      </trkpt>
      <trkpt lat="45.54206" lon="3.24542">
        <ele>391</ele>
        <time>2012-11-08T15:09:24Z</time>
      </trkpt>
      <trkpt lat="45.54207" lon="3.24515">
        <ele>391</ele>
        <time>2012-11-08T15:09:29Z</time>
      </trkpt>
      <trkpt lat="45.54202" lon="3.24489">
        <ele>391</ele>
        <time>2012-11-08T15:09:33Z</time>
      </trkpt>
      <trkpt lat="45.54198" lon="3.24458">
        <ele>391</ele>
        <time>2012-11-08T15:09:38Z</time>
      </trkpt>
      <trkpt lat="45.54193" lon="3.2443">
        <ele>391</ele>
        <time>2012-11-08T15:09:42Z</time>
      </trkpt>
      <trkpt lat="45.54193" lon="3.24402">
        <ele>392</ele>
        <time>2012-11-08T15:09:46Z</time>
      </trkpt>
      <trkpt lat="45.54193" lon="3.24368">
        <ele>392</ele>
        <time>2012-11-08T15:09:50Z</time>
      </trkpt>
      <trkpt lat="45.54193" lon="3.24338">
        <ele>392</ele>
        <time>2012-11-08T15:09:54Z</time>
      </trkpt>
      <trkpt lat="45.5419" lon="3.24305">
        <ele>392</ele>
        <time>2012-11-08T15:09:58Z</time>
      </trkpt>
      <trkpt lat="45.54188" lon="3.24278">
        <ele>392</ele>
        <time>2012-11-08T15:10:02Z</time>
      </trkpt>
      <trkpt lat="45.54184" lon="3.2425">
        <ele>392</ele>
        <time>2012-11-08T15:10:06Z</time>
      </trkpt>
      <trkpt lat="45.54177" lon="3.24225">
        <ele>392</ele>
        <time>2012-11-08T15:10:11Z</time>
      </trkpt>
      <trkpt lat="45.54156" lon="3.24227">
        <ele>392</ele>
        <time>2012-11-08T15:10:17Z</time>
      </trkpt>
      <trkpt lat="45.54138" lon="3.24237">
        <ele>392</ele>
        <time>2012-11-08T15:10:21Z</time>
      </trkpt>
      <trkpt lat="45.5412" lon="3.24249">
        <ele>392</ele>
        <time>2012-11-08T15:10:25Z</time>
      </trkpt>
      <trkpt lat="45.54102" lon="3.24261">
        <ele>391</ele>
        <time>2012-11-08T15:10:28Z</time>
      </trkpt>
      <trkpt lat="45.54083" lon="3.24273">
        <ele>390</ele>
        <time>2012-11-08T15:10:31Z</time>
      </trkpt>
      <trkpt lat="45.54064" lon="3.24286">
        <ele>389</ele>
        <time>2012-11-08T15:10:34Z</time>
      </trkpt>
      <trkpt lat="45.54043" lon="3.24298">
        <ele>389</ele>
        <time>2012-11-08T15:10:37Z</time>
      </trkpt>
      <trkpt lat="45.54022" lon="3.24311">
        <ele>388</ele>
        <time>2012-11-08T15:10:40Z</time>
      </trkpt>
      <trkpt lat="45.54002" lon="3.24322">
        <ele>388</ele>
        <time>2012-11-08T15:10:43Z</time>
      </trkpt>
      <trkpt lat="45.53985" lon="3.24333">
        <ele>388</ele>
        <time>2012-11-08T15:10:46Z</time>
      </trkpt>
      <trkpt lat="45.53967" lon="3.24342">
        <ele>388</ele>
        <time>2012-11-08T15:10:49Z</time>
      </trkpt>
      <trkpt lat="45.53947" lon="3.24356">
        <ele>389</ele>
        <time>2012-11-08T15:10:53Z</time>
      </trkpt>
      <trkpt lat="45.53926" lon="3.24367">
        <ele>389</ele>
        <time>2012-11-08T15:10:57Z</time>
      </trkpt>
      <trkpt lat="45.53906" lon="3.24379">
        <ele>391</ele>
        <time>2012-11-08T15:11:01Z</time>
      </trkpt>
      <trkpt lat="45.53888" lon="3.24391">
        <ele>391</ele>
        <time>2012-11-08T15:11:05Z</time>
      </trkpt>
      <trkpt lat="45.5387" lon="3.24371">
        <ele>392</ele>
        <time>2012-11-08T15:11:10Z</time>
      </trkpt>
      <trkpt lat="45.53861" lon="3.24342">
        <ele>393</ele>
        <time>2012-11-08T15:11:14Z</time>
      </trkpt>
      <trkpt lat="45.53852" lon="3.24315">
        <ele>393</ele>
        <time>2012-11-08T15:11:18Z</time>
      </trkpt>
      <trkpt lat="45.53843" lon="3.24289">
        <ele>393</ele>
        <time>2012-11-08T15:11:22Z</time>
      </trkpt>
      <trkpt lat="45.53836" lon="3.24263">
        <ele>393</ele>
        <time>2012-11-08T15:11:26Z</time>
      </trkpt>
      <trkpt lat="45.53827" lon="3.2424">
        <ele>394</ele>
        <time>2012-11-08T15:11:32Z</time>
      </trkpt>
      <trkpt lat="45.5382" lon="3.24215">
        <ele>394</ele>
        <time>2012-11-08T15:13:03Z</time>
      </trkpt>
      <trkpt lat="45.53813" lon="3.2419">
        <ele>394</ele>
        <time>2012-11-08T15:13:08Z</time>
      </trkpt>
      <trkpt lat="45.53802" lon="3.2416">
        <ele>394</ele>
        <time>2012-11-08T15:13:13Z</time>
      </trkpt>
      <trkpt lat="45.53795" lon="3.24134">
        <ele>395</ele>
        <time>2012-11-08T15:13:17Z</time>
      </trkpt>
      <trkpt lat="45.53787" lon="3.24104">
        <ele>395</ele>
        <time>2012-11-08T15:13:21Z</time>
      </trkpt>
      <trkpt lat="45.53776" lon="3.24072">
        <ele>396</ele>
        <time>2012-11-08T15:13:25Z</time>
      </trkpt>
      <trkpt lat="45.53767" lon="3.24043">
        <ele>396</ele>
        <time>2012-11-08T15:13:29Z</time>
      </trkpt>
      <trkpt lat="45.53758" lon="3.24013">
        <ele>396</ele>
        <time>2012-11-08T15:13:33Z</time>
      </trkpt>
      <trkpt lat="45.5375" lon="3.23984">
        <ele>395</ele>
        <time>2012-11-08T15:13:37Z</time>
      </trkpt>
      <trkpt lat="45.53741" lon="3.23952">
        <ele>397</ele>
        <time>2012-11-08T15:13:41Z</time>
      </trkpt>
      <trkpt lat="45.5373" lon="3.23923">
        <ele>397</ele>
        <time>2012-11-08T15:13:45Z</time>
      </trkpt>
      <trkpt lat="45.53723" lon="3.23891">
        <ele>399</ele>
        <time>2012-11-08T15:13:49Z</time>
      </trkpt>
      <trkpt lat="45.53716" lon="3.23864">
        <ele>399</ele>
        <time>2012-11-08T15:13:52Z</time>
      </trkpt>
      <trkpt lat="45.53708" lon="3.23841">
        <ele>400</ele>
        <time>2012-11-08T15:13:55Z</time>
      </trkpt>
      <trkpt lat="45.53699" lon="3.23813">
        <ele>401</ele>
        <time>2012-11-08T15:13:59Z</time>
      </trkpt>
      <trkpt lat="45.53693" lon="3.23786">
        <ele>402</ele>
        <time>2012-11-08T15:14:03Z</time>
      </trkpt>
      <trkpt lat="45.53685" lon="3.23758">
        <ele>402</ele>
        <time>2012-11-08T15:14:08Z</time>
      </trkpt>
      <trkpt lat="45.53676" lon="3.23735">
        <ele>403</ele>
        <time>2012-11-08T15:14:13Z</time>
      </trkpt>
      <trkpt lat="45.53668" lon="3.23712">
        <ele>403</ele>
        <time>2012-11-08T15:14:18Z</time>
      </trkpt>
      <trkpt lat="45.5366" lon="3.23686">
        <ele>410</ele>
        <time>2012-11-08T15:14:24Z</time>
      </trkpt>
      <trkpt lat="45.53652" lon="3.23662">
        <ele>411</ele>
        <time>2012-11-08T15:14:30Z</time>
      </trkpt>
      <trkpt lat="45.53644" lon="3.23638">
        <ele>413</ele>
        <time>2012-11-08T15:14:37Z</time>
      </trkpt>
      <trkpt lat="45.53636" lon="3.23614">
        <ele>414</ele>
        <time>2012-11-08T15:14:44Z</time>
      </trkpt>
      <trkpt lat="45.53628" lon="3.23589">
        <ele>415</ele>
        <time>2012-11-08T15:14:52Z</time>
      </trkpt>
      <trkpt lat="45.53619" lon="3.23564">
        <ele>418</ele>
        <time>2012-11-08T15:15:00Z</time>
      </trkpt>
      <trkpt lat="45.53612" lon="3.23539">
        <ele>419</ele>
        <time>2012-11-08T15:15:08Z</time>
      </trkpt>
      <trkpt lat="45.53605" lon="3.23513">
        <ele>421</ele>
        <time>2012-11-08T15:15:18Z</time>
      </trkpt>
      <trkpt lat="45.53595" lon="3.2349">
        <ele>423</ele>
        <time>2012-11-08T15:15:28Z</time>
      </trkpt>
      <trkpt lat="45.53588" lon="3.23464">
        <ele>423</ele>
        <time>2012-11-08T15:15:38Z</time>
      </trkpt>
      <trkpt lat="45.53581" lon="3.2344">
        <ele>432</ele>
        <time>2012-11-08T15:15:51Z</time>
      </trkpt>
      <trkpt lat="45.53574" lon="3.23416">
        <ele>432</ele>
        <time>2012-11-08T15:16:04Z</time>
      </trkpt>
      <trkpt lat="45.53563" lon="3.23396">
        <ele>435</ele>
        <time>2012-11-08T15:16:21Z</time>
      </trkpt>
      <trkpt lat="45.53547" lon="3.23384">
        <ele>437</ele>
        <time>2012-11-08T15:16:34Z</time>
      </trkpt>
      <trkpt lat="45.53528" lon="3.23379">
        <ele>439</ele>
        <time>2012-11-08T15:16:45Z</time>
      </trkpt>
      <trkpt lat="45.53509" lon="3.2337">
        <ele>440</ele>
        <time>2012-11-08T15:16:56Z</time>
      </trkpt>
      <trkpt lat="45.53494" lon="3.23355">
        <ele>445</ele>
        <time>2012-11-08T15:17:06Z</time>
      </trkpt>
      <trkpt lat="45.53474" lon="3.23348">
        <ele>445</ele>
        <time>2012-11-08T15:17:15Z</time>
      </trkpt>
      <trkpt lat="45.53456" lon="3.23348">
        <ele>446</ele>
        <time>2012-11-08T15:17:22Z</time>
      </trkpt>
      <trkpt lat="45.53435" lon="3.23348">
        <ele>447</ele>
        <time>2012-11-08T15:17:29Z</time>
      </trkpt>
      <trkpt lat="45.53417" lon="3.23348">
        <ele>450</ele>
        <time>2012-11-08T15:17:37Z</time>
      </trkpt>
      <trkpt lat="45.53397" lon="3.23346">
        <ele>450</ele>
        <time>2012-11-08T15:17:46Z</time>
      </trkpt>
      <trkpt lat="45.53388" lon="3.23323">
        <ele>452</ele>
        <time>2012-11-08T15:17:55Z</time>
      </trkpt>
      <trkpt lat="45.53383" lon="3.23294">
        <ele>453</ele>
        <time>2012-11-08T15:18:02Z</time>
      </trkpt>
      <trkpt lat="45.5338" lon="3.23267">
        <ele>453</ele>
        <time>2012-11-08T15:18:09Z</time>
      </trkpt>
      <trkpt lat="45.53375" lon="3.2324">
        <ele>454</ele>
        <time>2012-11-08T15:18:15Z</time>
      </trkpt>
      <trkpt lat="45.53374" lon="3.23208">
        <ele>454</ele>
        <time>2012-11-08T15:18:21Z</time>
      </trkpt>
      <trkpt lat="45.53369" lon="3.23179">
        <ele>454</ele>
        <time>2012-11-08T15:18:27Z</time>
      </trkpt>
      <trkpt lat="45.53367" lon="3.2315">
        <ele>454</ele>
        <time>2012-11-08T15:18:32Z</time>
      </trkpt>
      <trkpt lat="45.53365" lon="3.23121">
        <ele>455</ele>
        <time>2012-11-08T15:18:37Z</time>
      </trkpt>
      <trkpt lat="45.53361" lon="3.23091">
        <ele>455</ele>
        <time>2012-11-08T15:18:42Z</time>
      </trkpt>
      <trkpt lat="45.53357" lon="3.23059">
        <ele>455</ele>
        <time>2012-11-08T15:18:47Z</time>
      </trkpt>
      <trkpt lat="45.53355" lon="3.23033">
        <ele>456</ele>
        <time>2012-11-08T15:18:51Z</time>
      </trkpt>
      <trkpt lat="45.5335" lon="3.23007">
        <ele>455</ele>
        <time>2012-11-08T15:18:55Z</time>
      </trkpt>
      <trkpt lat="45.53348" lon="3.2298">
        <ele>455</ele>
        <time>2012-11-08T15:18:59Z</time>
      </trkpt>
      <trkpt lat="45.53348" lon="3.22947">
        <ele>456</ele>
        <time>2012-11-08T15:19:04Z</time>
      </trkpt>
      <trkpt lat="45.53346" lon="3.22917">
        <ele>455</ele>
        <time>2012-11-08T15:19:08Z</time>
      </trkpt>
      <trkpt lat="45.53344" lon="3.22888">
        <ele>454</ele>
        <time>2012-11-08T15:19:12Z</time>
      </trkpt>
      <trkpt lat="45.53342" lon="3.22857">
        <ele>454</ele>
        <time>2012-11-08T15:19:16Z</time>
      </trkpt>
      <trkpt lat="45.5334" lon="3.22827">
        <ele>453</ele>
        <time>2012-11-08T15:19:20Z</time>
      </trkpt>
      <trkpt lat="45.53341" lon="3.22799">
        <ele>452</ele>
        <time>2012-11-08T15:19:24Z</time>
      </trkpt>
      <trkpt lat="45.53343" lon="3.22773">
        <ele>452</ele>
        <time>2012-11-08T15:19:28Z</time>
      </trkpt>
      <trkpt lat="45.53341" lon="3.22745">
        <ele>452</ele>
        <time>2012-11-08T15:19:32Z</time>
      </trkpt>
      <trkpt lat="45.5334" lon="3.22715">
        <ele>451</ele>
        <time>2012-11-08T15:19:36Z</time>
      </trkpt>
      <trkpt lat="45.53338" lon="3.22685">
        <ele>451</ele>
        <time>2012-11-08T15:19:40Z</time>
      </trkpt>
      <trkpt lat="45.53335" lon="3.22653">
        <ele>451</ele>
        <time>2012-11-08T15:19:44Z</time>
      </trkpt>
      <trkpt lat="45.53333" lon="3.22626">
        <ele>454</ele>
        <time>2012-11-08T15:19:47Z</time>
      </trkpt>
      <trkpt lat="45.53331" lon="3.22598">
        <ele>454</ele>
        <time>2012-11-08T15:19:51Z</time>
      </trkpt>
      <trkpt lat="45.53329" lon="3.22572">
        <ele>455</ele>
        <time>2012-11-08T15:19:55Z</time>
      </trkpt>
      <trkpt lat="45.53326" lon="3.22546">
        <ele>456</ele>
        <time>2012-11-08T15:19:59Z</time>
      </trkpt>
      <trkpt lat="45.53324" lon="3.22515">
        <ele>456</ele>
        <time>2012-11-08T15:20:04Z</time>
      </trkpt>
      <trkpt lat="45.53321" lon="3.22488">
        <ele>457</ele>
        <time>2012-11-08T15:20:08Z</time>
      </trkpt>
      <trkpt lat="45.5332" lon="3.22461">
        <ele>457</ele>
        <time>2012-11-08T15:20:12Z</time>
      </trkpt>
      <trkpt lat="45.53318" lon="3.22433">
        <ele>457</ele>
        <time>2012-11-08T15:20:17Z</time>
      </trkpt>
      <trkpt lat="45.53317" lon="3.22407">
        <ele>458</ele>
        <time>2012-11-08T15:20:21Z</time>
      </trkpt>
      <trkpt lat="45.53314" lon="3.22379">
        <ele>458</ele>
        <time>2012-11-08T15:20:25Z</time>
      </trkpt>
      <trkpt lat="45.53311" lon="3.22352">
        <ele>458</ele>
        <time>2012-11-08T15:20:29Z</time>
      </trkpt>
      <trkpt lat="45.53307" lon="3.22322">
        <ele>459</ele>
        <time>2012-11-08T15:20:34Z</time>
      </trkpt>
      <trkpt lat="45.53305" lon="3.22295">
        <ele>459</ele>
        <time>2012-11-08T15:20:38Z</time>
      </trkpt>
      <trkpt lat="45.53304" lon="3.22268">
        <ele>459</ele>
        <time>2012-11-08T15:20:42Z</time>
      </trkpt>
      <trkpt lat="45.53301" lon="3.22241">
        <ele>459</ele>
        <time>2012-11-08T15:20:46Z</time>
      </trkpt>
      <trkpt lat="45.53302" lon="3.22211">
        <ele>459</ele>
        <time>2012-11-08T15:20:50Z</time>
      </trkpt>
      <trkpt lat="45.533" lon="3.22186">
        <ele>459</ele>
        <time>2012-11-08T15:20:54Z</time>
      </trkpt>
      <trkpt lat="45.53297" lon="3.22156">
        <ele>460</ele>
        <time>2012-11-08T15:20:59Z</time>
      </trkpt>
      <trkpt lat="45.53294" lon="3.22129">
        <ele>460</ele>
        <time>2012-11-08T15:21:03Z</time>
      </trkpt>
      <trkpt lat="45.53291" lon="3.22103">
        <ele>460</ele>
        <time>2012-11-08T15:21:07Z</time>
      </trkpt>
      <trkpt lat="45.53288" lon="3.22078">
        <ele>461</ele>
        <time>2012-11-08T15:21:11Z</time>
      </trkpt>
      <trkpt lat="45.53285" lon="3.22051">
        <ele>461</ele>
        <time>2012-11-08T15:21:15Z</time>
      </trkpt>
      <trkpt lat="45.53284" lon="3.22025">
        <ele>461</ele>
        <time>2012-11-08T15:21:19Z</time>
      </trkpt>
      <trkpt lat="45.53282" lon="3.21995">
        <ele>461</ele>
        <time>2012-11-08T15:21:24Z</time>
      </trkpt>
      <trkpt lat="45.5328" lon="3.21963">
        <ele>461</ele>
        <time>2012-11-08T15:21:29Z</time>
      </trkpt>
      <trkpt lat="45.53277" lon="3.21932">
        <ele>462</ele>
        <time>2012-11-08T15:21:34Z</time>
      </trkpt>
      <trkpt lat="45.53275" lon="3.21901">
        <ele>462</ele>
        <time>2012-11-08T15:21:39Z</time>
      </trkpt>
      <trkpt lat="45.53273" lon="3.21869">
        <ele>462</ele>
        <time>2012-11-08T15:21:44Z</time>
      </trkpt>
      <trkpt lat="45.53272" lon="3.21842">
        <ele>462</ele>
        <time>2012-11-08T15:21:49Z</time>
      </trkpt>
      <trkpt lat="45.5327" lon="3.21814">
        <ele>462</ele>
        <time>2012-11-08T15:21:54Z</time>
      </trkpt>
      <trkpt lat="45.53249" lon="3.21801">
        <ele>462</ele>
        <time>2012-11-08T15:21:59Z</time>
      </trkpt>
      <trkpt lat="45.5323" lon="3.21802">
        <ele>462</ele>
        <time>2012-11-08T15:22:03Z</time>
      </trkpt>
      <trkpt lat="45.53211" lon="3.21803">
        <ele>462</ele>
        <time>2012-11-08T15:22:07Z</time>
      </trkpt>
      <trkpt lat="45.53189" lon="3.21804">
        <ele>462</ele>
        <time>2012-11-08T15:22:12Z</time>
      </trkpt>
      <trkpt lat="45.53168" lon="3.21804">
        <ele>462</ele>
        <time>2012-11-08T15:22:17Z</time>
      </trkpt>
      <trkpt lat="45.53149" lon="3.21804">
        <ele>462</ele>
        <time>2012-11-08T15:22:21Z</time>
      </trkpt>
      <trkpt lat="45.53128" lon="3.21806">
        <ele>462</ele>
        <time>2012-11-08T15:22:25Z</time>
      </trkpt>
      <trkpt lat="45.5311" lon="3.21807">
        <ele>462</ele>
        <time>2012-11-08T15:22:29Z</time>
      </trkpt>
      <trkpt lat="45.53092" lon="3.21808">
        <ele>462</ele>
        <time>2012-11-08T15:22:33Z</time>
      </trkpt>
      <trkpt lat="45.53071" lon="3.21809">
        <ele>464</ele>
        <time>2012-11-08T15:22:38Z</time>
      </trkpt>
      <trkpt lat="45.5305" lon="3.21811">
        <ele>464</ele>
        <time>2012-11-08T15:22:43Z</time>
      </trkpt>
      <trkpt lat="45.53028" lon="3.21811">
        <ele>465</ele>
        <time>2012-11-08T15:22:49Z</time>
      </trkpt>
      <trkpt lat="45.53007" lon="3.21812">
        <ele>465</ele>
        <time>2012-11-08T15:22:54Z</time>
      </trkpt>
      <trkpt lat="45.52987" lon="3.21812">
        <ele>467</ele>
        <time>2012-11-08T15:22:59Z</time>
      </trkpt>
      <trkpt lat="45.52969" lon="3.21811">
        <ele>467</ele>
        <time>2012-11-08T15:23:04Z</time>
      </trkpt>
      <trkpt lat="45.52948" lon="3.21812">
        <ele>468</ele>
        <time>2012-11-08T15:23:09Z</time>
      </trkpt>
      <trkpt lat="45.52929" lon="3.21813">
        <ele>468</ele>
        <time>2012-11-08T15:23:14Z</time>
      </trkpt>
      <trkpt lat="45.52908" lon="3.21814">
        <ele>469</ele>
        <time>2012-11-08T15:23:19Z</time>
      </trkpt>
      <trkpt lat="45.52887" lon="3.21815">
        <ele>470</ele>
        <time>2012-11-08T15:23:24Z</time>
      </trkpt>
      <trkpt lat="45.52868" lon="3.21817">
        <ele>470</ele>
        <time>2012-11-08T15:23:29Z</time>
      </trkpt>
      <trkpt lat="45.52849" lon="3.21818">
        <ele>470</ele>
        <time>2012-11-08T15:23:34Z</time>
      </trkpt>
      <trkpt lat="45.52831" lon="3.21818">
        <ele>472</ele>
        <time>2012-11-08T15:23:39Z</time>
      </trkpt>
      <trkpt lat="45.52813" lon="3.21823">
        <ele>473</ele>
        <time>2012-11-08T15:23:44Z</time>
      </trkpt>
      <trkpt lat="45.52794" lon="3.21833">
        <ele>474</ele>
        <time>2012-11-08T15:23:50Z</time>
      </trkpt>
      <trkpt lat="45.52775" lon="3.21844">
        <ele>475</ele>
        <time>2012-11-08T15:23:56Z</time>
      </trkpt>
      <trkpt lat="45.52758" lon="3.21855">
        <ele>476</ele>
        <time>2012-11-08T15:24:02Z</time>
      </trkpt>
      <trkpt lat="45.52742" lon="3.21865">
        <ele>479</ele>
        <time>2012-11-08T15:24:08Z</time>
      </trkpt>
      <trkpt lat="45.52725" lon="3.21879">
        <ele>480</ele>
        <time>2012-11-08T15:24:15Z</time>
      </trkpt>
      <trkpt lat="45.52707" lon="3.2189">
        <ele>481</ele>
        <time>2012-11-08T15:24:23Z</time>
      </trkpt>
      <trkpt lat="45.52688" lon="3.21896">
        <ele>482</ele>
        <time>2012-11-08T15:24:32Z</time>
      </trkpt>
      <trkpt lat="45.52669" lon="3.21896">
        <ele>483</ele>
        <time>2012-11-08T15:24:41Z</time>
      </trkpt>
      <trkpt lat="45.52651" lon="3.21888">
        <ele>488</ele>
        <time>2012-11-08T15:24:49Z</time>
      </trkpt>
      <trkpt lat="45.52632" lon="3.2188">
        <ele>489</ele>
        <time>2012-11-08T15:24:57Z</time>
      </trkpt>
      <trkpt lat="45.52613" lon="3.21876">
        <ele>490</ele>
        <time>2012-11-08T15:25:05Z</time>
      </trkpt>
      <trkpt lat="45.52594" lon="3.2187">
        <ele>491</ele>
        <time>2012-11-08T15:25:14Z</time>
      </trkpt>
      <trkpt lat="45.52573" lon="3.21866">
        <ele>497</ele>
        <time>2012-11-08T15:25:23Z</time>
      </trkpt>
      <trkpt lat="45.52555" lon="3.21864">
        <ele>497</ele>
        <time>2012-11-08T15:25:32Z</time>
      </trkpt>
      <trkpt lat="45.52536" lon="3.21862">
        <ele>498</ele>
        <time>2012-11-08T15:25:41Z</time>
      </trkpt>
      <trkpt lat="45.52518" lon="3.21858">
        <ele>499</ele>
        <time>2012-11-08T15:25:50Z</time>
      </trkpt>
      <trkpt lat="45.52498" lon="3.21857">
        <ele>501</ele>
        <time>2012-11-08T15:26:00Z</time>
      </trkpt>
      <trkpt lat="45.52479" lon="3.21846">
        <ele>501</ele>
        <time>2012-11-08T15:26:08Z</time>
      </trkpt>
      <trkpt lat="45.52461" lon="3.21839">
        <ele>502</ele>
        <time>2012-11-08T15:26:15Z</time>
      </trkpt>
      <trkpt lat="45.52443" lon="3.21829">
        <ele>505</ele>
        <time>2012-11-08T15:26:22Z</time>
      </trkpt>
      <trkpt lat="45.52427" lon="3.21812">
        <ele>505</ele>
        <time>2012-11-08T15:26:29Z</time>
      </trkpt>
      <trkpt lat="45.52413" lon="3.21791">
        <ele>507</ele>
        <time>2012-11-08T15:26:36Z</time>
      </trkpt>
      <trkpt lat="45.52405" lon="3.21767">
        <ele>508</ele>
        <time>2012-11-08T15:26:43Z</time>
      </trkpt>
      <trkpt lat="45.52396" lon="3.21743">
        <ele>510</ele>
        <time>2012-11-08T15:26:50Z</time>
      </trkpt>
      <trkpt lat="45.52386" lon="3.21719">
        <ele>511</ele>
        <time>2012-11-08T15:26:57Z</time>
      </trkpt>
      <trkpt lat="45.52376" lon="3.21696">
        <ele>512</ele>
        <time>2012-11-08T15:27:04Z</time>
      </trkpt>
      <trkpt lat="45.52367" lon="3.21672">
        <ele>513</ele>
        <time>2012-11-08T15:27:11Z</time>
      </trkpt>
      <trkpt lat="45.52358" lon="3.21649">
        <ele>516</ele>
        <time>2012-11-08T15:27:18Z</time>
      </trkpt>
      <trkpt lat="45.52347" lon="3.21624">
        <ele>517</ele>
        <time>2012-11-08T15:27:25Z</time>
      </trkpt>
      <trkpt lat="45.52338" lon="3.21599">
        <ele>519</ele>
        <time>2012-11-08T15:27:32Z</time>
      </trkpt>
      <trkpt lat="45.52329" lon="3.21574">
        <ele>522</ele>
        <time>2012-11-08T15:27:39Z</time>
      </trkpt>
      <trkpt lat="45.52319" lon="3.2155">
        <ele>523</ele>
        <time>2012-11-08T15:27:46Z</time>
      </trkpt>
      <trkpt lat="45.52308" lon="3.21526">
        <ele>523</ele>
        <time>2012-11-08T15:27:53Z</time>
      </trkpt>
      <trkpt lat="45.523" lon="3.21502">
        <ele>524</ele>
        <time>2012-11-08T15:28:00Z</time>
      </trkpt>
      <trkpt lat="45.5229" lon="3.2148">
        <ele>527</ele>
        <time>2012-11-08T15:28:06Z</time>
      </trkpt>
      <trkpt lat="45.5228" lon="3.21455">
        <ele>527</ele>
        <time>2012-11-08T15:28:13Z</time>
      </trkpt>
      <trkpt lat="45.5227" lon="3.21432">
        <ele>528</ele>
        <time>2012-11-08T15:28:19Z</time>
      </trkpt>
      <trkpt lat="45.52259" lon="3.21408">
        <ele>530</ele>
        <time>2012-11-08T15:28:25Z</time>
      </trkpt>
      <trkpt lat="45.5225" lon="3.21385">
        <ele>531</ele>
        <time>2012-11-08T15:28:31Z</time>
      </trkpt>
      <trkpt lat="45.52239" lon="3.21361">
        <ele>531</ele>
        <time>2012-11-08T15:28:37Z</time>
      </trkpt>
      <trkpt lat="45.52227" lon="3.21338">
        <ele>532</ele>
        <time>2012-11-08T15:28:43Z</time>
      </trkpt>
      <trkpt lat="45.52212" lon="3.21321">
        <ele>534</ele>
        <time>2012-11-08T15:28:49Z</time>
      </trkpt>
      <trkpt lat="45.52194" lon="3.21304">
        <ele>534</ele>
        <time>2012-11-08T15:28:55Z</time>
      </trkpt>
      <trkpt lat="45.52181" lon="3.21287">
        <ele>535</ele>
        <time>2012-11-08T15:29:00Z</time>
      </trkpt>
      <trkpt lat="45.52166" lon="3.21272">
        <ele>535</ele>
        <time>2012-11-08T15:29:05Z</time>
      </trkpt>
      <trkpt lat="45.52149" lon="3.21257">
        <ele>535</ele>
        <time>2012-11-08T15:29:10Z</time>
      </trkpt>
      <trkpt lat="45.5213" lon="3.21248">
        <ele>537</ele>
        <time>2012-11-08T15:29:15Z</time>
      </trkpt>
      <trkpt lat="45.5211" lon="3.21244">
        <ele>537</ele>
        <time>2012-11-08T15:29:20Z</time>
      </trkpt>
      <trkpt lat="45.5209" lon="3.21249">
        <ele>536</ele>
        <time>2012-11-08T15:29:25Z</time>
      </trkpt>
      <trkpt lat="45.52068" lon="3.21258">
        <ele>536</ele>
        <time>2012-11-08T15:29:30Z</time>
      </trkpt>
      <trkpt lat="45.5205" lon="3.21266">
        <ele>536</ele>
        <time>2012-11-08T15:29:34Z</time>
      </trkpt>
      <trkpt lat="45.52032" lon="3.21272">
        <ele>536</ele>
        <time>2012-11-08T15:29:38Z</time>
      </trkpt>
      <trkpt lat="45.52012" lon="3.21278">
        <ele>537</ele>
        <time>2012-11-08T15:29:42Z</time>
      </trkpt>
      <trkpt lat="45.51992" lon="3.21284">
        <ele>539</ele>
        <time>2012-11-08T15:29:46Z</time>
      </trkpt>
      <trkpt lat="45.51972" lon="3.21288">
        <ele>540</ele>
        <time>2012-11-08T15:29:50Z</time>
      </trkpt>
      <trkpt lat="45.51953" lon="3.21291">
        <ele>540</ele>
        <time>2012-11-08T15:29:54Z</time>
      </trkpt>
      <trkpt lat="45.51934" lon="3.21292">
        <ele>541</ele>
        <time>2012-11-08T15:29:58Z</time>
      </trkpt>
      <trkpt lat="45.51915" lon="3.21293">
        <ele>543</ele>
        <time>2012-11-08T15:30:02Z</time>
      </trkpt>
      <trkpt lat="45.51892" lon="3.21293">
        <ele>543</ele>
        <time>2012-11-08T15:30:07Z</time>
      </trkpt>
      <trkpt lat="45.51874" lon="3.21293">
        <ele>543</ele>
        <time>2012-11-08T15:30:11Z</time>
      </trkpt>
      <trkpt lat="45.51855" lon="3.21296">
        <ele>543</ele>
        <time>2012-11-08T15:30:15Z</time>
      </trkpt>
      <trkpt lat="45.51835" lon="3.21307">
        <ele>543</ele>
        <time>2012-11-08T15:30:20Z</time>
      </trkpt>
      <trkpt lat="45.51818" lon="3.21319">
        <ele>543</ele>
        <time>2012-11-08T15:30:24Z</time>
      </trkpt>
      <trkpt lat="45.51799" lon="3.21332">
        <ele>542</ele>
        <time>2012-11-08T15:30:28Z</time>
      </trkpt>
      <trkpt lat="45.51782" lon="3.2135">
        <ele>542</ele>
        <time>2012-11-08T15:30:32Z</time>
      </trkpt>
      <trkpt lat="45.51763" lon="3.21366">
        <ele>542</ele>
        <time>2012-11-08T15:30:36Z</time>
      </trkpt>
      <trkpt lat="45.51747" lon="3.2138">
        <ele>541</ele>
        <time>2012-11-08T15:30:40Z</time>
      </trkpt>
      <trkpt lat="45.51728" lon="3.21398">
        <ele>541</ele>
        <time>2012-11-08T15:30:44Z</time>
      </trkpt>
      <trkpt lat="45.51711" lon="3.21408">
        <ele>541</ele>
        <time>2012-11-08T15:30:47Z</time>
      </trkpt>
      <trkpt lat="45.51696" lon="3.21423">
        <ele>542</ele>
        <time>2012-11-08T15:30:51Z</time>
      </trkpt>
      <trkpt lat="45.51676" lon="3.21439">
        <ele>541</ele>
        <time>2012-11-08T15:30:55Z</time>
      </trkpt>
      <trkpt lat="45.5166" lon="3.21453">
        <ele>542</ele>
        <time>2012-11-08T15:30:59Z</time>
      </trkpt>
      <trkpt lat="45.51643" lon="3.21472">
        <ele>543</ele>
        <time>2012-11-08T15:31:03Z</time>
      </trkpt>
      <trkpt lat="45.51626" lon="3.21484">
        <ele>543</ele>
        <time>2012-11-08T15:31:07Z</time>
      </trkpt>
      <trkpt lat="45.51608" lon="3.215">
        <ele>543</ele>
        <time>2012-11-08T15:31:12Z</time>
      </trkpt>
      <trkpt lat="45.51591" lon="3.21516">
        <ele>544</ele>
        <time>2012-11-08T15:31:18Z</time>
      </trkpt>
      <trkpt lat="45.51575" lon="3.21531">
        <ele>547</ele>
        <time>2012-11-08T15:31:23Z</time>
      </trkpt>
      <trkpt lat="45.51558" lon="3.21546">
        <ele>548</ele>
        <time>2012-11-08T15:31:28Z</time>
      </trkpt>
      <trkpt lat="45.51542" lon="3.21561">
        <ele>548</ele>
        <time>2012-11-08T15:31:33Z</time>
      </trkpt>
      <trkpt lat="45.51526" lon="3.2158">
        <ele>550</ele>
        <time>2012-11-08T15:31:39Z</time>
      </trkpt>
      <trkpt lat="45.5151" lon="3.21595">
        <ele>551</ele>
        <time>2012-11-08T15:31:44Z</time>
      </trkpt>
      <trkpt lat="45.51493" lon="3.21612">
        <ele>553</ele>
        <time>2012-11-08T15:31:50Z</time>
      </trkpt>
      <trkpt lat="45.51476" lon="3.21628">
        <ele>553</ele>
        <time>2012-11-08T15:31:56Z</time>
      </trkpt>
      <trkpt lat="45.51457" lon="3.21644">
        <ele>553</ele>
        <time>2012-11-08T15:32:02Z</time>
      </trkpt>
      <trkpt lat="45.5144" lon="3.21659">
        <ele>553</ele>
        <time>2012-11-08T15:32:07Z</time>
      </trkpt>
      <trkpt lat="45.51422" lon="3.21676">
        <ele>553</ele>
        <time>2012-11-08T15:32:12Z</time>
      </trkpt>
      <trkpt lat="45.51404" lon="3.2169">
        <ele>553</ele>
        <time>2012-11-08T15:32:17Z</time>
      </trkpt>
      <trkpt lat="45.51388" lon="3.21701">
        <ele>553</ele>
        <time>2012-11-08T15:32:21Z</time>
      </trkpt>
      <trkpt lat="45.51371" lon="3.21718">
        <ele>553</ele>
        <time>2012-11-08T15:32:25Z</time>
      </trkpt>
      <trkpt lat="45.51353" lon="3.21729">
        <ele>553</ele>
        <time>2012-11-08T15:32:29Z</time>
      </trkpt>
      <trkpt lat="45.51336" lon="3.21745">
        <ele>552</ele>
        <time>2012-11-08T15:32:33Z</time>
      </trkpt>
      <trkpt lat="45.51318" lon="3.21759">
        <ele>553</ele>
        <time>2012-11-08T15:32:37Z</time>
      </trkpt>
      <trkpt lat="45.51299" lon="3.21774">
        <ele>554</ele>
        <time>2012-11-08T15:32:41Z</time>
      </trkpt>
      <trkpt lat="45.51281" lon="3.21792">
        <ele>554</ele>
        <time>2012-11-08T15:32:45Z</time>
      </trkpt>
      <trkpt lat="45.51263" lon="3.21803">
        <ele>554</ele>
        <time>2012-11-08T15:32:49Z</time>
      </trkpt>
      <trkpt lat="45.51243" lon="3.21811">
        <ele>555</ele>
        <time>2012-11-08T15:32:53Z</time>
      </trkpt>
      <trkpt lat="45.51224" lon="3.21811">
        <ele>555</ele>
        <time>2012-11-08T15:32:57Z</time>
      </trkpt>
      <trkpt lat="45.51205" lon="3.21812">
        <ele>555</ele>
        <time>2012-11-08T15:33:01Z</time>
      </trkpt>
      <trkpt lat="45.51185" lon="3.2181">
        <ele>555</ele>
        <time>2012-11-08T15:33:05Z</time>
      </trkpt>
      <trkpt lat="45.51163" lon="3.2181">
        <ele>556</ele>
        <time>2012-11-08T15:33:09Z</time>
      </trkpt>
      <trkpt lat="45.51141" lon="3.21813">
        <ele>556</ele>
        <time>2012-11-08T15:33:13Z</time>
      </trkpt>
      <trkpt lat="45.51121" lon="3.21821">
        <ele>556</ele>
        <time>2012-11-08T15:33:17Z</time>
      </trkpt>
      <trkpt lat="45.511" lon="3.21833">
        <ele>556</ele>
        <time>2012-11-08T15:33:21Z</time>
      </trkpt>
      <trkpt lat="45.5108" lon="3.21849">
        <ele>556</ele>
        <time>2012-11-08T15:33:25Z</time>
      </trkpt>
      <trkpt lat="45.51061" lon="3.21867">
        <ele>556</ele>
        <time>2012-11-08T15:33:29Z</time>
      </trkpt>
      <trkpt lat="45.51041" lon="3.21879">
        <ele>556</ele>
        <time>2012-11-08T15:33:33Z</time>
      </trkpt>
      <trkpt lat="45.5102" lon="3.21891">
        <ele>556</ele>
        <time>2012-11-08T15:33:37Z</time>
      </trkpt>
      <trkpt lat="45.50999" lon="3.21903">
        <ele>557</ele>
        <time>2012-11-08T15:33:41Z</time>
      </trkpt>
      <trkpt lat="45.5098" lon="3.21907">
        <ele>557</ele>
        <time>2012-11-08T15:33:44Z</time>
      </trkpt>
      <trkpt lat="45.50958" lon="3.21913">
        <ele>557</ele>
        <time>2012-11-08T15:33:48Z</time>
      </trkpt>
      <trkpt lat="45.5094" lon="3.21922">
        <ele>557</ele>
        <time>2012-11-08T15:33:51Z</time>
      </trkpt>
      <trkpt lat="45.50918" lon="3.2193">
        <ele>557</ele>
        <time>2012-11-08T15:33:55Z</time>
      </trkpt>
      <trkpt lat="45.509" lon="3.21936">
        <ele>557</ele>
        <time>2012-11-08T15:33:58Z</time>
      </trkpt>
      <trkpt lat="45.50878" lon="3.21945">
        <ele>557</ele>
        <time>2012-11-08T15:34:02Z</time>
      </trkpt>
      <trkpt lat="45.50859" lon="3.21951">
        <ele>557</ele>
        <time>2012-11-08T15:34:06Z</time>
      </trkpt>
      <trkpt lat="45.50839" lon="3.21954">
        <ele>557</ele>
        <time>2012-11-08T15:34:10Z</time>
      </trkpt>
      <trkpt lat="45.50818" lon="3.21962">
        <ele>557</ele>
        <time>2012-11-08T15:34:14Z</time>
      </trkpt>
    </trkseg>
  </trk>
</gpx>